[[{"header":{"parameterUnit":"m.s-1","parameterCategory":1,"la1":30.6,"la2":29.2853,"lo1":-89.7004,"lo2":-87.6739,"dy":0.0162,"dx":0.0183,"nx":112,"ny":82,"refTime":"2024-07-14T00:00:00:Z","depth":0,"parameterNumber":2,"parameterNumberName":"U-component_of_WINDS"},"data":[0.0,0.0,0.0,0.0,0.0,0.0,0.0,0.0,0.0,0.0,0.0,0.0,0.0,0.0,0.0,0.0,0.0,0.0,0.0,0.0,0.0,0.0,0.0,0.0,0.0,0.0,0.0,0.0,0.0,0.0,0.0,0.0,0.0,0.0,0.0,0.0,0.0,0.0,0.0,0.0,0.0,0.0,0.0,0.0,0.0,0.0,0.0,0.0,0.0,0.0,0.0,0.0,0.0,0.0,0.0,0.0,0.0,0.0,0.0,0.0,0.0,0.0,0.0,0.0,0.0,0.0,0.0,0.0,0.0,0.0,0.0,0.0,0.0,0.0,0.0,0.0,0.0,0.0,0.0,0.0,0.0,0.0,0.0,0.0,0.0,0.0,0.0,0.0,0.0,0.0,0.2103,0.2223,0.1858,0.1342,0.0615,-0.0168,-0.0686,-0.0772,0.0,0.0,0.0,0.0,0.0,0.0,0.0,0.0,0.0,0.0,0.0,0.0,0.0,0.0,0.0,0.0,0.0,0.0,0.0,0.0,0.0,0.0,0.0,0.0,0.0,0.0,0.0,0.0,0.0,0.0,0.0,0.0,0.0,0.0,0.0,0.0,0.0,0.0,0.0,0.0,0.0,0.0,0.0,0.0,0.0,0.0,0.0,0.0,0.0,0.0,0.0,0.0,0.0,0.0,0.0,0.0,0.0,0.0,0.0,0.0,0.0,0.0,0.0,0.0,0.0,0.0,0.0,0.0,0.0,0.0,0.0,0.0,0.0,0.0,0.0,0.0,0.0,0.0,0.0,0.0,0.0,0.0,0.0,0.0,0.0,0.0,0.0,0.0,0.0,0.0,0.0,0.0,0.0,0.0,0.0,0.0,0.0,0.0,0.0,0.0,0.0,0.0,0.0,0.0,0.1992,0.1882,0.1829,0.1286,0.0056,-0.028,-0.0634,-0.0996,0.0,0.0,0.0,0.0,0.0,0.0,0.0,0.0,0.0,0.0,0.0,0.0,0.0,0.0,0.0,0.0,0.0,0.0,0.0,0.0,0.0,0.0,0.0,0.0,0.0,0.0,0.0,0.0,0.0,0.0,0.0,0.0,0.0,0.0,0.0,0.0,0.0,0.0,0.0,0.0,0.0,0.0,0.0,0.0,0.0,0.0,0.0,0.0,0.0,0.0,0.0,0.0,0.0,0.0,0.0,0.0,0.0,0.0,0.0,0.0,0.0,0.0,0.0,0.0,0.0,0.0,0.0,0.0,0.0,0.0,0.0,0.0,0.0,0.0,0.0,0.0,0.0,0.0,0.0,0.0,0.0,0.0,0.0,0.0,0.0,0.0,0.0,0.0,0.0,0.0,0.0,0.0,0.0,0.0,0.0,0.0,0.0,0.0,0.0,0.0,0.0,0.0,0.0,0.2132,0.2056,0.1821,0.1454,0.0839,-0.0112,-0.0729,-0.1058,-0.0998,-0.0745,0.0,0.0,0.0,0.0,0.0,0.0,0.0,0.0,0.0,0.0,0.0,0.0,0.0,0.0,0.0,0.0,0.0,0.0,0.0,0.0,0.0,0.0,0.0,0.0,0.0,0.0,0.0,0.0,0.0,0.0,0.0,0.0,0.0,0.0,0.0,0.0,0.0,0.0,0.0,0.0,0.0,0.0,0.0,0.0,0.0,0.0,0.0,0.0,0.0,0.0,0.0,0.0,0.0,0.0,0.0,0.0,0.0,0.0,0.0,0.0,0.0,0.0,0.0,0.0,0.0,0.0,0.0,0.0,0.0,0.0,0.0,0.0,0.0,0.0,0.0,0.0,0.0,0.0,0.0,0.0,0.0,0.0,0.0,0.0,0.0,0.0,0.0,0.0,0.0,0.0,0.0,0.0,0.0,0.0,0.0,0.0,0.0,0.0,0.0,0.0,0.0,0.0,0.2102,0.1874,0.1386,0.0783,0.0224,-0.0393,-0.1106,-0.1404,-0.0953,-0.0852,0.0,0.0,0.0,0.0,0.0,0.0,0.0,0.0,0.0,0.0,0.0,0.0,0.0,0.0,0.0,0.0,0.0,0.0,0.0,0.0,0.0,0.0,0.0,0.0,0.0,0.0,0.0,0.0,0.0,0.0,0.0,0.0,0.0,0.0,0.0,0.0,0.0,0.0,0.0,0.0,0.0,0.0,0.0,0.0,0.0,0.0,0.0,0.0,0.0,0.0,0.0,0.0,0.0,0.0,0.0,0.0,0.0,0.0,0.0,0.0,0.0,0.0,0.0,0.0,0.0,0.0,0.0,0.0,0.0,0.0,0.0,0.0,0.0,0.0,0.0,0.0,0.0,0.0,0.0,0.0,0.0,0.0,0.0,0.0,0.0,0.0,0.0,0.0,0.0,0.0,0.0,0.0,0.0,0.0,0.0,0.0,0.0,0.0,0.0,0.0,0.0,0.0,0.1437,0.1071,0.0056,-0.0224,-0.0561,-0.1178,-0.1321,-0.1326,-0.108,-0.1027,0.0,0.0,0.0,0.0,0.0,0.0,0.0,0.0,0.0,0.0,0.0,0.0,0.0,0.0,0.0,0.0,0.0,0.0,0.0,0.0,0.0,0.0,0.0,0.0,0.0,0.0,0.0,0.0,0.0,0.0,0.0,0.0,0.0,0.0,0.0,0.0,0.0,0.0,0.0,0.0,0.0,0.0,0.0,0.0,0.0,0.0,0.0,0.0,0.0,0.0,0.0,0.0,0.0,0.0,0.0,0.0,0.0,0.0,0.0,0.0,0.0,0.0,0.0,0.0,0.0,0.0,0.0,0.0,0.0,0.0,0.0,0.0,0.0,0.0,0.0,0.0,0.0,0.0,0.0,0.0,0.0,0.0,0.0,0.0,0.0,0.0,0.0,0.0,0.0,0.0,0.0,0.0,0.0,0.0,0.0,0.0,0.0,0.0,0.0,0.0,0.0,0.0,0.0924,0.0421,-0.0111,-0.0336,-0.0617,-0.1234,-0.1425,-0.1387,-0.1129,0.0,0.0,0.0,0.0,0.0,0.0,0.0,0.0,0.0,0.0,0.0,0.0,0.0,0.0,0.0,0.0,0.0,0.0,0.0,0.0,0.0,0.0,0.0,0.0,0.0,0.0,0.0,0.0,0.0,0.0,0.0,0.0,0.0,0.0,0.0,0.0,0.0,0.0,0.0,0.0,0.0,0.0,0.0,0.0,0.0,0.0,0.0,0.0,0.0,0.0,0.0,0.0,0.0,0.0,0.0,0.0,0.0,0.0,0.0,0.0,0.0,0.0,0.0,0.0,0.0,0.0,0.0,0.0,0.0,0.0,0.0,0.0,0.0,0.0,0.0,0.0,0.0,0.0,0.0,0.0,0.0,0.0,0.0,0.0,0.0,0.0,0.0,0.0,0.0,0.0,0.0,0.0,0.0,0.0,0.0,0.0,0.0,0.0,0.0,0.0,0.0,0.0,0.0879,0.0344,-0.0213,-0.0614,-0.0785,-0.101,-0.1403,-0.1525,-0.1478,-0.1219,0.0,0.0,0.0,0.0,0.0,0.0,0.0,0.0,0.0,0.0,0.0,0.0,0.0,0.0,0.0,0.0,0.0,0.0,0.0,0.0,0.0,0.0,0.0,0.0,0.0,0.0,0.0,0.0,0.0,0.0,0.0,0.0,0.0,0.0,0.0,0.0,0.0,0.0,0.0,0.0,0.0,0.0,0.0,0.0,0.0,0.0,0.0,0.0,0.0,0.0,0.0,0.0,0.0,0.0,0.0,0.0,0.0,0.0,0.0,0.0,0.0,0.0,0.0,0.0,0.0,0.0,0.0,0.0,0.0,0.0,0.0,0.0,0.0,0.0,0.0,0.0,0.0,0.0,0.0,0.0,0.0,0.0,0.0,0.0,0.0,0.0,0.0,0.0,0.0,0.0,0.0,0.0,0.0,0.0,0.0,0.0,0.0,0.0,0.0,0.0,0.0,0.0,0.0133,-0.0359,-0.0951,-0.1515,-0.1741,-0.1797,-0.1797,-0.1631,-0.15,0.0,0.0,0.0,0.0,0.0,0.0,0.0,0.0,0.0,0.0,0.0,0.0,0.0,0.0,0.0,0.0,0.0,0.0,0.0,0.0,0.0,0.0,0.0,0.0,0.0,0.0,0.0,0.0,0.0,0.0,0.0,0.0,0.0,0.0,0.0,0.0,0.0,0.0,0.0,0.0,0.0,0.0,0.0,0.0,0.0,0.0,0.0,0.0,0.0,0.0,0.0,0.0,0.0,0.0,0.0,0.0,0.0,0.0,0.0,0.0,0.0,0.0,0.0,0.0,0.0,0.0,0.0,0.0,0.0,0.0,0.0,0.0,0.0,0.0,0.0,0.0,0.0,0.0,0.0,0.0,0.0,0.0,0.0,0.0,0.0,0.0,0.0,0.0,0.0,0.0,0.0,0.0,0.0,0.0,0.0,0.0,0.0,0.0,0.0,0.0,0.0,0.0,0.0,-0.031,-0.0976,-0.1514,-0.1572,-0.2128,-0.2462,-0.2462,-0.266,-0.2674,-0.2471,0.0,0.0,0.0,0.0,0.0,0.0,0.0,0.0,0.0,0.0,0.0,0.0,0.0,0.0,0.0,0.0,0.0,0.0,0.0,0.0,0.0,0.0,0.0,0.0,0.0,0.0,0.0,0.0,0.0,0.0,0.0,0.0,0.0,0.0,0.0,0.0,0.0,0.0,0.0,0.0,0.0,0.0,0.0,0.0,0.0,0.0,0.0,0.0,0.0,0.0,0.0,0.0,0.0,0.0,0.0,0.0,0.0,0.0,0.0,0.0,0.0,0.0,0.0,0.0,0.0,0.0,0.0,0.0,0.0,0.0,0.0,0.0,0.0,0.0,0.0,0.0,0.0,0.0,0.0,0.0,0.0,0.0,0.0,0.0,0.0,0.0,0.0,0.0,0.0,0.0,0.0,0.0,0.0,0.0,0.0,0.0,0.0,0.0,0.0,0.0,0.0,0.0,-0.062,-0.1541,-0.2128,-0.2073,-0.2627,-0.307,-0.307,-0.3248,-0.3262,-0.2992,0.0,0.0,0.0,0.0,0.0,0.0,0.0,0.0,0.0,0.0,0.0,0.0,0.0,0.0,0.0,0.0,0.0,0.0,0.0,0.0,0.0,0.0,0.0,0.0,0.0,0.0,0.0,0.0,0.0,0.0,0.0,0.0,0.0,0.0,0.0,0.0,0.0,0.0,0.0,0.0,0.0,0.0,0.0,0.0,0.0,0.0,0.0,0.0,0.0,0.0,0.0,0.0,0.0,0.0,0.0,0.0,0.0,0.0,0.0,0.0,0.0,0.0,0.0,0.0,0.0,0.0,0.0,0.0,0.0,0.0,0.0,0.0,0.0,0.0,0.0,0.0,0.0,0.0,0.0,0.0,0.0,0.0,0.0,0.0,0.0,0.0,0.0,0.0,0.0,0.0,0.0,0.0,0.0,0.0,0.0,0.0,0.0,0.0,0.0,0.0,0.0,0.0,-0.0929,-0.1946,-0.2736,-0.2792,-0.3347,-0.3683,-0.3683,-0.3675,-0.3544,-0.3242,0.0,0.0,0.0,0.0,0.0,0.0,0.0,0.0,0.0,0.0,0.0,0.0,0.0,0.0,0.0,0.0,0.0,0.0,0.0,0.0,0.0,0.0,0.0,0.0,0.0,0.0,0.0,0.0,0.0,0.0,0.0,0.0,0.0,0.0,0.0,0.0,0.0,0.0,0.0,0.0,0.0,0.0,0.0,0.0,0.0,0.0,0.0,0.0,0.0,0.0,0.0,0.0,0.0,0.0,0.0,0.0,0.0,0.0,0.0,0.0,0.3553,0.3368,0.0,0.0,0.0,0.0,0.0,0.0,0.0,0.0,0.0,0.0,0.0,0.0,0.0,0.0,0.0,0.0,0.0,0.0,0.0,0.0,0.0,0.0,0.0,0.0,0.0,0.0,0.0,0.0,0.0,0.0,0.0,0.0,0.0,0.0,0.0,0.0,0.0,0.0,0.0,0.0,-0.1857,-0.2407,-0.2903,-0.3347,-0.3959,-0.4294,-0.4294,-0.4591,-0.4618,-0.4236,-0.3712,0.0,0.0,0.0,0.0,0.0,0.0,0.0,0.0,0.0,0.0,0.0,0.0,0.0,0.0,0.0,0.0,0.0,0.0,0.0,0.0,0.0,0.0,0.0,0.0,0.0,0.0,0.0,0.0,0.0,0.0,0.0,0.0,0.0,0.0,0.0,0.0,0.0,0.0,0.0,0.0,0.0,0.0,0.0,0.0,0.0,0.0,0.0,0.0,0.0,0.0,0.0,0.0,0.0,0.0,0.0,0.0,0.0,0.0,0.0,0.359,0.3334,0.0,0.0,0.0,0.0,0.0,0.0,0.0,0.0,0.0,0.0,0.0,0.0,0.0,0.0,0.0,0.0,0.0,0.0,0.0,0.0,0.0,0.0,0.0,0.0,0.0,0.0,0.0,0.0,0.0,0.0,0.0,0.0,0.0,0.0,0.0,0.0,0.0,0.0,0.0,0.0,-0.1825,-0.2641,-0.3236,-0.3569,-0.4349,-0.4908,-0.4908,-0.5101,-0.5096,-0.482,-0.4333,0.0,0.0,0.0,0.0,0.0,0.0,0.0,0.0,0.0,0.0,0.0,0.0,0.0,0.0,0.0,0.0,0.0,0.0,0.0,0.0,0.0,0.0,0.0,0.0,0.0,0.0,0.0,0.0,0.0,0.0,0.0,0.0,0.0,0.0,0.0,0.0,0.0,0.0,0.0,0.0,0.0,0.0,0.0,0.0,0.0,0.0,0.0,0.0,0.0,0.0,0.0,0.0,0.0,0.4518,0.4383,0.4425,0.42,0.394,0.37,0.3525,0.3282,0.3029,0.3121,0.0,0.0,0.0,0.0,0.0,0.0,0.0,0.0,0.0,0.0,0.0,0.0,0.0,0.0,0.0,0.0,0.0,0.0,0.0,0.0,0.0,0.0,-0.0099,-0.025,-0.0615,-0.0868,-0.0556,0.0,0.0,0.0,0.0,0.0,0.0,0.0,0.0,0.0,0.0,0.0,-0.1667,-0.2787,-0.3627,-0.3738,-0.4684,-0.5301,-0.5352,-0.5297,-0.5275,-0.5197,-0.482,-0.4447,0.0,0.0,0.0,0.0,0.0,0.0,0.0,0.0,0.0,0.0,0.0,0.0,0.0,0.0,0.0,0.0,0.0,0.0,0.0,0.0,0.0,0.0,0.0,0.0,0.0,0.0,0.0,0.0,0.0,0.0,0.0,0.0,0.4208,0.4243,0.0,0.0,0.0,0.0,0.0,0.0,0.0,0.0,0.0,0.0,0.0,0.0,0.0,0.6039,0.5715,0.5655,0.5296,0.4552,0.4473,0.4424,0.4587,0.4116,0.3931,0.3825,0.3432,0.0,0.2815,0.2722,0.0,0.0,0.0,0.0,0.0,0.0,0.0,0.0,0.0,0.0,0.0,0.0,0.0,0.0,0.0,0.0,0.0,0.0,0.0,0.0,0.0,0.0,-0.1446,-0.1484,-0.1678,-0.1797,-0.1776,-0.0946,-0.0207,-0.0205,-0.0475,-0.072,0.0,0.0,0.0,0.0,0.0,0.0,-0.228,-0.3096,-0.3793,-0.4349,-0.4908,-0.5352,-0.5567,-0.5407,-0.5329,-0.5453,-0.514,-0.4878,-0.4709,-0.4188,0.0,0.0,0.0,0.0,0.0,0.0,0.0,0.0,0.0,0.0,0.0,0.0,0.0,0.0,0.0,0.0,0.0,0.0,0.0,0.0,0.0,0.0,0.0,0.0,0.0,0.0,0.0,0.0,0.0,0.4568,0.4881,0.5124,0.537,0.5548,0.0,0.0,0.0,0.0,0.0,0.0,0.0,0.0,0.0,0.6415,0.6164,0.5858,0.5482,0.5225,0.4814,0.4238,0.4156,0.4107,0.4009,0.3799,0.3659,0.3659,0.3451,0.2966,0.2317,0.2416,0.2273,0.1974,0.0,0.0,0.0,0.0,0.1715,0.1798,0.1229,0.091,0.0734,0.0359,0.0,0.0,0.0,0.0,0.0,0.0,0.0,-0.0053,-0.0723,-0.1109,-0.1333,-0.1782,-0.191,-0.1971,-0.1971,-0.1598,-0.1197,-0.1076,-0.117,-0.1196,-0.1046,-0.1173,0.0,0.0,0.0,-0.2153,-0.253,-0.3466,-0.4184,-0.446,-0.4963,-0.5352,-0.5407,-0.5462,-0.5479,-0.5556,-0.5422,-0.5238,-0.5106,-0.476,-0.4337,0.0,0.0,0.0,0.0,0.0,0.0,0.0,0.0,0.0,0.0,0.0,0.0,0.0,0.0,0.0,0.0,0.0,0.0,0.0,0.0,0.0,0.0,0.0,0.0,0.0,0.0,0.0,0.0,0.4955,0.5448,0.6066,0.6076,0.609,0.0,0.0,0.0,0.0,0.0,0.0,0.6391,0.6473,0.6519,0.6529,0.6068,0.559,0.517,0.4742,0.4306,0.3925,0.3925,0.3693,0.342,0.342,0.3346,0.327,0.3046,0.2514,0.1677,0.206,0.1887,0.1289,0.1252,0.1414,0.1592,0.1087,0.102,0.1125,0.0558,0.0248,0.0061,-0.0118,-0.0171,-0.0164,-0.0308,0.0,0.0,0.0,0.0,-0.0414,-0.115,-0.124,-0.1387,-0.1892,-0.2082,-0.2082,-0.2082,-0.2069,-0.1952,-0.1802,-0.1737,-0.1654,-0.1441,-0.1449,0.0,-0.1808,-0.228,-0.2706,-0.3073,-0.3996,-0.4639,-0.4678,-0.5156,-0.5462,-0.5462,-0.5572,-0.5677,-0.5732,-0.5732,-0.5617,-0.5479,-0.5285,-0.4957,-0.4435,0.0,0.0,0.0,0.0,0.0,0.0,0.0,0.0,0.0,0.0,0.0,0.0,0.0,0.0,0.0,0.0,0.0,0.0,0.0,0.0,0.0,0.0,0.0,0.0,0.0,0.0,0.0,0.0,0.0,0.6959,0.6173,0.0,0.0,0.0,0.0,0.6288,0.6981,0.7203,0.6688,0.7011,0.7003,0.6679,0.6086,0.5616,0.5194,0.4624,0.4106,0.3612,0.3612,0.3434,0.3129,0.3129,0.2893,0.2501,0.1953,0.1387,0.0976,0.1564,0.1248,0.0276,0.0202,0.02,0.02,0.02,0.0133,0.0067,-0.0535,-0.0735,-0.0801,-0.1401,-0.1219,-0.0729,-0.0764,-0.0416,0.0,0.0,-0.102,-0.1133,-0.1938,-0.2143,-0.2144,-0.2211,-0.2211,-0.2211,-0.2211,-0.2165,-0.2102,-0.1971,-0.1956,-0.1916,-0.1796,0.0,-0.2052,-0.287,-0.2909,-0.3177,-0.4326,-0.4741,-0.4957,-0.5163,-0.5557,-0.5845,-0.595,-0.5845,-0.5905,-0.6178,-0.6059,-0.6,-0.5987,-0.5747,-0.5437,-0.4971,-0.4561,0.0,0.0,0.0,0.0,0.0,0.0,0.0,0.0,0.0,0.0,0.0,0.0,0.0,0.0,0.0,0.0,0.0,0.0,0.0,0.0,0.0,0.0,0.0,0.0,0.0,0.0,0.0,0.0,0.6833,0.6491,0.0,0.6821,0.6707,0.6551,0.6551,0.6717,0.6772,0.6715,0.6453,0.6256,0.6283,0.5381,0.4865,0.4688,0.4239,0.3943,0.3801,0.3801,0.3609,0.32,0.32,0.2707,0.1805,0.164,0.0816,-0.0404,-0.0159,-0.0152,-0.0359,-0.0427,-0.0283,-0.0141,-0.0637,-0.0637,-0.0495,-0.1204,-0.1559,-0.1697,-0.1946,-0.1909,-0.1674,-0.1723,-0.1597,-0.1481,-0.1783,-0.1887,-0.1914,-0.2199,-0.2271,-0.2271,-0.2271,-0.224,-0.2213,-0.2213,-0.2165,-0.2312,-0.2675,-0.2339,-0.2128,-0.2615,-0.2759,-0.3069,-0.386,-0.4282,-0.4718,-0.5118,-0.5589,-0.5889,-0.5956,-0.597,-0.6027,-0.6084,-0.5967,-0.595,-0.6059,-0.6005,-0.6,-0.6,-0.5936,-0.5751,-0.5455,-0.5214,-0.4724,0.0,0.0,0.0,0.0,0.0,0.0,0.0,0.0,0.0,0.0,0.0,0.0,0.0,0.0,0.0,0.0,0.0,0.0,0.0,0.0,0.0,0.0,0.0,0.0,0.0,0.5932,0.6077,0.7095,0.6749,0.6623,0.7095,0.6899,0.6706,0.6701,0.6622,0.6607,0.6577,0.6157,0.5964,0.5949,0.5056,0.4578,0.4618,0.4139,0.3804,0.3697,0.3697,0.3395,0.2856,0.2603,0.2016,0.1092,0.0588,-0.0252,-0.1344,-0.1513,-0.1541,-0.138,-0.138,-0.1219,-0.1058,-0.159,-0.1581,-0.1343,-0.1869,-0.2083,-0.221,-0.2244,-0.2219,-0.2204,-0.2204,-0.2217,-0.2312,-0.2352,-0.2379,-0.239,-0.2369,-0.2364,-0.236,-0.2339,-0.2233,-0.2345,-0.2696,-0.2799,-0.3036,-0.3785,-0.3162,-0.2763,-0.3522,-0.3686,-0.4016,-0.4833,-0.5284,-0.567,-0.6038,-0.6323,-0.6578,-0.6646,-0.647,-0.6321,-0.6248,-0.6183,-0.6128,-0.6064,-0.6059,-0.6059,-0.6059,-0.599,-0.5894,-0.5718,-0.5424,-0.5032,-0.4484,0.0,0.0,0.0,0.0,0.0,0.0,0.0,0.0,0.0,0.0,0.0,0.0,0.0,0.0,0.0,0.0,0.0,0.0,0.0,0.0,0.0,0.0,0.0,0.6098,0.5955,0.6274,0.7762,0.6912,0.648,0.71,0.6892,0.6708,0.6631,0.6875,0.6764,0.6332,0.6268,0.61,0.5746,0.5106,0.4834,0.4944,0.4283,0.3783,0.3278,0.3278,0.286,0.1938,0.1263,0.0674,0.0168,-0.1179,-0.1684,-0.1768,-0.2444,-0.2698,-0.2698,-0.2694,-0.2655,-0.2604,-0.2604,-0.2567,-0.2516,-0.2516,-0.2477,-0.2428,-0.2428,-0.239,-0.2343,-0.2343,-0.238,-0.2422,-0.2422,-0.2465,-0.2497,-0.2437,-0.2422,-0.2409,-0.2354,-0.2339,-0.2627,-0.3706,-0.3919,-0.4205,-0.5215,-0.4452,-0.3794,-0.4449,-0.468,-0.4998,-0.5757,-0.5805,0.0,-0.7084,-0.6991,-0.6946,-0.7207,-0.6984,-0.6716,-0.6501,-0.6478,-0.6389,-0.6187,-0.6178,-0.6178,-0.6178,-0.6029,-0.5869,-0.5722,-0.5129,-0.4863,-0.4902,0.0,0.0,0.0,0.0,0.0,0.0,0.0,0.0,0.0,0.0,0.0,0.0,0.0,0.0,0.0,0.0,0.0,0.0,0.0,0.0,0.0,0.4989,0.4848,0.5724,0.6058,0.6349,0.6817,0.6806,0.666,0.6379,0.6362,0.6239,0.5897,0.6043,0.6113,0.6018,0.5618,0.5325,0.5229,0.4573,0.4257,0.4283,0.3779,0.3472,0.3442,0.3014,0.2344,0.1322,0.1146,0.0176,-0.1234,-0.1587,-0.2117,-0.2559,-0.2736,-0.2824,-0.2815,-0.2726,-0.2681,-0.2668,-0.2668,-0.2657,-0.2643,-0.2643,-0.2631,-0.2617,-0.2617,-0.2576,-0.2529,-0.2529,-0.2508,-0.2485,-0.2485,-0.2497,-0.2506,-0.2489,-0.2485,-0.2636,-0.3229,-0.3334,-0.3589,-0.462,-0.477,-0.5066,-0.6001,-0.6008,-0.5898,-0.5869,-0.5815,-0.6005,-0.6914,-0.6998,-0.7131,-0.7377,-0.7362,-0.731,-0.7436,-0.7196,-0.6993,-0.6721,-0.6562,-0.6389,-0.6187,-0.6178,-0.6178,-0.6178,-0.6122,-0.6089,-0.604,-0.563,-0.5311,0.0,0.0,0.0,0.0,0.0,0.0,0.0,0.0,0.0,0.0,0.0,0.0,0.0,0.0,0.0,0.0,0.0,0.0,0.0,0.0,0.0,0.0,0.4813,0.4722,0.5071,0.5712,0.615,0.6222,0.6537,0.643,0.5831,0.597,0.596,0.5701,0.5785,0.5782,0.5527,0.5196,0.4799,0.4422,0.4002,0.3681,0.3542,0.3282,0.3042,0.2905,0.229,0.1596,0.0807,0.0179,-0.0718,-0.1794,-0.2154,-0.2513,-0.2875,-0.2875,-0.2875,-0.2867,0.0,0.0,0.0,0.0,-0.2692,-0.2692,-0.2692,-0.2692,-0.2692,-0.2692,-0.2669,-0.2639,-0.2639,-0.2597,-0.2627,-0.2943,-0.3079,-0.3132,-0.3444,-0.36,-0.3832,-0.4297,-0.4484,-0.4817,-0.5799,-0.6034,-0.6268,-0.7228,-0.7471,0.0,-0.727,-0.7031,-0.6989,-0.746,-0.7518,-0.7456,-0.7396,-0.7461,-0.7521,-0.7521,-0.7416,-0.7201,-0.6998,-0.6726,0.0,0.0,0.0,-0.6298,-0.6468,-0.6463,0.0,0.0,0.0,0.0,0.0,-0.6409,0.0,0.0,-0.559,-0.5404,0.0,0.0,0.0,0.0,0.0,0.0,0.0,0.0,0.0,0.0,0.0,0.0,0.0,0.0,0.0,0.0,0.4452,0.4626,0.4419,0.517,0.5715,0.5892,0.612,0.6046,0.5476,0.561,0.5746,0.571,0.5722,0.5474,0.4982,0.4898,0.0,0.0,0.0,0.3254,0.2867,0.2777,0.251,0.2064,0.1256,0.0628,0.009,-0.1166,-0.1884,-0.1974,-0.2604,-0.2875,-0.2875,-0.2875,-0.2875,-0.2875,-0.2875,-0.2841,-0.2786,-0.2733,-0.2713,-0.2713,-0.2713,0.0,0.0,-0.2713,-0.2793,-0.287,-0.287,-0.2907,-0.3097,-0.3822,-0.4004,-0.4173,-0.4867,-0.5254,-0.5401,-0.5464,-0.5613,-0.6073,-0.7084,-0.7318,-0.7625,-0.8546,-0.8557,-0.8439,-0.8439,-0.807,-0.7714,-0.7582,-0.7531,-0.7461,-0.7265,-0.7396,-0.7521,-0.7521,-0.7521,0.0,-0.724,-0.6993,-0.6735,-0.6524,-0.643,-0.6484,-0.6819,-0.691,-0.7172,-0.7638,-0.7638,-0.7701,-0.7925,-0.8455,-0.8402,-0.7847,-0.5997,-0.5684,0.0,0.0,0.0,0.0,0.0,0.0,0.0,0.0,0.0,0.0,0.0,0.0,0.0,0.0,0.0,0.495,0.4362,0.4149,0.5084,0.5089,0.5134,0.5489,0.5758,0.5677,0.4983,0.5091,0.4964,0.4567,0.4488,0.4521,0.4418,0.4072,0.3815,0.3565,0.3207,0.2945,0.2867,0.1972,0.1435,0.1256,0.0179,0.0,-0.1346,-0.1705,-0.2154,-0.2694,-0.2873,-0.2875,-0.2875,-0.2875,-0.2875,-0.2875,-0.2875,-0.2867,-0.2856,-0.2843,-0.2839,-0.2839,-0.2839,-0.2839,-0.2839,-0.2839,-0.3328,-0.388,-0.388,-0.4409,0.0,-0.5157,-0.5303,-0.5505,-0.5491,-0.5621,-0.5909,-0.6423,-0.6626,-0.6934,-0.794,-0.8169,-0.8246,-0.8627,-0.867,-0.8642,-0.8642,-0.8165,-0.7777,-0.7782,-0.7598,-0.7456,-0.7461,-0.7461,-0.7521,-0.7521,-0.7521,-0.744,-0.724,-0.7121,-0.7012,-0.6744,-0.6984,-0.7147,-0.702,-0.7482,-0.7741,-0.7852,-0.7852,-0.7876,-0.7925,-0.8031,-0.8031,-0.7919,-0.7973,-0.7737,0.0,0.0,0.0,0.0,0.0,0.0,0.0,0.0,0.0,0.0,0.0,0.4286,0.4452,0.0,0.4447,0.4538,0.4312,0.4267,0.4609,0.4556,0.4561,0.5026,0.5245,0.5133,0.4527,0.458,0.4396,0.3967,0.3886,0.3813,0.3582,0.3405,0.3138,0.2871,0.2263,0.181,0.1613,0.0641,0.0092,0.0179,-0.0816,-0.145,-0.1795,-0.2176,-0.2628,-0.2876,-0.2905,-0.2901,-0.2875,-0.2875,-0.2875,-0.2877,-0.2905,-0.2899,-0.2875,-0.2875,-0.2875,-0.2875,-0.2875,-0.3232,-0.3587,-0.3587,-0.4178,-0.493,-0.493,-0.5201,-0.5701,-0.6204,-0.6402,-0.6579,-0.7001,-0.7303,-0.7504,-0.7737,-0.7848,-0.8056,-0.8498,-0.8551,-0.8551,-0.8703,-0.8703,-0.8703,-0.8703,-0.8363,-0.8056,-0.7947,-0.7754,-0.7645,-0.7536,-0.7521,-0.7521,-0.7521,-0.7521,-0.7483,-0.7378,-0.7278,-0.7073,-0.6805,-0.6983,-0.7218,-0.7383,-0.7655,-0.7937,-0.8267,-0.8608,-0.8775,-0.8775,-0.9108,-0.9108,-0.8775,-0.9059,-0.8719,0.0,0.0,0.0,0.0,0.0,0.0,0.0,0.0,0.3978,0.4247,0.4317,0.4268,0.4338,0.4485,0.4463,0.3932,0.413,0.4266,0.4014,0.3966,0.4032,0.4526,0.4758,0.4678,0.4076,0.41,0.3875,0.3492,0.3497,0.3323,0.2884,0.2794,0.253,0.1997,0.129,0.0645,0.0182,-0.0656,-0.1032,-0.0998,-0.1755,-0.2123,-0.209,-0.2769,-0.2951,-0.291,-0.2956,-0.295,-0.2907,-0.2895,-0.289,-0.2894,-0.2928,-0.2914,-0.2876,-0.2887,-0.3063,-0.3142,-0.3142,-0.3765,-0.4565,-0.4565,-0.5186,-0.5985,-0.5985,-0.6089,-0.6436,-0.7293,-0.7539,-0.7764,-0.8578,-0.8982,-0.9096,-0.8898,-0.8895,-0.8978,-0.8803,-0.8732,-0.8703,-0.8703,-0.8703,-0.8703,-0.8703,-0.8566,-0.8387,-0.8174,-0.7971,-0.7777,-0.7669,-0.7612,-0.7583,-0.7583,-0.755,-0.7521,-0.7521,-0.7374,-0.713,-0.6862,-0.6973,-0.7245,-0.7677,-0.7968,-0.8322,-0.8786,-0.9434,-0.9782,-0.9782,-1.0358,-1.0301,-0.9789,-0.9843,-0.933,0.2544,0.2703,0.3003,0.3284,0.3447,0.3519,0.0,0.0,0.3503,0.3401,0.3455,0.3585,0.3708,0.3812,0.3938,0.3975,0.3669,0.3591,0.3948,0.3763,0.3543,0.3621,0.406,0.4072,0.3648,0.3624,0.3489,0.3045,0.2957,0.2981,0.2944,0.2489,0.1952,0.1134,0.0664,-0.0,-0.0758,-0.1521,-0.19,-0.1891,-0.2655,-0.2941,-0.2934,-0.3035,-0.313,-0.3125,-0.3132,-0.313,-0.3119,-0.297,-0.295,-0.2944,-0.2901,-0.288,-0.288,-0.2931,-0.3459,-0.4121,-0.4121,-0.4743,-0.5542,-0.5542,-0.6163,-0.6962,-0.6962,-0.7658,-0.8528,-0.8703,-0.903,-0.932,-0.9239,-0.9363,-0.9475,-0.926,-0.9077,-0.9015,-0.8996,-0.8836,-0.8703,-0.8703,-0.8703,-0.8703,-0.8703,-0.8685,-0.86,-0.8396,-0.8184,-0.8037,-0.8014,-0.7853,-0.7744,-0.7744,-0.7636,-0.7521,-0.7521,-0.7502,-0.7402,-0.714,-0.7608,-0.7822,-0.7682,-0.8792,-0.944,-0.9492,-1.0128,-1.0473,-1.0473,-1.0587,-1.053,-1.048,-1.0769,-0.9906,0.2761,0.2795,0.2873,0.0,0.3264,0.3326,0.3309,0.3383,0.3396,0.3129,0.3348,0.3575,0.343,0.3487,0.3549,0.0,0.3512,0.344,0.3398,0.3481,0.3386,0.3125,0.3299,0.3316,0.318,0.321,0.2959,0.2511,0.2449,0.22,0.1386,0.1216,0.0756,-0.0095,-0.077,-0.1252,-0.1524,-0.2339,-0.2631,-0.2667,-0.2987,-0.3083,-0.3146,-0.3086,-0.3102,-0.31,-0.3064,-0.3144,-0.3143,-0.3772,-0.3946,-0.4042,-0.4804,-0.5055,-0.4901,-0.4104,-0.4089,-0.4555,-0.5096,-0.591,-0.6722,-0.6902,-0.7474,-0.8201,-0.8376,-0.8732,-0.917,-0.9257,-0.9428,-0.9584,-0.9675,-0.9737,-0.9771,-0.9559,-0.9445,-0.9322,-0.9077,-0.8954,-0.8855,-0.8727,-0.8703,-0.8703,-0.8703,-0.8703,-0.8675,-0.859,-0.8401,-0.8222,-0.8099,-0.8009,-0.791,-0.7792,-0.7697,-0.7593,-0.7531,-0.7521,-0.7488,-0.7402,-0.7585,-0.7668,-0.7578,-0.8443,-0.8939,-0.8939,-0.9991,-1.0546,-1.0546,-1.097,-1.097,-1.0546,-1.0677,-1.0105,0.2617,0.0,0.0,0.2577,0.2768,0.2958,0.3119,0.3145,0.3061,0.2869,0.3137,0.3335,0.3141,0.3096,0.3132,0.3286,0.323,0.3083,0.295,0.2993,0.296,0.2714,0.2614,0.2539,0.2235,0.251,0.2427,0.1719,0.1652,0.1209,-0.0,-0.0,-0.0385,-0.1162,-0.1766,-0.216,-0.2322,-0.2887,-0.3187,-0.31,-0.3144,-0.3142,-0.3101,-0.3144,-0.3165,-0.3162,-0.3505,-0.3675,-0.3769,-0.4895,-0.5358,-0.5363,-0.6367,-0.6715,-0.6608,-0.5786,-0.5484,-0.57,-0.6306,-0.7108,-0.7926,-0.8192,-0.8565,-0.9087,-0.9257,-0.9349,-0.9432,-0.9515,-0.9689,-0.9777,-0.9951,-1.0038,-0.9913,-0.9767,-0.9686,-0.948,-0.9261,-0.9105,-0.8978,-0.8822,-0.8741,-0.8703,-0.8703,-0.8703,-0.8703,-0.8703,-0.8576,-0.8429,-0.8269,-0.8203,-0.8089,-0.7886,-0.7862,-0.7777,-0.7631,-0.7612,-0.7588,-0.7526,-0.7521,-0.7587,-0.7782,-0.8425,-0.8877,-0.9069,-1.0225,-1.08,-1.08,-1.1373,-1.131,-1.08,-1.08,-1.0588,0.0,0.0,0.2148,0.1413,0.1721,0.2217,0.2369,0.2401,0.2432,0.2497,0.2511,0.253,0.2593,0.2653,0.271,0.2767,0.2474,0.242,0.2868,0.2466,0.219,0.2236,0.2201,0.1665,0.0626,0.1525,0.1719,0.0461,0.037,-0.0,-0.0781,-0.0881,-0.1185,-0.1912,-0.2015,-0.2418,-0.3124,-0.3229,-0.3229,-0.3225,-0.3228,-0.3228,-0.3225,-0.3228,-0.3228,-0.3228,-0.4524,-0.512,-0.5214,-0.6482,-0.7012,-0.7,-0.6966,-0.7007,-0.7095,-0.8031,-0.8206,-0.7956,-0.7805,-0.8376,-0.9266,-0.927,-0.9266,-0.9257,-0.9262,-0.9432,-0.9602,-0.9602,-0.9777,-0.9951,-1.0038,-1.0038,-1.0038,-1.0028,-0.979,-0.9559,-0.9545,-0.9308,-0.902,-0.9015,-0.8845,-0.8703,-0.8703,-0.8703,-0.8703,-0.8703,-0.8699,-0.8689,-0.8685,-0.851,-0.8311,-0.8094,-0.807,-0.799,-0.7787,-0.7773,-0.7683,-0.7536,-0.7521,-0.7782,-0.8425,-0.9134,-0.9779,-1.0421,-1.1178,-1.156,-1.156,-1.156,-1.156,-1.156,-1.156,-1.1728,0.0,0.0,0.0885,0.0767,0.0876,0.0989,0.1153,0.1487,0.1749,0.1522,0.2062,0.2541,0.2312,0.2231,0.208,0.164,0.1485,0.1235,0.0626,0.0616,0.061,0.0263,0.0174,-0.0,-0.0351,0.0445,0.0633,-0.0369,-0.0468,-0.0764,-0.1664,-0.1687,-0.2004,-0.2724,-0.2826,-0.2927,-0.323,-0.323,-0.323,-0.323,-0.323,-0.3432,-0.3732,-0.4331,-0.4732,-0.5131,-0.6126,-0.6526,-0.662,-0.7763,-0.8231,-0.8325,-0.9154,-0.9522,-0.9606,-0.9971,-1.0072,-0.9912,-0.9465,-0.9541,-0.9806,-0.9862,-0.9827,-0.9696,-0.9735,-0.9777,-0.9864,-0.9864,-0.9951,-1.0038,-1.0038,-1.0038,-1.0038,-1.0038,-0.9899,-0.9809,-0.9677,-0.9452,-0.9393,-0.9252,-0.9058,-0.8916,-0.8916,-0.8798,-0.8703,-0.8703,-0.8703,-0.8703,-0.8703,-0.8642,-0.8524,-0.8316,-0.8292,-0.8207,-0.7995,-0.7981,-0.7947,-0.7877,-0.8422,-0.8696,-0.8671,-0.9843,-1.0477,-1.0491,-1.1383,-1.1875,-1.1875,-1.2094,-1.2197,-1.2197,-1.2197,-1.2255,0.0277,0.0149,-0.0078,-0.0234,-0.0159,-0.0,0.008,0.0402,0.0646,0.0477,0.101,0.1544,0.1513,0.1344,0.1195,0.1094,0.0769,0.026,-0.0268,-0.0264,-0.0437,-0.0798,-0.0794,-0.0972,-0.1166,-0.0727,-0.0645,-0.1214,-0.1238,-0.165,-0.2474,-0.2405,-0.2623,-0.323,-0.323,-0.323,-0.323,-0.323,-0.3331,-0.3531,-0.3932,-0.4331,-0.4732,-0.5529,-0.6126,-0.6526,-0.7518,-0.7915,-0.8011,-0.9201,-0.9698,-0.9698,-1.06,-1.09,-1.0984,-1.0955,-1.1005,-1.0981,-1.0441,-1.0297,-1.026,-1.0255,-1.0108,-1.0055,-1.0017,-1.0038,-1.0038,-1.0038,-1.0038,-1.0038,-1.0038,-1.0038,-1.0038,-1.0038,-1.0038,-0.9918,-0.9786,-0.9696,-0.9606,-0.9464,-0.9275,-0.911,-0.9034,-0.8845,-0.8703,-0.8703,-0.8703,-0.8703,-0.8703,-0.8703,-0.8652,-0.8524,-0.851,-0.8425,-0.8212,-0.8193,-0.8303,-0.8508,-0.9001,-0.9414,-0.9723,-1.0654,-1.1035,-1.0797,-1.1701,-1.2006,-1.1734,-1.2282,-1.2519,-1.2519,-1.2519,-1.2584,-0.1028,-0.0897,-0.071,-0.153,-0.1358,-0.0851,-0.0828,-0.0734,-0.072,-0.061,-0.0444,-0.0218,0.029,0.0,-0.0,0.0964,0.0166,-0.0341,0.0179,-0.0441,-0.0885,0.0,0.0,0.0,0.0,0.0,-0.2097,-0.2097,-0.2134,-0.2472,-0.3126,-0.323,-0.323,-0.323,-0.323,-0.323,-0.323,-0.323,-0.3531,-0.4133,-0.5432,-0.6029,-0.6129,-0.6924,-0.7322,-0.7419,-0.8704,-0.9296,-0.9395,-1.0694,-1.1194,-1.1194,-1.1194,-1.1194,-1.1194,-1.1194,-1.1194,-1.1137,-1.074,-1.0608,-1.0575,-1.0371,-1.0305,-1.0267,-1.005,-1.0062,-1.0057,-1.0057,-1.0047,-1.0038,-1.0038,-1.0038,-1.0038,-1.0038,-1.0038,-1.0038,-1.0038,-0.98,-0.9663,-0.9663,-0.9488,-0.9275,-0.9072,-0.8869,-0.8727,-0.8718,-0.8718,-0.8713,-0.8703,-0.8703,-0.8703,-0.8703,-0.8703,-0.8623,-0.8434,-0.8415,-0.8694,-0.926,-0.939,-1.0003,-1.143,-1.1498,-1.1423,-1.1279,-1.2051,-1.2065,-1.1299,-1.2079,-1.2434,-1.2502,-1.2502,-1.2662,-0.1655,-0.1884,-0.2132,-0.2381,-0.2342,-0.2157,-0.214,-0.1692,-0.1327,-0.119,-0.078,-0.0343,-0.0137,-0.0279,0.0,-0.0782,-0.1146,0.0,-0.2092,-0.2282,0.0,-0.2546,0.0,-0.2637,-0.276,-0.2799,-0.2824,-0.2824,-0.2837,-0.2967,-0.3228,-0.323,-0.323,-0.323,-0.323,-0.323,-0.323,-0.3632,-0.4332,-0.5532,-0.5829,-0.6528,-0.7524,-0.8312,-0.8909,-0.932,-1.0301,-1.0694,-1.0694,-1.1096,-1.1194,-1.1194,-1.1194,-1.1194,-1.1194,-1.1194,-1.1194,-1.1179,-1.1071,-1.1038,-1.1005,-1.0801,-1.0735,-1.0697,-1.048,-1.031,-1.0192,-1.0192,-1.0162,-1.0038,-1.0038,-1.0038,-1.0038,-1.0038,-1.0038,-1.0038,-1.0038,-0.9908,-0.9871,-0.9871,-0.9705,-0.9497,-0.9285,-0.92,-0.9115,-0.8963,-0.8944,-0.8883,-0.8722,-0.8703,-0.8703,-0.8703,-0.8703,-0.868,-0.8628,-0.9155,-0.9579,-0.9744,-1.0324,-1.0961,-1.168,-1.1172,-1.1007,-1.1279,-1.1141,-1.096,-1.0753,-1.1244,-1.1781,-1.2367,-1.2367,-1.2704,-0.2192,-0.2424,-0.2768,-0.2789,-0.2755,-0.2699,-0.2557,-0.2256,-0.1884,-0.1757,-0.1403,0.0,-0.0777,-0.0919,0.0,0.0,0.0,0.0,-0.2439,-0.2758,-0.2991,0.0,-0.3089,0.0,-0.3125,-0.3159,-0.318,-0.318,-0.318,-0.3194,-0.3229,-0.343,-0.343,-0.323,-0.3632,-0.3932,-0.3932,-0.4435,-0.5233,-0.6329,-0.6927,-0.7822,-0.892,-0.9702,-1.0199,-1.0507,-1.0998,-1.1194,-1.1194,-1.1194,-1.1194,-1.1194,-1.1194,-1.1194,-1.1194,-1.1194,-1.1194,-1.1194,-1.1194,-1.1194,-1.1161,-1.0962,-1.0896,-1.0858,-1.0636,-1.0494,-1.0386,-1.0301,-1.0187,-1.0069,-1.0062,-1.0038,-1.0038,-1.0038,-1.0038,-1.0038,-1.0038,-1.0038,-1.0038,-1.0038,-0.9786,-0.9522,-0.9483,-0.9384,-0.9285,-0.9171,-0.9082,-0.8978,-0.8859,-0.876,-0.8703,-0.8703,-0.8703,-0.8703,-0.8703,-0.9084,-0.9685,-1.0368,-1.0513,-1.1045,-1.1985,-1.1253,-1.0816,-1.0665,-1.1099,-1.118,-1.0815,-1.1704,-1.2378,-1.282,-1.282,-1.3046,-0.2719,-0.2784,-0.2784,-0.2873,-0.2849,-0.2744,-0.2508,-0.2428,-0.2292,-0.2157,0.0,-0.1827,-0.1339,-0.1655,-0.1728,-0.0785,0.0,-0.2345,-0.2045,-0.256,-0.3007,-0.3136,-0.3151,-0.3172,-0.3226,-0.323,-0.3331,-0.3331,-0.3331,-0.3331,-0.3331,-0.3831,-0.3932,-0.343,-0.4334,-0.4935,-0.5033,-0.5534,-0.6232,-0.7226,-0.8425,-0.9422,-1.0216,-1.09,-1.1194,-1.1194,-1.1194,-1.1194,-1.1194,-1.1194,-1.1194,-1.1194,-1.1194,-1.1194,-1.1194,-1.1194,-1.1194,-1.1194,-1.1194,-1.1194,-1.1165,-1.0995,-1.0934,-1.0901,-1.0712,-1.0636,-1.0575,-1.0371,-1.0296,-1.0225,-1.0008,-1.0038,-1.0038,-1.0038,-1.0038,-1.0038,-1.0038,-1.0038,-1.0038,-1.0038,-0.9809,-0.9686,-0.9686,-0.953,-0.9398,-0.937,-0.9219,-0.9086,-0.903,-0.8836,-0.8703,-0.8703,-0.8703,-0.8703,-0.8703,-0.878,-0.9458,-1.0887,-1.0293,-1.0594,-1.2077,-1.126,-1.0588,-1.0067,-1.1335,-1.1706,-1.1111,-1.2526,-1.3273,-1.3346,-1.3346,-1.3419,-0.2808,-0.2873,-0.2873,-0.2784,-0.2722,-0.2585,-0.2464,-0.2291,0.0,0.0,-0.1902,-0.1827,-0.1713,-0.1847,-0.1972,-0.188,0.0,0.0,0.0,0.0,-0.3022,0.0,0.0,-0.3218,-0.323,-0.3632,-0.3833,-0.3833,-0.4234,-0.4334,-0.3932,-0.4332,-0.4634,-0.4533,-0.4734,-0.5334,-0.6431,-0.6531,-0.7528,-0.9422,-0.9719,-1.0216,-1.0998,-1.11,-1.1194,-1.1194,-1.1194,-1.1194,-1.1194,-1.1194,-1.1194,-1.1194,-1.1194,-1.1194,-1.1194,-1.1194,-1.1194,-1.1194,-1.1194,-1.1194,-1.1189,-1.1156,-1.1142,-1.1137,-1.1099,-1.0972,-1.0797,-1.0579,-1.04,-1.0225,-1.0008,-1.0038,-1.0038,-1.0038,-1.0038,-1.0038,-1.0038,-1.0038,-1.0038,-1.0038,-0.9923,-0.9899,-0.9899,-0.9866,-0.9786,-0.9615,-0.948,-0.9417,-0.9067,-0.8836,-0.8703,-0.8703,-0.8703,-0.8703,-0.8703,-0.9311,-0.9841,-1.0067,-0.9992,-1.0293,-1.126,-0.9906,-0.9679,-1.0887,-1.0519,-1.0594,-1.1111,-1.1409,-1.1855,-1.2526,-1.2526,-1.2893,-0.2842,-0.2873,-0.2858,-0.2796,-0.271,-0.257,-0.2327,0.0,0.0,0.0,-0.1763,-0.1713,-0.1744,0.0,0.0,0.0,0.0,0.0,0.0,0.0,0.0,0.0,0.0,0.0,0.0,-0.4133,-0.4435,-0.4435,-0.4935,-0.4935,-0.4433,-0.4634,-0.5035,-0.5636,-0.5734,-0.6331,-0.7229,-0.7627,-0.8524,-1.0019,-1.0019,-1.0408,-1.1194,-1.1194,-1.1194,-1.1194,-1.1194,-1.1194,-1.1194,-1.1194,-1.1194,-1.1194,-1.1194,-1.1194,-1.1194,-1.1194,-1.1194,-1.1194,-1.1194,-1.1194,-1.1194,-1.1194,-1.1194,-1.1194,-1.1194,-1.1127,-1.1009,-1.0801,-1.0589,-1.0381,-1.0173,-1.0124,-1.0038,-1.0038,-1.0038,-1.0038,-1.0038,-1.0038,-1.0038,-1.0038,-1.0038,-1.0038,-1.0038,-1.0038,-0.9918,-0.9819,-0.9715,-0.9489,-0.9374,-0.9157,-0.8944,-0.8722,-0.8703,-0.8703,-0.8703,-0.9084,-0.9463,-0.9846,-0.9539,-0.9836,-1.1037,-0.9986,-0.9911,-1.1111,-1.1111,-1.1335,-1.1706,-1.215,-1.2526,-1.29,-1.29,-1.3119,-0.3003,-0.3032,-0.312,-0.2928,-0.2769,-0.2637,-0.2305,-0.2084,0.0,0.0,-0.1647,-0.1619,-0.1692,0.0,0.0,0.0,0.0,0.0,0.0,0.0,0.0,0.0,0.0,0.0,-0.4033,-0.4634,-0.4935,-0.4935,-0.5634,-0.5734,-0.5135,-0.5135,-0.5636,-0.6634,-0.6833,-0.7329,-0.8127,-0.8726,-0.9418,-1.0216,-1.0216,-1.0605,-1.1194,-1.1194,-1.1194,-1.1194,-1.1194,-1.1194,-1.1194,-1.1194,-1.1194,-1.1194,-1.1194,-1.1194,-1.1194,-1.1194,-1.1194,-1.1194,-1.1194,-1.1194,-1.1194,-1.1194,-1.1194,-1.1194,-1.1194,-1.1194,-1.1151,-1.0953,-1.074,-1.0527,-1.0324,-1.0112,-1.0038,-1.0038,-1.0038,-1.0038,-1.0038,-1.0038,-1.0038,-1.0038,-1.0038,-1.0038,-1.0038,-1.0038,-1.0038,-1.0038,-0.9814,-0.9696,-0.9569,-0.9497,-0.9247,-0.8874,-0.8798,-0.877,-0.877,-0.8727,-0.9003,-0.9614,-0.9084,-0.9382,-1.0812,-1.0218,-1.0368,-1.1335,-1.2003,-1.2378,-1.2526,-1.3193,-1.3492,-1.3492,-1.3572,-1.3572,-0.3343,-0.3575,-0.3864,-0.3309,-0.3154,-0.2968,-0.2348,0.0,0.0,-0.1719,-0.1614,-0.1568,-0.1684,-0.1711,0.0,0.0,0.0,0.0,0.0,0.0,0.0,0.0,0.0,0.0,-0.4033,-0.4935,-0.5536,-0.5536,-0.6731,-0.7033,-0.6337,-0.6237,-0.6634,-0.7431,-0.7531,-0.8226,-0.9723,-0.9821,-1.031,-1.1096,-1.1096,-1.1096,-1.1194,-1.1194,-1.1194,-1.1194,-1.1194,-1.1194,-1.1194,-1.1194,-1.1194,-1.1194,-1.1194,-1.1194,-1.1194,-1.1194,-1.1194,-1.1194,-1.1194,-1.1194,-1.1194,-1.1194,-1.1194,-1.1194,-1.1194,-1.1194,-1.1151,-1.0953,-1.074,-1.0527,-1.0324,-1.0112,-1.0038,-1.0038,-1.0038,-1.0038,-1.0038,-1.0038,-1.0038,-1.0038,-1.0038,-1.0038,-1.0038,-1.0038,-1.0038,-1.0038,-0.9937,-0.9856,-0.9667,-0.9545,-0.9526,-0.9289,-0.9105,-0.8996,-0.8996,-0.8817,-0.8699,-0.8775,-0.878,-0.9084,-0.9992,-0.9922,-1.0588,-1.2157,-1.2224,-1.2673,-1.3419,-1.3492,-1.3492,-1.3492,-1.3717,-1.379,-0.3595,-0.3756,-0.3824,-0.3295,-0.3151,-0.29,-0.2338,0.0,-0.1713,-0.1672,-0.1555,-0.146,-0.1629,-0.1651,-0.1699,0.0,-0.1887,-0.1991,-0.2243,0.0,0.0,0.0,0.0,0.0,0.0,-0.5436,-0.6037,-0.6037,-0.7033,-0.7431,-0.7132,-0.763,-0.8028,-0.8326,-0.8825,-0.9324,-1.0019,-1.0511,-1.09,-1.1194,-1.1194,-1.1194,-1.1194,-1.1194,-1.1194,-1.1194,-1.1194,-1.1194,-1.1194,-1.1194,-1.1194,-1.1194,-1.1194,-1.1194,-1.1194,-1.1194,-1.1194,-1.1194,-1.1194,-1.1194,-1.1194,-1.1194,-1.1194,-1.1194,-1.1194,-1.1194,-1.1179,-1.1099,-1.0924,-1.0721,-1.0508,-1.0206,-1.0038,-1.0038,-1.0038,-1.0038,-1.0038,-1.0038,-1.0038,-1.0038,-1.0038,-1.0038,-1.0038,-1.0038,-1.0038,-1.0038,-1.0038,-0.9923,-0.9838,-0.9828,-0.9795,-0.971,-0.9403,-0.9204,-0.9204,-0.9015,-0.8897,-0.8897,-0.8774,-0.9306,-1.0588,-1.0143,-1.0887,-1.2973,-1.2526,-1.2673,-1.3492,-1.3492,-1.3572,-1.3725,-1.3984,-1.4148,-0.3781,-0.404,-0.4148,-0.359,-0.3387,-0.3077,0.0,-0.2024,-0.1686,-0.1636,-0.1533,-0.1445,-0.1597,-0.1629,-0.1676,0.0,-0.1811,-0.1891,-0.2089,0.0,0.0,0.0,0.0,-0.5223,-0.4839,-0.58,-0.6437,-0.6437,-0.7332,-0.7928,-0.7928,-0.892,-0.9418,-0.9122,-0.9719,-1.0117,-1.0314,-1.09,-1.1194,-1.1194,-1.1194,-1.1194,-1.1194,-1.1194,-1.1194,-1.1194,-1.1194,-1.1194,-1.1194,-1.1194,-1.1194,-1.1194,-1.1194,-1.1194,-1.1194,-1.1194,-1.1194,-1.1194,-1.1194,-1.1194,-1.1194,-1.1194,-1.1194,-1.1194,-1.1194,-1.1194,-1.1194,-1.1194,-1.1005,-1.0749,-1.0542,-1.022,-1.0038,-1.0038,-1.0038,-1.0038,-1.0038,-1.0038,-1.0038,-1.0038,-1.0038,-1.0038,-1.0038,-1.0038,-1.0038,-1.0038,-1.0038,-1.0038,-1.0038,-1.0038,-1.0038,-1.0038,-0.9686,-0.9483,-0.9422,-0.9233,-0.911,-0.911,-0.8968,-0.9653,-1.1264,-1.0812,-1.1493,-1.3777,-1.3248,-1.3248,-1.3784,-1.3851,-1.3926,-1.4082,-1.4456,-1.4767,-0.3942,-0.4482,-0.4862,-0.4311,-0.3939,-0.3479,0.0,-0.2138,-0.1689,-0.1628,-0.1567,-0.1542,-0.1604,-0.1664,-0.1725,-0.1788,-0.1843,-0.1965,-0.214,-0.2785,0.0,0.0,0.0,-0.5008,-0.4748,-0.5713,-0.6437,-0.6437,-0.7928,-0.8825,-0.8825,-1.0306,-1.0806,-1.0019,-1.0019,-1.0408,-1.1198,-1.1194,-1.1194,-1.1194,-1.1194,-1.1194,-1.1194,-1.1194,-1.1194,-1.1194,-1.1194,-1.1194,-1.1194,-1.1194,-1.1194,-1.1194,-1.1194,-1.1194,-1.1194,-1.1194,-1.1194,-1.1194,-1.1194,-1.1194,-1.1194,-1.1194,-1.1194,-1.1194,-1.1194,-1.1194,-1.1194,-1.1194,-1.0896,-1.0532,-1.0329,-1.0116,-1.0038,-1.0038,-1.0038,-1.0038,-1.0038,-1.0038,-1.0038,-1.0038,-1.0038,-1.0038,-1.0038,-1.0038,-1.0038,-1.0038,-1.0038,-1.0038,-1.0038,-1.0038,-1.0038,-1.0038,-1.0033,-0.9861,-0.9658,-0.9445,-0.9322,-0.9322,-0.9318,-1.0121,-1.1804,-1.1884,-1.2685,-1.4457,-1.4457,-1.4457,-1.4457,-1.4676,-1.4824,-1.4824,-1.5227,-1.5639,-0.3832,-0.4026,-0.4068,-0.3517,-0.3168,-0.284,-0.2327,-0.1908,-0.1616,-0.1668,-0.1595,-0.1556,-0.1658,-0.1693,-0.1752,-0.1894,-0.1932,0.0,0.0,0.0,0.0,-0.3285,-0.4514,-0.5562,-0.5826,-0.6195,-0.6437,-0.6437,-0.7928,-0.8825,-0.8825,-1.0306,-1.1096,-1.0801,-1.0801,-1.09,-1.1194,-1.1194,-1.1194,-1.1194,-1.1194,-1.1194,-1.1194,-1.1194,-1.1194,-1.1194,-1.1194,-1.1194,-1.1194,-1.1194,-1.1194,-1.1194,-1.1194,-1.1194,-1.1194,-1.1194,-1.1194,-1.1194,-1.1194,-1.1194,-1.1194,-1.1194,-1.1194,-1.1194,-1.1194,-1.1194,-1.1194,-1.1194,-1.1,-1.0745,-1.0532,-1.0329,-1.0135,-1.0071,-1.0038,-1.0038,-1.0038,-1.0038,-1.0038,-1.0038,-1.0038,-1.0038,-1.0038,-1.0038,-1.0038,-1.0038,-1.0038,-1.0038,-1.0038,-1.0038,-1.0038,-1.0038,-1.0038,-0.9927,-0.9861,-0.9663,-0.9545,-0.9545,-0.9408,-0.9806,-1.0922,-1.1008,-1.1896,-1.3495,-1.3803,-1.413,-1.4684,-1.4917,-1.5187,-1.5558,-1.5803,-1.615,0.0,-0.3645,-0.3561,-0.3143,-0.2787,-0.2489,-0.2164,-0.1836,-0.156,-0.1624,-0.1595,-0.1582,-0.1658,-0.171,-0.1777,-0.1888,-0.1924,0.0,0.0,0.0,0.0,-0.4006,0.0,-0.5716,-0.6206,-0.6385,-0.6437,-0.6437,-0.7928,-0.8825,-0.8825,-1.0306,-1.1194,-1.1194,-1.1194,-1.1194,-1.1194,-1.1194,-1.1194,-1.1194,-1.1194,-1.1194,-1.1194,-1.1194,-1.1194,-1.1194,-1.1194,-1.1194,0.0,-1.1194,-1.1194,-1.1194,-1.1194,-1.1194,-1.1194,-1.1194,-1.1194,-1.1194,-1.1194,-1.1194,-1.1194,-1.1194,-1.1194,-1.1194,-1.1194,-1.1194,-1.1194,-1.1194,-1.1052,-1.0868,-1.0731,-1.0485,-1.0239,-1.0107,-1.01,-1.0038,-1.0038,-1.0038,-1.0038,-1.0038,-1.0038,-1.0038,-1.0038,-1.0038,-1.0038,-1.0038,-1.0038,-1.0038,-1.0038,-1.0038,-1.0038,-1.0038,-1.0038,-1.0038,-1.0038,-0.9833,-0.9762,-0.9762,-0.9634,-1.0138,-1.1277,-1.1447,-1.2267,-1.4065,-1.4306,-1.4714,-1.5295,-1.5525,-1.5792,-1.6236,-1.6324,-1.6524,0.0,-0.3111,-0.3355,-0.3169,-0.2759,-0.2427,-0.227,-0.186,0.0,-0.1482,-0.1576,-0.1619,-0.1627,-0.1721,-0.1801,-0.1813,-0.1864,0.0,0.0,-0.313,0.0,0.0,-0.5413,-0.5733,-0.6111,-0.6309,-0.6437,-0.6437,-0.7928,-0.8825,-0.8825,-1.0306,-1.1194,-1.1194,-1.1194,-1.1194,-1.1194,-1.1194,-1.1194,-1.1194,-1.1194,-1.1194,-1.1194,-1.1194,-1.1194,-1.1194,-1.1194,-1.1194,-1.1194,-1.1194,-1.1194,-1.1194,-1.1194,-1.1194,-1.1194,-1.1194,-1.1194,-1.1194,-1.1194,-1.1194,-1.1194,-1.1194,-1.1194,-1.1194,-1.1194,-1.1194,-1.1194,-1.1194,-1.1061,-1.0915,-1.0896,-1.0608,-1.031,-1.0282,-1.0121,-1.0057,-1.0043,-1.0038,-1.0038,-1.0038,-1.0038,-1.0038,-1.0038,-1.0038,-1.0038,-1.0038,-1.0038,-1.0038,-1.0038,-1.0038,-1.0038,-1.0038,-1.0038,-1.0038,-1.0038,-1.0038,-1.0038,-1.0038,-1.0038,-1.0804,-1.2504,-1.2674,-1.3607,-1.5567,-1.5733,-1.5906,-1.617,-1.6319,-1.6484,-1.673,-1.673,-1.673,-0.1811,0.0,-0.2409,-0.2254,-0.201,-0.1808,0.0,-0.1641,-0.1538,0.0,0.0,-0.1644,-0.1737,-0.1778,-0.1842,-0.1978,0.0,0.0,-0.2907,0.0,0.0,-0.5902,-0.6071,-0.6257,-0.6352,-0.6404,-0.6437,-0.6437,-0.7928,-0.8825,-0.8825,-1.0306,-1.1194,-1.1194,-1.1194,-1.1194,-1.1194,-1.1194,-1.1194,-1.1194,-1.1194,-1.1194,-1.1194,-1.1194,-1.1194,-1.1194,-1.1194,-1.1194,-1.1194,-1.1194,-1.1194,-1.1194,-1.1194,-1.1194,-1.1194,-1.1194,-1.1194,-1.1194,-1.1194,-1.1194,-1.1194,-1.1194,-1.1194,-1.1194,-1.1194,-1.1194,-1.1194,-1.1194,-1.1161,-1.109,-1.0934,-1.0825,-1.0669,-1.0348,-1.0234,-1.0154,-1.0071,-1.0038,-1.0038,-1.0038,-1.0038,-1.0038,-1.0038,-1.0038,-1.0038,-1.0038,-1.0038,-1.0038,-1.0038,-1.0038,-1.0038,-1.0038,-1.0038,-1.0038,-1.0038,-1.0038,-1.0038,-1.0038,-1.0038,-1.0463,-1.158,-1.251,-1.3529,-1.4643,-1.5726,-1.6319,-1.6574,-1.6566,-1.6648,-1.673,-1.673,-1.673,-0.1407,-0.1765,-0.2118,-0.1873,-0.1693,-0.158,-0.1606,0.0,0.0,0.0,0.0,0.0,-0.1738,0.0,0.0,0.0,-0.2422,0.0,0.0,0.0,-0.557,-0.5909,-0.62,-0.6437,-0.6437,-0.6437,-0.6437,-0.6437,-0.7928,-0.8825,-0.8825,-1.0306,-1.1194,-1.1194,-1.1194,-1.1194,-1.1194,-1.1194,-1.1194,-1.1194,-1.1194,-1.1194,-1.1194,-1.1194,-1.1194,-1.1194,-1.1194,-1.1194,-1.1194,-1.1194,-1.1194,-1.1194,-1.1194,-1.1194,-1.1194,-1.1194,-1.1194,-1.1194,-1.1194,-1.1194,-1.1194,-1.1194,-1.1194,-1.1194,-1.1194,-1.1194,-1.1194,-1.1194,-1.1194,-1.117,-1.1061,-1.0967,-1.0816,-1.049,-1.0343,-1.0216,-0.9998,-1.0038,-1.0038,-1.0038,-1.0038,-1.0038,-1.0038,-1.0038,-1.0038,-1.0038,-1.0038,-1.0038,-1.0038,-1.0038,-1.0038,-1.0038,-1.0038,-1.0038,-1.0038,-1.0038,-1.0038,-1.0038,-1.0381,-1.1063,-1.2003,-1.3105,-1.421,-1.5311,-1.6147,-1.6566,-1.673,-1.673,-1.673,-1.673,-1.673,-1.673,-0.1309,-0.1805,-0.2205,-0.1766,-0.1683,-0.1667,-0.1613,0.0,0.0,0.0,0.0,0.0,0.0,0.0,0.0,0.0,0.0,0.0,-0.4291,-0.5235,-0.5847,-0.5698,-0.6134,-0.6437,-0.6437,-0.6437,-0.6437,-0.6534,-0.7928,-0.8825,-0.9023,-1.0404,-1.1194,-1.1194,-1.1194,-1.1194,-1.1194,-1.1194,-1.1194,-1.1194,-1.1194,-1.1194,-1.1194,-1.1194,-1.1194,-1.1194,-1.1194,-1.1194,-1.1194,-1.1194,-1.1194,-1.1194,-1.1194,-1.1194,-1.1194,-1.1194,-1.1194,-1.1194,-1.1194,-1.1194,-1.1194,-1.1194,-1.1194,-1.1194,-1.1194,-1.1194,-1.1194,-1.1194,-1.1194,-1.1194,-1.1194,-1.1047,-1.0849,-1.0664,-1.0466,-1.0263,-1.0133,-1.009,-1.009,-1.009,-1.009,-1.01,-1.0129,-1.0109,-1.009,-1.009,-1.0062,-1.0038,-1.0038,-1.0038,-1.0038,-1.0038,-1.0038,-1.0038,-1.0038,-1.012,-1.0294,-1.0294,-1.0809,-1.1746,-1.3099,-1.4132,-1.5228,-1.6394,-1.6648,-1.673,-1.673,-1.673,-1.673,-1.673,-1.673,-1.673,-0.133,-0.1805,-0.2153,-0.1656,-0.1779,-0.1954,0.0,0.0,0.0,0.0,0.0,0.0,0.0,0.0,0.0,0.0,0.0,-0.4564,0.0,-0.5606,-0.6034,-0.6294,-0.6337,-0.6437,-0.6437,-0.6437,-0.6634,-0.7332,-0.8226,-0.9122,-0.9821,-1.0703,-1.1194,-1.1194,-1.1194,-1.1194,-1.1194,-1.1194,-1.1194,-1.1194,-1.1194,-1.1194,-1.1194,-1.1194,-1.1194,-1.1194,-1.1194,-1.1194,-1.1194,-1.1194,-1.1194,-1.1194,-1.1194,-1.1194,-1.1194,-1.1194,-1.1194,-1.1194,-1.1194,-1.1194,-1.1194,-1.1194,-1.1194,-1.1194,-1.1194,-1.1194,-1.1194,-1.1194,-1.1194,-1.1194,-1.1194,-1.1047,-1.0886,-1.0853,-1.0683,-1.0471,-1.0267,-1.0225,-1.0225,-1.0225,-1.0225,-1.0277,-1.0447,-1.0338,-1.0225,-1.0225,-1.0069,-1.0038,-1.0038,-1.0038,-1.0038,-1.0038,-1.0038,-1.0038,-1.0038,-1.0885,-1.1477,-1.1477,-1.0977,-1.166,-1.3789,-1.5304,-1.6229,-1.6648,-1.6656,-1.673,-1.673,-1.673,-1.673,-1.673,-1.673,-1.673,-0.0986,-0.1227,-0.1499,-0.151,-0.2003,-0.2437,0.0,0.0,0.0,0.0,0.0,0.0,0.0,0.0,-0.3604,-0.4184,0.0,-0.4915,-0.5127,-0.5735,-0.6088,-0.6011,-0.6237,-0.6437,-0.6437,-0.6437,-0.6734,-0.7531,-0.8326,-0.9122,-0.992,-1.0801,-1.1194,-1.1194,-1.1194,-1.1194,-1.1194,-1.1194,-1.1194,-1.1194,-1.1194,-1.1194,-1.1194,-1.1194,-1.1194,-1.1194,-1.1194,-1.1194,-1.1194,-1.1194,-1.1194,-1.1194,-1.1194,-1.1194,-1.1194,-1.1194,-1.1194,-1.1194,-1.1194,-1.1194,-1.1194,-1.1194,-1.1194,-1.1194,-1.1194,-1.1194,-1.1194,-1.1194,-1.1194,-1.1194,-1.1194,-1.1127,-1.1028,-1.092,-1.082,-1.0688,-1.048,-1.0438,-1.0438,-1.0438,-1.0438,-1.0466,-1.0556,-1.0494,-1.04,-1.0291,-1.0187,-1.0083,-1.0052,-1.0038,-1.0038,-1.0038,-1.0549,-1.0885,-1.0885,-1.1906,-1.2753,-1.3256,-1.3093,-1.3691,-1.522,-1.6139,-1.6648,-1.673,-1.673,-1.673,-1.673,-1.673,-1.673,-1.673,-1.673,-1.673,-0.0627,-0.0785,-0.1034,-0.1269,0.0,-0.2815,-0.2858,0.0,0.0,0.0,0.0,0.0,0.0,-0.3773,0.0,-0.4956,-0.5217,-0.5265,-0.5376,-0.5847,-0.6214,-0.5822,-0.6137,-0.6437,-0.6437,-0.6437,-0.6833,-0.7829,-0.8425,-0.9221,-1.0216,-1.09,-1.1194,-1.1194,-1.1194,-1.1194,-1.1194,-1.1194,-1.1194,-1.1194,-1.1194,-1.1194,-1.1194,-1.1194,-1.1194,-1.1194,-1.1194,-1.1194,-1.1194,-1.1194,-1.1194,-1.1194,-1.1194,-1.1194,-1.1194,-1.1194,-1.1194,-1.1194,-1.1194,-1.1194,-1.1194,-1.1194,-1.1194,-1.1194,-1.1194,-1.1194,-1.1194,-1.1194,-1.1194,-1.1194,-1.1194,-1.1161,-1.1099,-1.099,-1.0929,-1.0853,-1.0683,-1.0645,-1.0645,-1.0645,-1.0645,-1.0664,-1.0712,-1.0679,-1.0598,-1.0442,-1.0376,-1.0282,-1.0116,-1.0314,-1.0455,-1.0455,-1.1429,-1.218,-1.2588,-1.3363,-1.422,-1.5238,-1.5082,-1.5379,-1.6229,-1.6566,-1.673,-1.673,-1.673,-1.673,-1.673,-1.673,-1.673,-1.673,-1.673,-1.673,-0.0386,-0.0858,-0.1281,-0.1003,0.0,0.0,-0.2959,0.0,0.0,0.0,0.0,0.0,0.0,-0.4587,-0.517,-0.532,-0.5651,-0.5842,-0.6056,-0.6184,-0.6309,-0.6323,-0.6337,-0.6437,-0.6437,-0.6437,-0.7033,-0.8623,-0.8726,-0.9517,-1.0998,-1.1194,-1.1194,-1.1194,-1.1194,-1.1194,-1.1194,-1.1194,-1.1194,-1.1194,-1.1194,-1.1194,-1.1194,-1.1194,-1.1194,-1.1194,-1.1194,-1.1194,-1.1194,-1.1194,-1.1194,-1.1194,-1.1194,-1.1194,-1.1194,-1.1194,-1.1194,-1.1194,-1.1194,-1.1194,-1.1194,-1.1194,-1.1194,-1.1194,-1.1194,-1.1194,-1.1194,-1.1194,-1.1194,-1.1194,-1.1194,-1.1057,-1.0962,-1.1132,-1.1033,-1.0891,-1.0877,-1.0872,-1.0872,-1.0872,-1.0872,-1.0929,-1.1118,-1.0995,-1.0868,-1.0853,-1.0679,-1.0546,-1.0532,-1.1341,-1.1822,-1.1822,-1.2653,-1.3802,-1.5205,-1.5405,-1.5933,-1.7062,-1.5807,-1.5213,-1.5733,-1.6402,-1.673,-1.673,-1.673,-1.673,-1.673,-1.673,-1.673,-1.673,-1.673,-1.673,-0.0038,-0.0588,-0.1031,-0.0618,0.0,0.0,0.0,0.0,0.0,0.0,0.0,0.0,0.0,0.0,-0.5227,-0.5349,-0.567,-0.5945,-0.607,-0.6192,-0.6312,-0.6423,-0.6437,-0.6437,-0.6437,-0.6437,-0.7033,-0.8726,-0.8825,-0.9513,-1.1096,-1.1194,-1.1194,-1.1194,-1.1194,-1.1194,-1.1194,-1.1194,-1.1194,-1.1194,-1.1194,-1.1194,-1.1194,-1.1194,-1.1194,-1.1194,-1.1194,-1.1194,-1.1194,-1.1194,-1.1194,-1.1194,-1.1194,-1.1194,-1.1194,-1.1194,-1.1194,-1.1194,-1.1194,-1.1194,-1.1194,-1.1194,-1.1194,-1.1194,-1.1194,-1.1194,-1.1194,-1.1194,-1.1194,-1.1194,-1.1194,-1.1137,-1.1099,-1.1179,-1.1137,-1.1085,-1.1085,-1.1085,-1.1085,-1.1085,-1.1085,-1.1104,-1.1184,-1.1132,-1.1231,-1.1757,-1.1754,-1.192,-1.2592,-1.3027,-1.326,-1.3173,-1.411,-1.522,-1.6568,-1.6845,-1.7141,-1.758,-1.6908,-1.6377,-1.6327,-1.6566,-1.6841,-1.7072,-1.6849,-1.6849,-1.7072,-1.6841,-1.673,-1.673,-1.673,-1.673,0.0323,-0.0094,-0.0585,0.0,0.0,0.0,0.0,0.0,0.0,0.0,-0.5023,0.0,0.0,0.0,0.0,-0.5407,-0.5695,-0.5931,-0.6015,-0.6132,-0.6238,-0.6317,-0.6325,-0.6342,-0.638,-0.6578,-0.7285,-0.8722,-0.9023,-0.9813,-1.1096,-1.1194,-1.1194,-1.1194,-1.1194,-1.1194,-1.1194,-1.1194,-1.1194,-1.1194,-1.1194,-1.1194,-1.1194,-1.1194,-1.1194,-1.1194,-1.1194,-1.1194,-1.1194,-1.1194,-1.1194,-1.1194,-1.1194,-1.1194,-1.1194,-1.1194,-1.1194,-1.1194,-1.1194,-1.1194,-1.1194,-1.1194,-1.1194,-1.1194,-1.1194,-1.1194,-1.1194,-1.1194,-1.1194,-1.1194,-1.1194,-1.1194,-1.1194,-1.1194,-1.1194,-1.1194,-1.1194,-1.1194,-1.1194,-1.1194,-1.1194,-1.1194,-1.1194,-1.1482,-1.1818,-1.2427,-1.2875,-1.3373,-1.4118,-1.4566,-1.4847,-1.5067,-1.5836,-1.668,-1.7502,-1.7811,-1.7938,-1.7938,-1.7723,-1.7437,-1.708,-1.6961,-1.7024,-1.727,-1.6921,-1.6857,-1.7104,-1.6857,-1.673,-1.673,-1.673,-1.673,0.0585,0.0555,0.0,0.0,0.0,0.0,0.0,0.0,0.0,0.0,0.0,-0.5322,-0.5352,-0.5377,-0.5336,-0.5446,-0.5746,-0.5901,-0.5904,-0.6007,-0.6083,-0.6086,-0.6086,-0.6132,-0.6255,-0.7033,-0.7865,-0.8711,-0.9521,-1.0314,-1.1194,-1.1194,-1.1194,-1.1194,-1.1194,-1.1194,-1.1194,-1.1194,-1.1194,-1.1194,-1.1194,-1.1194,-1.1194,-1.1194,-1.1194,-1.1194,-1.1194,-1.1194,-1.1194,-1.1194,-1.1194,-1.1194,-1.1194,-1.1194,-1.1194,-1.1194,-1.1194,-1.1194,-1.1194,-1.1194,-1.1194,-1.1194,-1.1194,-1.1194,-1.1194,-1.1194,-1.1194,-1.1194,-1.1194,-1.1194,-1.1194,-1.1194,-1.1194,-1.1194,-1.1194,-1.1194,-1.1194,-1.1194,-1.1194,-1.1194,-1.1194,-1.1194,-1.1194,-1.2058,-1.2727,-1.2732,-1.3782,-1.4651,-1.4651,-1.5717,-1.6794,-1.7723,-1.7771,-1.7914,-1.8271,-1.8303,-1.8303,-1.8303,-1.8303,-1.8144,-1.7787,-1.7461,-1.7286,-1.7286,-1.6921,-1.6746,-1.6746,-1.6738,-1.673,-1.6738,-1.6738,-1.6738,0.0607,0.0472,0.0,0.0,0.0,0.0,0.0,0.0,0.0,0.0,-0.5515,-0.5466,-0.5491,-0.5414,-0.5424,-0.5459,-0.5681,-0.5812,-0.589,-0.5934,-0.5988,-0.6075,-0.6086,-0.61,-0.6135,-0.6978,-0.7821,-0.8646,-0.9449,-1.0314,-1.1194,-1.1194,-1.1194,-1.1194,-1.1194,-1.1194,-1.1194,-1.1194,-1.1194,-1.1194,-1.1194,-1.1194,-1.1194,-1.1194,-1.1194,-1.1194,-1.1194,-1.1194,-1.1194,-1.1194,-1.1194,-1.1194,-1.1194,-1.1194,-1.1194,-1.1194,-1.1194,-1.1194,-1.1194,-1.1194,-1.1194,-1.1194,-1.1194,-1.1194,-1.1194,-1.1194,-1.1194,-1.1194,-1.1194,-1.1194,-1.1194,-1.1194,-1.1194,-1.1194,-1.1194,-1.1194,-1.1194,-1.1194,-1.1194,-1.1194,-1.1194,-1.1194,-1.1194,-1.1775,-1.2646,-1.3884,-1.4644,-1.5697,-1.7138,-1.7591,-1.7799,-1.8152,-1.8144,-1.8184,-1.8287,-1.8526,-1.8669,-1.8669,-1.8669,-1.8398,-1.7795,-1.7676,-1.7739,-1.7993,-1.7421,-1.7358,-1.7834,-1.7096,-1.6865,-1.7111,-1.7111,-1.6976,0.0568,0.0,0.0,0.0,0.0,0.0,0.0,0.0,0.0,0.0,0.0,-0.5583,-0.5616,-0.5589,-0.5572,-0.5616,-0.5687,-0.5757,-0.5825,-0.5836,-0.5863,-0.5937,-0.5947,-0.5964,-0.6007,-0.7108,-0.7935,-0.8475,-0.9536,-1.0468,-1.0948,-1.1033,-1.1038,-1.0953,-1.1109,-1.1156,-1.1075,-1.1156,-1.1194,-1.1194,-1.1194,-1.1194,-1.1194,-1.1194,-1.1194,-1.1194,-1.1194,-1.1194,-1.1194,-1.1194,-1.1194,-1.1194,-1.1194,-1.1194,-1.1194,-1.1194,-1.1194,-1.1194,-1.1194,-1.1194,-1.1194,-1.1194,-1.1194,-1.1194,-1.1194,-1.1194,-1.1194,-1.1194,-1.1194,-1.1194,-1.1194,-1.1194,-1.1194,-1.1194,-1.1194,-1.1194,-1.1194,-1.1194,-1.1194,-1.1194,-1.1194,-1.1194,-1.1194,-1.197,-1.3028,-1.4364,-1.5792,-1.7131,-1.8465,-1.8561,-1.851,-1.851,-1.851,-1.851,-1.851,-1.87,-1.8827,-1.8827,-1.8827,-1.8637,-1.8208,-1.8057,-1.8081,-1.8295,-1.7755,-1.7676,-1.8089,-1.7453,-1.7254,-1.7477,-1.7477,-1.7358,0.0,0.0,0.0,0.0,0.0,0.0,0.0,0.0,-0.2891,-0.4979,0.0,-0.5711,-0.5716,-0.5739,-0.5703,-0.5716,-0.5733,-0.5733,-0.5733,-0.5733,-0.5733,-0.5733,-0.5733,-0.5773,-0.5965,-0.7353,-0.8242,-0.8396,-0.9727,-1.0575,-1.0575,-1.0759,-1.0778,-1.0579,-1.0943,-1.1052,-1.0868,-1.1047,-1.1137,-1.1137,-1.1137,-1.1137,-1.1142,-1.1179,-1.1194,-1.1194,-1.1194,-1.1194,-1.1194,-1.1194,-1.1194,-1.1194,-1.1194,-1.1194,-1.1194,-1.1194,-1.1194,-1.1194,-1.1194,-1.1194,-1.1194,-1.1194,-1.1194,-1.1194,-1.1194,-1.1194,-1.1194,-1.1194,-1.1194,-1.1194,-1.1194,-1.1194,-1.1194,-1.1194,-1.1194,-1.1194,-1.1194,-1.1194,-1.1194,-1.1194,-1.1194,-1.1198,-1.1292,-1.2549,-1.3794,-1.4746,-1.6943,-1.8566,-1.8743,-1.8827,-1.8827,-1.8827,-1.8827,-1.8827,-1.8827,-1.8827,-1.8827,-1.8827,-1.8827,-1.8827,-1.8827,-1.8518,-1.8351,-1.8351,-1.8001,-1.7834,-1.7866,-1.7803,-1.7787,-1.7819,-1.7906,-1.7977,0.0,0.0,0.0,0.0,0.0,0.0,0.0,0.0,-0.1107,-0.3109,-0.465,-0.5716,-0.573,-0.5714,-0.5706,-0.573,-0.5733,-0.5733,-0.5733,-0.5733,-0.5733,-0.5733,-0.5733,-0.5916,-0.6557,-0.7559,-0.8469,-0.8964,-1.0016,-1.0575,-1.0575,-1.0617,-1.0622,-1.0575,-1.066,-1.0683,-1.0641,-1.0683,-1.0707,-1.0707,-1.0707,-1.0707,-1.0716,-1.1047,-1.1194,-1.1194,-1.1194,-1.1194,-1.1194,-1.1194,-1.1194,-1.1194,-1.1194,-1.1194,-1.1194,-1.1194,-1.1194,-1.1194,-1.1194,-1.1194,-1.1194,-1.1194,-1.1194,-1.1194,-1.1194,-1.1194,-1.1194,-1.1194,-1.1194,-1.1194,-1.1194,-1.1194,-1.1194,-1.1194,-1.1194,-1.1194,-1.1194,-1.1194,-1.1194,-1.1194,-1.1194,-1.1292,-1.178,-1.2926,-1.4549,-1.6734,-1.7978,-1.8735,-1.8827,-1.8827,-1.8827,-1.8827,-1.8827,-1.8827,-1.8827,-1.8827,-1.8827,-1.8827,-1.8827,-1.8827,-1.8827,-1.8756,-1.8716,-1.8716,-1.8367,-1.8319,-1.8597,-1.8041,-1.7914,-1.8184,-1.8974,-1.9157,0.0,0.0,0.0,0.0,0.0,0.0,0.0,0.0,-0.0251,-0.1295,-0.3714,-0.5662,-0.5741,-0.5735,-0.5733,-0.5733,-0.5733,-0.5733,-0.5733,-0.5733,-0.5733,-0.5733,-0.5733,-0.5994,-0.6691,-0.756,-0.8325,-0.9042,-0.9853,-1.0272,-1.0272,-1.0371,-1.0381,-1.0282,-1.0471,-1.0527,-1.0433,-1.0527,-1.0575,-1.0575,-1.0575,-1.0575,-1.0584,-1.0905,-1.1052,-1.1057,-1.1151,-1.1194,-1.1194,-1.1194,-1.1194,-1.1194,-1.1194,-1.1194,-1.1194,-1.1194,-1.1194,-1.1194,-1.1194,-1.1194,-1.1194,-1.1194,-1.1194,-1.1194,-1.1194,-1.1194,-1.1194,-1.1194,-1.1194,-1.1194,-1.1194,-1.1194,-1.1194,-1.1194,-1.1194,-1.1194,-1.1194,-1.1194,-1.1389,-1.1868,-1.1965,-1.2155,-1.3125,-1.4453,-1.588,-1.7498,-1.835,-1.8827,-1.8827,-1.8827,-1.8827,-1.8827,-1.8827,-1.8827,-1.8827,-1.8827,-1.8827,-1.8827,-1.8827,-1.8827,-1.8827,-1.8827,-1.8827,-1.8827,-1.8645,-1.8645,-1.8827,-1.8454,-1.8636,-1.9257,-1.9788,-2.0121,0.0,0.0,0.0,0.0,0.0,0.0,0.0,0.0,-0.0,-0.0,-0.2771,-0.5277,-0.5628,-0.5725,-0.5733,-0.5733,-0.5733,-0.5733,-0.5733,-0.5733,-0.5733,-0.5733,-0.5733,-0.5994,-0.6868,-0.7482,-0.8185,-0.9065,-0.9685,-1.0038,-1.0038,-1.0121,-1.0135,-1.0043,-1.0286,-1.0386,-1.022,-1.0386,-1.0466,-1.0466,-1.0466,-1.0466,-1.0475,-1.0688,-1.0806,-1.0853,-1.1057,-1.1142,-1.1146,-1.1179,-1.1194,-1.1194,-1.1194,-1.1194,-1.1194,-1.1194,-1.1194,-1.1194,-1.1194,-1.1194,-1.1194,-1.1194,-1.1194,-1.1194,-1.1194,-1.1194,-1.1194,-1.1194,-1.1194,-1.1194,-1.1194,-1.1194,-1.1194,-1.1194,-1.1292,-1.1385,-1.1194,-1.1389,-1.1673,-1.2538,-1.292,-1.359,-1.4746,-1.617,-1.7217,-1.7785,-1.845,-1.8827,-1.8827,-1.8827,-1.8827,-1.8827,-1.8827,-1.8827,-1.8827,-1.8827,-1.8827,-1.8827,-1.8827,-1.8827,-1.8827,-1.8827,-1.8827,-1.8827,-1.8827,-1.8827,-1.8827,-1.8827,-1.9363,-2.0339,-2.0439,-2.106,0.0,0.0,0.0,0.0,0.0,0.0,0.0,0.0,-0.0,0.0,-0.1776,-0.3749,-0.5415,-0.567,-0.5733,-0.5733,-0.5733,-0.5733,-0.5733,-0.5733,-0.5733,-0.5733,-0.5733,-0.626,-0.757,-0.7746,-0.836,-0.9772,-0.9951,-1.0038,-1.0038,-1.0067,-1.0067,-1.0038,-1.0095,-1.0109,-1.0081,-1.0109,-1.0119,-1.0119,-1.0119,-1.0119,-1.0129,-1.0258,-1.0452,-1.0627,-1.0844,-1.0934,-1.0948,-1.1123,-1.1194,-1.1194,-1.1194,-1.1194,-1.1194,-1.1194,-1.1194,-1.1194,-1.1194,-1.1194,-1.1194,-1.1194,-1.1194,-1.1194,-1.1194,-1.1194,-1.1194,-1.1194,-1.1194,-1.1194,-1.1194,-1.1194,-1.1194,-1.1194,-1.1868,-1.2252,-1.1389,-1.1868,-1.2538,-1.2635,-1.3974,-1.5406,-1.6459,-1.7117,-1.7878,-1.8542,-1.8735,-1.8827,-1.8827,-1.8827,-1.8827,-1.8827,-1.8827,-1.8827,-1.8827,-1.8827,-1.8827,-1.8827,-1.8827,-1.8827,-1.8827,-1.8827,-1.8827,-1.8827,-1.8827,-1.8827,-1.8827,-1.8827,-1.9363,-2.0339,-2.115,-2.2041,0.0,0.0,0.0,0.0,0.0,0.0,0.0,0.0,-0.0,-0.0,-0.139,-0.3273,-0.5199,-0.5504,-0.5551,-0.5619,-0.5629,-0.5654,-0.5725,-0.5733,-0.5733,-0.5733,-0.6083,-0.6694,-0.7746,-0.8185,-0.889,-0.9951,-1.0038,-1.0038,-1.0038,-1.0038,-1.0038,-1.0038,-1.0038,-1.0038,-1.0038,-1.0038,-1.0038,-1.0038,-1.0038,-1.0038,-1.0043,-1.005,-1.0206,-1.0414,-1.0627,-1.0716,-1.0731,-1.0943,-1.1028,-1.1038,-1.1151,-1.1194,-1.1194,-1.1194,-1.1194,-1.1194,-1.1194,-1.1194,-1.1194,-1.1194,-1.1194,-1.1194,-1.1194,-1.1194,-1.1194,-1.1194,-1.1194,-1.1292,-1.1868,-1.2058,-1.2155,-1.2829,-1.3307,-1.3499,-1.3022,-1.3307,-1.3788,-1.4555,-1.5886,-1.7124,-1.7707,-1.8079,-1.845,-1.8735,-1.8827,-1.8827,-1.8827,-1.8827,-1.8827,-1.8827,-1.8827,-1.8827,-1.8827,-1.8827,-1.8827,-1.8827,-1.8827,-1.8827,-1.8827,-1.8827,-1.8827,-1.8827,-1.8827,-1.8827,-1.8827,-1.9363,-2.0167,-2.1069,-2.2041,-2.3018,0.0,0.0,0.0,0.0,0.0,0.0,0.0,0.0,-0.0,-0.0,-0.1346,-0.3071,-0.4953,-0.5339,-0.5398,-0.5488,-0.5504,-0.5545,-0.567,-0.5687,-0.5697,-0.573,-0.6343,-0.7041,-0.7746,-0.8448,-0.9244,-0.9951,-1.0038,-1.0038,-1.0038,-1.0038,-1.0038,-1.0038,-1.0038,-1.0038,-1.0038,-1.0038,-1.0038,-1.0038,-1.0038,-1.0038,-1.0038,-1.0038,-1.0036,-1.0206,-1.0409,-1.0499,-1.0518,-1.0787,-1.0896,-1.0915,-1.1118,-1.1194,-1.1194,-1.1194,-1.1194,-1.1194,-1.1194,-1.1194,-1.1194,-1.1194,-1.1194,-1.1194,-1.1194,-1.1194,-1.1292,-1.1482,-1.158,-1.177,-1.2823,-1.3113,-1.3307,-1.4076,-1.4459,-1.4651,-1.4651,-1.4746,-1.5127,-1.6473,-1.752,-1.828,-1.8566,-1.8743,-1.8827,-1.8827,-1.8827,-1.8827,-1.8827,-1.8827,-1.8827,-1.8827,-1.8827,-1.8827,-1.8827,-1.8827,-1.8827,-1.8827,-1.8827,-1.8827,-1.8827,-1.8827,-1.8827,-1.8827,-1.8827,-1.8912,-1.9188,-1.9894,-2.0881,-2.205,-2.2746,-2.3637,0.0,0.0,0.0,0.0,0.0,0.0,0.0,0.0,-0.0,-0.0,-0.1312,-0.2982,-0.4729,-0.5224,-0.5371,-0.5377,-0.5379,-0.542,-0.5456,-0.5475,-0.5515,-0.5719,-0.6343,-0.7041,-0.7746,-0.8448,-0.9244,-0.9951,-1.0038,-1.0038,-1.0038,-1.0038,-1.0038,-1.0038,-1.0038,-1.0038,-1.0038,-1.0038,-1.0038,-1.0038,-1.0038,-1.0038,-1.0038,-1.0038,-1.0043,-1.0067,-1.0197,-1.0291,-1.0319,-1.0731,-1.0896,-1.0915,-1.1118,-1.1194,-1.1194,-1.1194,-1.1194,-1.1194,-1.1194,-1.1194,-1.1194,-1.1194,-1.1194,-1.1194,-1.1194,-1.1194,-1.1385,-1.2349,-1.2635,-1.2823,-1.398,-1.4172,-1.4268,-1.4268,-1.5032,-1.5704,-1.5704,-1.59,-1.6473,-1.7707,-1.8288,-1.8566,-1.8735,-1.8827,-1.8827,-1.8827,-1.8827,-1.8827,-1.8827,-1.8827,-1.8827,-1.8827,-1.8827,-1.8827,-1.8827,-1.8827,-1.8827,-1.8827,-1.8827,-1.8827,-1.8827,-1.8827,-1.8827,-1.8827,-1.8827,-1.9271,-2.0249,-2.0249,-2.123,-2.3008,-2.3096,-2.3637,0.0,0.0,0.0,0.0,0.0,0.0,-0.0,-0.0,-0.0,-0.0,-0.1341,-0.2988,-0.4683,-0.504,-0.5167,-0.5241,-0.5252,-0.5295,-0.5417,-0.5434,-0.545,-0.5494,-0.6512,-0.7271,-0.7524,-0.8535,-0.9349,-0.9743,-0.9757,-0.9814,-1.0028,-1.0038,-1.0038,-1.0038,-1.0038,-1.0038,-1.0038,-1.0038,-1.0038,-1.0038,-1.0038,-1.0038,-1.0038,-1.0038,-1.0038,-1.0043,-1.0119,-1.0069,-1.0088,-1.0376,-1.0575,-1.0712,-1.092,-1.1085,-1.1179,-1.1052,-1.1085,-1.1179,-1.1047,-1.1468,-1.2155,-1.2155,-1.2635,-1.3216,-1.3216,-1.3216,-1.3307,-1.3596,-1.3692,-1.3974,-1.5032,-1.5222,-1.5412,-1.6082,-1.6466,-1.685,-1.6951,-1.7052,-1.7333,-1.7994,-1.8288,-1.8574,-1.8735,-1.8827,-1.8827,-1.8827,-1.8827,-1.8827,-1.8827,-1.8827,-1.8827,-1.8827,-1.8827,-1.8827,-1.8827,-1.8827,-1.8827,-1.8827,-1.8827,-1.8827,-1.8827,-1.8827,-1.8827,-1.8827,-1.9455,-1.9894,-2.0339,-2.0881,-2.1863,-2.3096,-2.3724,-2.4176,0.0,0.0,0.0,0.0,0.0,-0.0,-0.0,-0.0,-0.0,-0.0,-0.1289,-0.2734,-0.3804,-0.4498,-0.4993,-0.511,-0.5129,-0.517,-0.529,-0.5306,-0.5322,-0.5366,-0.6609,-0.7432,-0.7432,-0.8582,-0.9384,-0.9526,-0.9535,-0.9597,-0.9734,-0.9738,-0.9771,-0.9847,-0.9852,-0.9885,-1.0038,-1.0038,-1.0038,-1.0038,-1.0038,-1.0038,-1.0038,-1.0038,-1.0038,-1.0038,-1.0038,-1.0038,-1.0057,-1.0182,-1.0353,-1.0494,-1.0707,-1.0868,-1.1067,-1.1213,-1.1342,-1.1441,-1.167,-1.2272,-1.2881,-1.3059,-1.3564,-1.4153,-1.4244,-1.4268,-1.4364,-1.4746,-1.4841,-1.5032,-1.6082,-1.6271,-1.6466,-1.7138,-1.7333,-1.752,-1.7628,-1.7815,-1.7908,-1.8187,-1.8465,-1.8651,-1.8743,-1.8827,-1.8827,-1.8827,-1.8827,-1.8827,-1.8827,-1.8827,-1.8827,-1.8827,-1.8827,-1.8827,-1.8827,-1.8827,-1.8827,-1.8827,-1.8827,-1.8912,-1.9271,-1.9271,-1.9455,-1.9812,-2.0439,-2.097,-2.123,-2.1863,-2.2668,-2.3551,-2.4186,-2.454,0.0,0.0,0.0,0.0,0.0,0.0,-0.0,0.0,-0.0,-0.0066,-0.1233,-0.2181,-0.2166,-0.3632,-0.4868,-0.4988,-0.5012,-0.5056,-0.5165,-0.5181,-0.5224,-0.5344,-0.6595,-0.7417,-0.7417,-0.8565,-0.9308,-0.9313,-0.9313,-0.9318,-0.9322,-0.9322,-0.9422,-0.9545,-0.9559,-0.9738,-1.0028,-1.0038,-1.0038,-1.0038,-1.0038,-1.0038,-1.0038,-1.0038,-1.0038,-1.0038,-1.0038,-1.0038,-1.0057,-1.0178,-1.0267,-1.0381,-1.0577,-1.0658,-1.0755,-1.166,-1.1935,-1.2027,-1.3012,-1.3278,-1.3417,-1.368,-1.3851,-1.3906,-1.4272,-1.4351,-1.4543,-1.5602,-1.5886,-1.6069,-1.7016,-1.7296,-1.7304,-1.7311,-1.7512,-1.7714,-1.7721,-1.7908,-1.8187,-1.8481,-1.8651,-1.8827,-1.8827,-1.8827,-1.8827,-1.8827,-1.8827,-1.8827,-1.8827,-1.8827,-1.8827,-1.8827,-1.8827,-1.8827,-1.8827,-1.8827,-1.8827,-1.8827,-1.8827,-1.9271,-2.0249,-2.0348,-2.0791,-2.1695,-2.1695,-2.2217,-2.3096,-2.3096,-2.3551,-2.454,-2.454,-2.454,-0.0,0.0,0.0,0.0,0.0,0.0,-0.0,-0.0,-0.0507,-0.2237,-0.3214,-0.3668,-0.3694,-0.4212,-0.4648,-0.4749,-0.4901,-0.5029,-0.5059,-0.5064,-0.5075,-0.511,-0.6212,-0.7077,-0.7077,-0.8169,-0.894,-0.9096,-0.9105,-0.9171,-0.9318,-0.9322,-0.9351,-0.9412,-0.9563,-0.9672,-0.9729,-0.9875,-1.0038,-1.0038,-1.0038,-1.0038,-1.0038,-1.0038,-1.0038,-1.0038,-1.0038,-1.0038,-1.0043,-1.0105,-1.0563,-1.1237,-1.1294,-1.1871,-1.2541,-1.2635,-1.2777,-1.2898,-1.3076,-1.3665,-1.4385,-1.4463,-1.5037,-1.5736,-1.6042,-1.6139,-1.6281,-1.6786,-1.6786,-1.6557,-1.6606,-1.663,-1.6786,-1.712,-1.7271,-1.7522,-1.8141,-1.8381,-1.8381,-1.8481,-1.8651,-1.8827,-1.8827,-1.8827,-1.8827,-1.8827,-1.8827,-1.8827,-1.8827,-1.8827,-1.8827,-1.8827,-1.8827,-1.8827,-1.8827,-1.8827,-1.8827,-1.8827,-1.9455,-1.9985,-2.0257,-2.097,-2.1507,-2.1952,-2.2561,-2.3173,-2.3617,-2.327,-2.3551,-2.454,-2.454,-2.454,0.0,0.0,0.0,0.0,0.0,0.0,-0.0,-0.0775,-0.1912,-0.3293,-0.3846,-0.4085,-0.4068,-0.4241,-0.4381,-0.4499,-0.4664,-0.4825,-0.4928,-0.4942,-0.4958,-0.5012,-0.5864,-0.6556,-0.6865,-0.7783,-0.8444,-0.8878,-0.8888,-0.894,-0.9058,-0.9063,-0.9105,-0.9195,-0.9322,-0.9426,-0.9511,-0.963,-0.9734,-0.9823,-0.9823,-0.9871,-1.0038,-1.0038,-1.0038,-1.0038,-1.0381,-1.0636,-1.0717,-1.0971,-1.1223,-1.1521,-1.1865,-1.2476,-1.3121,-1.3324,-1.3542,-1.3649,-1.3937,-1.4416,-1.5106,-1.5237,-1.5637,-1.6243,-1.6557,-1.6652,-1.6689,-1.6879,-1.6791,-1.6608,-1.6418,-1.6455,-1.6595,-1.6885,-1.7109,-1.743,-1.7908,-1.8245,-1.8485,-1.8627,-1.8743,-1.8827,-1.8827,-1.8827,-1.8827,-1.8827,-1.8827,-1.8827,-1.8827,-1.8827,-1.8827,-1.8827,-1.8827,-1.8827,-1.8827,-1.918,-1.9455,-1.9455,-2.0348,-2.106,-2.1409,-2.2031,-2.2648,-2.3183,-2.379,-2.4231,-2.4413,-2.4145,-2.4241,-2.4786,-2.4786,-2.4786,-0.0,-0.0,0.0,-0.0,-0.0,0.0,-0.0,-0.1847,-0.3545,-0.3524,-0.3647,-0.3748,-0.3761,-0.3939,-0.4118,-0.424,-0.4355,-0.452,-0.4779,-0.4814,-0.4855,-0.4963,-0.5588,-0.6203,-0.6835,-0.7447,-0.8067,-0.8623,-0.8703,-0.8703,-0.8703,-0.8703,-0.8789,-0.8982,-0.9011,-0.911,-0.9289,-0.9313,-0.9422,-0.9527,-0.9527,-0.9719,-0.9918,-0.9918,-1.0014,-1.0207,-1.0982,-1.1569,-1.1901,-1.2583,-1.2425,-1.1752,-1.251,-1.293,-1.3105,-1.3964,-1.423,-1.4398,-1.5166,-1.5431,-1.5474,-1.5767,-1.5862,-1.5921,-1.6221,-1.6316,-1.6316,-1.6316,-1.6316,-1.6309,-1.636,-1.644,-1.663,-1.6668,-1.7026,-1.7383,-1.7422,-1.7848,-1.8335,-1.8645,-1.8772,-1.8827,-1.8827,-1.8827,-1.8827,-1.8827,-1.8827,-1.8827,-1.8827,-1.8827,-1.8827,-1.8827,-1.8827,-1.8827,-1.892,-1.9812,-2.0339,-2.0439,-2.1329,-2.2217,-2.3096,-2.3434,-2.4049,-2.4946,-2.52,-2.5285,-2.5285,-2.52,-2.52,-2.52,-2.52,-2.5115,-0.0,-0.0,-0.0,-0.0,-0.0,0.0,-0.0,-0.1599,-0.3084,-0.326,-0.3326,-0.3456,-0.3615,-0.3746,-0.3863,-0.3988,-0.4107,-0.4303,-0.464,-0.4689,-0.4697,-0.4722,-0.5672,-0.6449,-0.6723,-0.7711,-0.8379,-0.8689,-0.8703,-0.8703,-0.8703,-0.8703,-0.8722,-0.8765,-0.893,-0.9044,-0.9082,-0.9242,-0.9346,-0.9384,-0.9384,-0.9497,-0.9705,-0.9705,-1.0218,-1.1068,-1.1483,-1.2077,-1.2845,-1.386,-1.4119,-1.3795,-1.3795,-1.4223,-1.4915,-1.5082,-1.5173,-1.5173,-1.5347,-1.5431,-1.5438,-1.5504,-1.5526,-1.5584,-1.5906,-1.6001,-1.6001,-1.6001,-1.6001,-1.5943,-1.5826,-1.5844,-1.6079,-1.6691,-1.6924,-1.7087,-1.762,-1.7826,-1.7898,-1.7962,-1.8438,-1.8827,-1.8827,-1.8827,-1.8827,-1.8827,-1.8827,-1.8827,-1.8827,-1.8827,-1.8827,-1.8827,-1.8827,-1.9096,-1.9894,-2.0167,-2.061,-2.1427,-2.2473,-2.3173,-2.3347,-2.4317,-2.5031,-2.5475,-2.5644,-2.5728,-2.5728,-2.5369,-2.52,-2.52,-2.52,-2.52,-0.0,-0.0,-0.0,-0.0,-0.0918,0.0,0.0,-0.2523,-0.327,-0.3376,-0.3373,-0.3406,-0.3471,-0.3539,-0.3618,-0.374,-0.386,-0.402,-0.4262,-0.445,-0.4654,-0.4718,-0.5228,-0.583,-0.6488,-0.7078,-0.7702,-0.8382,-0.8491,-0.8552,-0.8552,-0.8647,-0.8703,-0.8703,-0.8807,-0.8864,-0.8864,-0.8963,-0.9067,-0.9176,-0.9176,-0.9285,-0.9488,-0.9975,-1.0585,-1.1393,-1.2469,-1.3387,-1.4028,-1.497,-1.5318,-1.5242,-1.4977,-1.5151,-1.5499,-1.5431,-1.5431,-1.5431,-1.5431,-1.5431,-1.5431,-1.5431,-1.5431,-1.546,-1.5621,-1.5672,-1.5672,-1.5672,-1.5672,-1.5635,-1.5702,-1.5824,-1.6035,-1.6529,-1.6742,-1.6873,-1.7215,-1.7397,-1.7525,-1.7525,-1.7946,-1.8359,-1.8533,-1.8565,-1.8629,-1.8804,-1.8827,-1.8764,-1.8589,-1.8716,-1.8764,-1.8581,-1.9165,-1.972,-2.0249,-2.1141,-2.1859,-2.2168,-2.3212,-2.3829,-2.3914,-2.4671,-2.5217,-2.5728,-2.5812,-2.5895,-2.5895,-2.5633,-2.5549,-2.5549,-2.5549,-2.5464,-0.0543,-0.0756,-0.0769,-0.0404,-0.1812,-0.3337,0.0,0.0,0.0,-0.3561,-0.3436,-0.3373,-0.3398,-0.3381,-0.3406,-0.3528,-0.3645,-0.3754,-0.3854,-0.4134,-0.4376,-0.4499,-0.4655,-0.5093,-0.6205,-0.6491,-0.7012,-0.8004,-0.817,-0.8278,-0.8396,-0.8557,-0.8661,-0.8703,-0.8703,-0.8703,-0.8703,-0.8703,-0.8789,-0.8963,-0.8963,-0.9067,-0.9266,-1.0295,-1.0983,-1.1546,-1.3413,-1.4579,-1.5209,-1.5898,-1.6191,-1.617,-1.5906,-1.5741,-1.565,-1.559,-1.5506,-1.5506,-1.5506,-1.5423,-1.5423,-1.5431,-1.5431,-1.5431,-1.5431,-1.5431,-1.5431,-1.5431,-1.5423,-1.5506,-1.5741,-1.5997,-1.6245,-1.6402,-1.6566,-1.673,-1.673,-1.6969,-1.7175,-1.7175,-1.739,-1.7707,-1.8128,-1.82,-1.8295,-1.8581,-1.8629,-1.8518,-1.8232,-1.8446,-1.8518,-1.8232,-1.9329,-2.0124,-2.0384,-2.1964,-2.2867,-2.2932,-2.3712,-2.427,-2.4519,-2.4841,-2.5315,-2.5895,-2.5808,-2.5808,-2.5895,-2.5808,-2.5808,-2.5895,-2.5895,-2.5812,-0.2595,-0.3491,-0.3427,-0.1982,-0.1814,-0.2261,-0.3359,0.0,-0.3341,-0.3314,0.0,-0.3273,-0.3381,0.0,0.0,-0.3403,-0.3523,-0.3607,-0.3621,-0.3804,-0.3879,-0.4001,-0.4391,-0.5051,-0.5969,-0.6862,-0.7544,-0.8051,-0.7773,-0.7825,-0.8373,-0.8425,-0.8519,-0.8694,-0.8703,-0.8703,-0.8703,-0.8703,-0.8713,-0.8737,-0.8737,-0.885,-0.9058,-1.0069,-1.1134,-1.2172,-1.343,-1.4734,-1.5797,-1.611,-1.6371,-1.6574,-1.6252,-1.5914,-1.5733,-1.5914,-1.6004,-1.6004,-1.5741,-1.565,-1.5658,-1.5423,-1.5431,-1.5431,-1.5431,-1.5431,-1.5431,-1.5431,-1.5499,-1.5741,-1.6004,-1.6245,-1.6394,-1.6648,-1.6656,-1.673,-1.673,-1.677,-1.6794,-1.6794,-1.6826,-1.7056,-1.7723,-1.7834,-1.7842,-1.7882,-1.789,-1.7874,-1.7834,-1.7866,-1.7874,-1.7834,-1.8642,-1.9608,-2.0688,-2.1601,-2.2583,-2.365,-2.3983,-2.4325,-2.4723,-2.5413,-2.5841,-2.5895,-2.548,-2.5469,-2.5895,-2.5459,-2.548,-2.5895,-2.5895,-2.5906,-0.2377,-0.3283,-0.3887,-0.3189,-0.3004,-0.3087,-0.348,-0.3543,-0.35,-0.3458,0.0,0.0,0.0,0.0,0.0,0.0,-0.3338,-0.3371,-0.3371,-0.3411,-0.3566,-0.3835,-0.4291,-0.492,-0.5946,-0.6559,-0.7045,-0.7347,-0.7319,-0.7456,-0.7834,-0.8203,-0.8439,-0.8524,-0.8642,-0.8703,-0.8703,-0.8703,-0.8932,-0.9387,-0.9387,-0.9732,-1.0422,-1.1407,-1.2316,-1.3138,-1.4219,-1.5227,-1.6055,-1.6206,-1.6332,-1.6484,-1.6492,-1.6319,-1.6147,-1.6079,-1.6087,-1.6087,-1.5997,-1.5914,-1.5914,-1.5839,-1.5665,-1.5575,-1.5575,-1.5506,-1.5423,-1.5499,-1.5658,-1.5816,-1.6154,-1.6319,-1.6476,-1.6648,-1.673,-1.673,-1.673,-1.673,-1.673,-1.673,-1.673,-1.6826,-1.7119,-1.7342,-1.7548,-1.7747,-1.7771,-1.7699,-1.7509,-1.7652,-1.7857,-1.8159,-1.9329,-2.0475,-2.1457,-2.2462,-2.3189,-2.3581,-2.3727,-2.41,-2.4577,-2.5137,-2.5611,-2.5895,-2.5699,-2.5699,-2.5895,-2.5699,-2.5699,-2.5895,-2.5895,-2.5895,-0.2466,-0.3145,-0.3932,-0.3862,-0.3804,-0.3754,-0.3606,-0.3613,-0.3623,-0.3591,-0.3536,0.0,0.0,0.0,-0.3256,-0.3224,0.0,-0.3368,-0.3368,-0.3436,-0.3579,-0.3914,-0.4465,-0.5133,-0.5969,-0.623,-0.644,-0.6768,-0.6828,-0.7064,-0.7502,-0.7896,-0.8226,-0.8396,-0.8543,-0.8647,-0.8703,-0.8703,-0.9084,-0.9922,-0.9986,-1.0501,-1.1452,-1.2492,-1.3212,-1.3582,-1.4579,-1.5372,-1.5928,-1.5928,-1.6103,-1.6335,-1.6506,-1.6561,-1.6476,-1.6327,-1.6252,-1.6252,-1.6162,-1.617,-1.6087,-1.6087,-1.5997,-1.5824,-1.5824,-1.5748,-1.559,-1.5741,-1.5824,-1.5982,-1.6312,-1.6476,-1.6484,-1.6648,-1.673,-1.673,-1.673,-1.673,-1.673,-1.673,-1.673,-1.673,-1.673,-1.6953,-1.7207,-1.7453,-1.7485,-1.7483,-1.7487,-1.7665,-1.8052,-1.8681,-1.9962,-2.1029,-2.1678,-2.2839,-2.3442,-2.3329,-2.358,-2.3897,-2.4268,-2.4858,-2.5338,-2.5699,-2.5699,-2.5764,-2.5895,-2.5764,-2.5764,-2.5895,-2.5895,-2.5895,-0.3768,-0.3911,-0.401,-0.3707,-0.3729,-0.3782,-0.3615,-0.3729,-0.3773,-0.3607,-0.3727,-0.3765,-0.3599,-0.3479,-0.3357,0.0,-0.3518,0.0,0.0,-0.3983,-0.4056,-0.4072,-0.5123,-0.5895,-0.59,-0.5896,-0.6185,-0.6744,-0.6294,-0.6393,-0.7469,-0.7489,-0.7787,-0.8382,-0.8411,-0.8505,-0.8699,-0.8703,-0.9084,-0.9922,-1.0126,-1.0634,-1.1452,-1.2645,-1.3171,-1.3251,-1.4209,-1.4871,-1.5213,-1.5213,-1.5618,-1.6222,-1.6222,-1.6436,-1.6648,-1.6656,-1.6656,-1.6648,-1.6476,-1.6237,-1.6087,-1.6087,-1.6087,-1.6087,-1.6087,-1.6087,-1.6087,-1.6087,-1.6245,-1.6394,-1.6394,-1.6558,-1.6648,-1.673,-1.673,-1.673,-1.673,-1.673,-1.673,-1.673,-1.673,-1.673,-1.673,-1.6746,-1.6754,-1.6762,-1.677,-1.7,-1.7861,-1.8031,-1.8345,-1.9195,-2.0157,-2.0876,-2.1098,-2.2122,-2.281,-2.3023,-2.3471,-2.3733,-2.3755,-2.4661,-2.5175,-2.5196,-2.5196,-2.5426,-2.5895,-2.5426,-2.5437,-2.5895,-2.5895,-2.5895,-0.4324,-0.4519,-0.4553,-0.4339,-0.4315,-0.424,-0.3741,-0.3729,-0.3779,-0.3607,-0.3732,-0.3831,-0.3987,-0.3911,-0.3912,0.0,0.0,-0.4228,0.0,-0.4385,-0.4629,-0.4727,-0.5213,-0.5579,-0.567,-0.5808,-0.5996,-0.6213,-0.6161,-0.6336,-0.6818,-0.7239,-0.7565,-0.7787,-0.847,-0.8724,-0.85,-0.8869,-0.9685,-1.087,-1.0938,-1.1822,-1.3382,-1.3833,-1.4049,-1.4122,-1.4489,-1.4847,-1.5189,-1.5189,-1.5586,-1.6206,-1.6206,-1.642,-1.673,-1.673,-1.673,-1.6648,-1.6648,-1.6566,-1.6492,-1.6492,-1.6409,-1.6319,-1.6319,-1.6245,-1.617,-1.6237,-1.6312,-1.6394,-1.6566,-1.6648,-1.673,-1.673,-1.673,-1.673,-1.673,-1.673,-1.673,-1.673,-1.673,-1.673,-1.673,-1.673,-1.673,-1.673,-1.673,-1.6812,-1.7131,-1.7602,-1.8399,-1.9353,-2.0362,-2.1298,-2.208,-2.2617,-2.2927,-2.3001,-2.3154,-2.3394,-2.3722,-2.405,-2.4377,-2.4716,-2.5011,-2.5251,-2.5415,-2.5579,-2.5742,-2.5895,-2.5895,-2.5895,-0.5305,-0.5487,-0.5498,-0.5355,-0.537,-0.5199,-0.4482,-0.4423,-0.4484,-0.4402,-0.433,-0.4436,-0.4958,-0.467,-0.4531,0.0,0.0,0.0,0.0,-0.4776,-0.4985,-0.5047,-0.5282,0.0,-0.578,-0.5724,-0.5748,-0.6001,-0.5991,-0.613,-0.6506,-0.6984,-0.7314,-0.7475,-0.8344,-0.8605,-0.8401,-0.9204,-1.0198,-1.1378,-1.1749,-1.2792,-1.4425,-1.4433,-1.4497,-1.4569,-1.4569,-1.4776,-1.499,-1.499,-1.5332,-1.584,-1.584,-1.6126,-1.6563,-1.6683,-1.673,-1.673,-1.673,-1.673,-1.673,-1.673,-1.6648,-1.6476,-1.6476,-1.6402,-1.6335,-1.6484,-1.6476,-1.6558,-1.6648,-1.673,-1.673,-1.673,-1.673,-1.673,-1.673,-1.673,-1.673,-1.673,-1.673,-1.673,-1.673,-1.673,-1.673,-1.673,-1.6968,-1.7286,-1.7602,-1.839,-1.9344,-2.0382,-2.1231,-2.1993,-2.2777,-2.2927,-2.3001,-2.3001,-2.3001,-2.3143,-2.346,-2.3635,-2.3886,-2.4213,-2.4847,-2.5175,-2.5175,-2.5666,-2.5895,-2.5895,-2.5895,-2.6063]},{"header":{"parameterUnit":"m.s-1","parameterCategory":1,"la1":30.6,"la2":29.2853,"lo1":-89.7004,"lo2":-87.6739,"dy":0.0162,"dx":0.0183,"nx":112,"ny":82,"refTime":"2024-07-14T00:00:00:Z","depth":0,"parameterNumber":3,"parameterNumberName":"V-component_of_WINDS"},"data":[0.0,0.0,0.0,0.0,0.0,0.0,0.0,0.0,0.0,0.0,0.0,0.0,0.0,0.0,0.0,0.0,0.0,0.0,0.0,0.0,0.0,0.0,0.0,0.0,0.0,0.0,0.0,0.0,0.0,0.0,0.0,0.0,0.0,0.0,0.0,0.0,0.0,0.0,0.0,0.0,0.0,0.0,0.0,0.0,0.0,0.0,0.0,0.0,0.0,0.0,0.0,0.0,0.0,0.0,0.0,0.0,0.0,0.0,0.0,0.0,0.0,0.0,0.0,0.0,0.0,0.0,0.0,0.0,0.0,0.0,0.0,0.0,0.0,0.0,0.0,0.0,0.0,0.0,0.0,0.0,0.0,0.0,0.0,0.0,0.0,0.0,0.0,0.0,0.0,0.0,-2.0007,-2.2076,-2.4284,-2.5609,-2.5618,-2.5624,-2.4189,-2.0806,0.0,0.0,0.0,0.0,0.0,0.0,0.0,0.0,0.0,0.0,0.0,0.0,0.0,0.0,0.0,0.0,0.0,0.0,0.0,0.0,0.0,0.0,0.0,0.0,0.0,0.0,0.0,0.0,0.0,0.0,0.0,0.0,0.0,0.0,0.0,0.0,0.0,0.0,0.0,0.0,0.0,0.0,0.0,0.0,0.0,0.0,0.0,0.0,0.0,0.0,0.0,0.0,0.0,0.0,0.0,0.0,0.0,0.0,0.0,0.0,0.0,0.0,0.0,0.0,0.0,0.0,0.0,0.0,0.0,0.0,0.0,0.0,0.0,0.0,0.0,0.0,0.0,0.0,0.0,0.0,0.0,0.0,0.0,0.0,0.0,0.0,0.0,0.0,0.0,0.0,0.0,0.0,0.0,0.0,0.0,0.0,0.0,0.0,0.0,0.0,0.0,0.0,0.0,0.0,-2.0686,-2.4596,-2.5364,-2.5612,-2.5683,-2.5682,-2.421,-2.0738,0.0,0.0,0.0,0.0,0.0,0.0,0.0,0.0,0.0,0.0,0.0,0.0,0.0,0.0,0.0,0.0,0.0,0.0,0.0,0.0,0.0,0.0,0.0,0.0,0.0,0.0,0.0,0.0,0.0,0.0,0.0,0.0,0.0,0.0,0.0,0.0,0.0,0.0,0.0,0.0,0.0,0.0,0.0,0.0,0.0,0.0,0.0,0.0,0.0,0.0,0.0,0.0,0.0,0.0,0.0,0.0,0.0,0.0,0.0,0.0,0.0,0.0,0.0,0.0,0.0,0.0,0.0,0.0,0.0,0.0,0.0,0.0,0.0,0.0,0.0,0.0,0.0,0.0,0.0,0.0,0.0,0.0,0.0,0.0,0.0,0.0,0.0,0.0,0.0,0.0,0.0,0.0,0.0,0.0,0.0,0.0,0.0,0.0,0.0,0.0,0.0,0.0,0.0,-1.9866,-2.1857,-2.5247,-2.5603,-2.5631,-2.5683,-2.5693,-2.4235,-2.0777,-1.895,0.0,0.0,0.0,0.0,0.0,0.0,0.0,0.0,0.0,0.0,0.0,0.0,0.0,0.0,0.0,0.0,0.0,0.0,0.0,0.0,0.0,0.0,0.0,0.0,0.0,0.0,0.0,0.0,0.0,0.0,0.0,0.0,0.0,0.0,0.0,0.0,0.0,0.0,0.0,0.0,0.0,0.0,0.0,0.0,0.0,0.0,0.0,0.0,0.0,0.0,0.0,0.0,0.0,0.0,0.0,0.0,0.0,0.0,0.0,0.0,0.0,0.0,0.0,0.0,0.0,0.0,0.0,0.0,0.0,0.0,0.0,0.0,0.0,0.0,0.0,0.0,0.0,0.0,0.0,0.0,0.0,0.0,0.0,0.0,0.0,0.0,0.0,0.0,0.0,0.0,0.0,0.0,0.0,0.0,0.0,0.0,0.0,0.0,0.0,0.0,0.0,0.0,-2.2343,-2.3166,-2.5392,-2.5613,-2.5643,-2.57,-2.5327,-2.3806,-2.0779,-1.8574,0.0,0.0,0.0,0.0,0.0,0.0,0.0,0.0,0.0,0.0,0.0,0.0,0.0,0.0,0.0,0.0,0.0,0.0,0.0,0.0,0.0,0.0,0.0,0.0,0.0,0.0,0.0,0.0,0.0,0.0,0.0,0.0,0.0,0.0,0.0,0.0,0.0,0.0,0.0,0.0,0.0,0.0,0.0,0.0,0.0,0.0,0.0,0.0,0.0,0.0,0.0,0.0,0.0,0.0,0.0,0.0,0.0,0.0,0.0,0.0,0.0,0.0,0.0,0.0,0.0,0.0,0.0,0.0,0.0,0.0,0.0,0.0,0.0,0.0,0.0,0.0,0.0,0.0,0.0,0.0,0.0,0.0,0.0,0.0,0.0,0.0,0.0,0.0,0.0,0.0,0.0,0.0,0.0,0.0,0.0,0.0,0.0,0.0,0.0,0.0,0.0,0.0,-2.2689,-2.4527,-2.5586,-2.5683,-2.5697,-2.5696,-2.4202,-2.248,-2.0616,-1.7411,0.0,0.0,0.0,0.0,0.0,0.0,0.0,0.0,0.0,0.0,0.0,0.0,0.0,0.0,0.0,0.0,0.0,0.0,0.0,0.0,0.0,0.0,0.0,0.0,0.0,0.0,0.0,0.0,0.0,0.0,0.0,0.0,0.0,0.0,0.0,0.0,0.0,0.0,0.0,0.0,0.0,0.0,0.0,0.0,0.0,0.0,0.0,0.0,0.0,0.0,0.0,0.0,0.0,0.0,0.0,0.0,0.0,0.0,0.0,0.0,0.0,0.0,0.0,0.0,0.0,0.0,0.0,0.0,0.0,0.0,0.0,0.0,0.0,0.0,0.0,0.0,0.0,0.0,0.0,0.0,0.0,0.0,0.0,0.0,0.0,0.0,0.0,0.0,0.0,0.0,0.0,0.0,0.0,0.0,0.0,0.0,0.0,0.0,0.0,0.0,0.0,0.0,-2.2285,-2.4098,-2.5547,-2.5701,-2.5696,-2.5693,-2.5096,-2.3514,-2.0672,0.0,0.0,0.0,0.0,0.0,0.0,0.0,0.0,0.0,0.0,0.0,0.0,0.0,0.0,0.0,0.0,0.0,0.0,0.0,0.0,0.0,0.0,0.0,0.0,0.0,0.0,0.0,0.0,0.0,0.0,0.0,0.0,0.0,0.0,0.0,0.0,0.0,0.0,0.0,0.0,0.0,0.0,0.0,0.0,0.0,0.0,0.0,0.0,0.0,0.0,0.0,0.0,0.0,0.0,0.0,0.0,0.0,0.0,0.0,0.0,0.0,0.0,0.0,0.0,0.0,0.0,0.0,0.0,0.0,0.0,0.0,0.0,0.0,0.0,0.0,0.0,0.0,0.0,0.0,0.0,0.0,0.0,0.0,0.0,0.0,0.0,0.0,0.0,0.0,0.0,0.0,0.0,0.0,0.0,0.0,0.0,0.0,0.0,0.0,0.0,0.0,0.0,-2.0137,-2.2497,-2.4354,-2.5579,-2.5691,-2.5703,-2.5704,-2.4934,-2.3332,-2.0667,0.0,0.0,0.0,0.0,0.0,0.0,0.0,0.0,0.0,0.0,0.0,0.0,0.0,0.0,0.0,0.0,0.0,0.0,0.0,0.0,0.0,0.0,0.0,0.0,0.0,0.0,0.0,0.0,0.0,0.0,0.0,0.0,0.0,0.0,0.0,0.0,0.0,0.0,0.0,0.0,0.0,0.0,0.0,0.0,0.0,0.0,0.0,0.0,0.0,0.0,0.0,0.0,0.0,0.0,0.0,0.0,0.0,0.0,0.0,0.0,0.0,0.0,0.0,0.0,0.0,0.0,0.0,0.0,0.0,0.0,0.0,0.0,0.0,0.0,0.0,0.0,0.0,0.0,0.0,0.0,0.0,0.0,0.0,0.0,0.0,0.0,0.0,0.0,0.0,0.0,0.0,0.0,0.0,0.0,0.0,0.0,0.0,0.0,0.0,0.0,0.0,0.0,-2.0273,-2.3493,-2.5627,-2.5697,-2.5703,-2.5699,-2.5699,-2.3322,-2.1451,0.0,0.0,0.0,0.0,0.0,0.0,0.0,0.0,0.0,0.0,0.0,0.0,0.0,0.0,0.0,0.0,0.0,0.0,0.0,0.0,0.0,0.0,0.0,0.0,0.0,0.0,0.0,0.0,0.0,0.0,0.0,0.0,0.0,0.0,0.0,0.0,0.0,0.0,0.0,0.0,0.0,0.0,0.0,0.0,0.0,0.0,0.0,0.0,0.0,0.0,0.0,0.0,0.0,0.0,0.0,0.0,0.0,0.0,0.0,0.0,0.0,0.0,0.0,0.0,0.0,0.0,0.0,0.0,0.0,0.0,0.0,0.0,0.0,0.0,0.0,0.0,0.0,0.0,0.0,0.0,0.0,0.0,0.0,0.0,0.0,0.0,0.0,0.0,0.0,0.0,0.0,0.0,0.0,0.0,0.0,0.0,0.0,0.0,0.0,0.0,0.0,0.0,0.0,-2.0271,-2.3534,-2.5678,-2.5694,-2.5615,-2.5565,-2.5565,-2.4288,-2.2596,-2.0496,0.0,0.0,0.0,0.0,0.0,0.0,0.0,0.0,0.0,0.0,0.0,0.0,0.0,0.0,0.0,0.0,0.0,0.0,0.0,0.0,0.0,0.0,0.0,0.0,0.0,0.0,0.0,0.0,0.0,0.0,0.0,0.0,0.0,0.0,0.0,0.0,0.0,0.0,0.0,0.0,0.0,0.0,0.0,0.0,0.0,0.0,0.0,0.0,0.0,0.0,0.0,0.0,0.0,0.0,0.0,0.0,0.0,0.0,0.0,0.0,0.0,0.0,0.0,0.0,0.0,0.0,0.0,0.0,0.0,0.0,0.0,0.0,0.0,0.0,0.0,0.0,0.0,0.0,0.0,0.0,0.0,0.0,0.0,0.0,0.0,0.0,0.0,0.0,0.0,0.0,0.0,0.0,0.0,0.0,0.0,0.0,0.0,0.0,0.0,0.0,0.0,0.0,-2.0283,-2.3504,-2.5615,-2.5619,-2.5529,-2.546,-2.546,-2.467,-2.3209,-2.0959,0.0,0.0,0.0,0.0,0.0,0.0,0.0,0.0,0.0,0.0,0.0,0.0,0.0,0.0,0.0,0.0,0.0,0.0,0.0,0.0,0.0,0.0,0.0,0.0,0.0,0.0,0.0,0.0,0.0,0.0,0.0,0.0,0.0,0.0,0.0,0.0,0.0,0.0,0.0,0.0,0.0,0.0,0.0,0.0,0.0,0.0,0.0,0.0,0.0,0.0,0.0,0.0,0.0,0.0,0.0,0.0,0.0,0.0,0.0,0.0,0.0,0.0,0.0,0.0,0.0,0.0,0.0,0.0,0.0,0.0,0.0,0.0,0.0,0.0,0.0,0.0,0.0,0.0,0.0,0.0,0.0,0.0,0.0,0.0,0.0,0.0,0.0,0.0,0.0,0.0,0.0,0.0,0.0,0.0,0.0,0.0,0.0,0.0,0.0,0.0,0.0,0.0,-2.0272,-2.3415,-2.5498,-2.5492,-2.5425,-2.5398,-2.5398,-2.459,-2.3365,-2.1693,0.0,0.0,0.0,0.0,0.0,0.0,0.0,0.0,0.0,0.0,0.0,0.0,0.0,0.0,0.0,0.0,0.0,0.0,0.0,0.0,0.0,0.0,0.0,0.0,0.0,0.0,0.0,0.0,0.0,0.0,0.0,0.0,0.0,0.0,0.0,0.0,0.0,0.0,0.0,0.0,0.0,0.0,0.0,0.0,0.0,0.0,0.0,0.0,0.0,0.0,0.0,0.0,0.0,0.0,0.0,0.0,0.0,0.0,0.0,0.0,-1.6716,-1.5677,0.0,0.0,0.0,0.0,0.0,0.0,0.0,0.0,0.0,0.0,0.0,0.0,0.0,0.0,0.0,0.0,0.0,0.0,0.0,0.0,0.0,0.0,0.0,0.0,0.0,0.0,0.0,0.0,0.0,0.0,0.0,0.0,0.0,0.0,0.0,0.0,0.0,0.0,0.0,0.0,-2.0208,-2.3392,-2.548,-2.5425,-2.5357,-2.5322,-2.5322,-2.4475,-2.3217,-2.1541,-1.8877,0.0,0.0,0.0,0.0,0.0,0.0,0.0,0.0,0.0,0.0,0.0,0.0,0.0,0.0,0.0,0.0,0.0,0.0,0.0,0.0,0.0,0.0,0.0,0.0,0.0,0.0,0.0,0.0,0.0,0.0,0.0,0.0,0.0,0.0,0.0,0.0,0.0,0.0,0.0,0.0,0.0,0.0,0.0,0.0,0.0,0.0,0.0,0.0,0.0,0.0,0.0,0.0,0.0,0.0,0.0,0.0,0.0,0.0,0.0,-1.9854,-1.8669,0.0,0.0,0.0,0.0,0.0,0.0,0.0,0.0,0.0,0.0,0.0,0.0,0.0,0.0,0.0,0.0,0.0,0.0,0.0,0.0,0.0,0.0,0.0,0.0,0.0,0.0,0.0,0.0,0.0,0.0,0.0,0.0,0.0,0.0,0.0,0.0,0.0,0.0,0.0,0.0,-2.0858,-2.3642,-2.5439,-2.5395,-2.5313,-2.525,-2.525,-2.4793,-2.3976,-2.2677,-2.0604,0.0,0.0,0.0,0.0,0.0,0.0,0.0,0.0,0.0,0.0,0.0,0.0,0.0,0.0,0.0,0.0,0.0,0.0,0.0,0.0,0.0,0.0,0.0,0.0,0.0,0.0,0.0,0.0,0.0,0.0,0.0,0.0,0.0,0.0,0.0,0.0,0.0,0.0,0.0,0.0,0.0,0.0,0.0,0.0,0.0,0.0,0.0,0.0,0.0,0.0,0.0,0.0,0.0,-2.2978,-2.3938,-2.6092,-2.5437,-2.5972,-2.7191,-2.3586,-2.2634,-2.3399,-2.0881,0.0,0.0,0.0,0.0,0.0,0.0,0.0,0.0,0.0,0.0,0.0,0.0,0.0,0.0,0.0,0.0,0.0,0.0,0.0,0.0,0.0,0.0,-2.2734,-2.2889,-2.3468,-2.3402,-2.1243,0.0,0.0,0.0,0.0,0.0,0.0,0.0,0.0,0.0,0.0,0.0,-2.1792,-2.3999,-2.5406,-2.539,-2.5273,-2.521,-2.518,-2.5191,-2.4817,-2.3934,-2.2437,-2.0919,0.0,0.0,0.0,0.0,0.0,0.0,0.0,0.0,0.0,0.0,0.0,0.0,0.0,0.0,0.0,0.0,0.0,0.0,0.0,0.0,0.0,0.0,0.0,0.0,0.0,0.0,0.0,0.0,0.0,0.0,0.0,0.0,-1.4438,-1.5301,0.0,0.0,0.0,0.0,0.0,0.0,0.0,0.0,0.0,0.0,0.0,0.0,0.0,-2.2343,-2.4037,-2.4993,-2.6029,-2.72,-2.7846,-2.8743,-2.9805,-2.9756,-2.9859,-3.007,-2.9547,0.0,-2.6236,-2.436,0.0,0.0,0.0,0.0,0.0,0.0,0.0,0.0,0.0,0.0,0.0,0.0,0.0,0.0,0.0,0.0,0.0,0.0,0.0,0.0,0.0,0.0,-2.6484,-2.7186,-2.7429,-2.7422,-2.709,-2.2812,-1.8964,-1.8749,-1.8138,-1.7348,0.0,0.0,0.0,0.0,0.0,0.0,-2.2639,-2.4335,-2.5382,-2.5313,-2.525,-2.518,-2.5113,-2.5168,-2.4805,-2.3857,-2.2947,-2.2005,-2.1022,-1.8697,0.0,0.0,0.0,0.0,0.0,0.0,0.0,0.0,0.0,0.0,0.0,0.0,0.0,0.0,0.0,0.0,0.0,0.0,0.0,0.0,0.0,0.0,0.0,0.0,0.0,0.0,0.0,0.0,0.0,-1.3753,-1.5479,-1.577,-1.6286,-1.6226,0.0,0.0,0.0,0.0,0.0,0.0,0.0,0.0,0.0,-2.4365,-2.4953,-2.5888,-2.7247,-2.8192,-2.9156,-3.0153,-3.0539,-3.1196,-3.2075,-3.21,-3.2116,-3.2116,-3.2159,-3.1521,-3.0283,-2.7609,-2.5975,-2.5079,0.0,0.0,0.0,0.0,-2.3786,-2.3505,-2.4481,-2.4514,-2.4012,-2.3532,0.0,0.0,0.0,0.0,0.0,0.0,0.0,-2.4219,-2.5478,-2.6735,-2.7761,-2.8127,-2.8197,-2.8193,-2.8193,-2.6123,-2.3837,-2.2396,-2.1433,-2.0277,-1.8427,-1.8518,0.0,0.0,0.0,-2.2357,-2.3576,-2.466,-2.534,-2.5293,-2.5239,-2.518,-2.5168,-2.5156,-2.4972,-2.4555,-2.4205,-2.3626,-2.2795,-2.1251,-1.9564,0.0,0.0,0.0,0.0,0.0,0.0,0.0,0.0,0.0,0.0,0.0,0.0,0.0,0.0,0.0,0.0,0.0,0.0,0.0,0.0,0.0,0.0,0.0,0.0,0.0,0.0,0.0,0.0,-1.525,-1.702,-1.7494,-1.8562,-1.8742,0.0,0.0,0.0,0.0,0.0,0.0,-2.3441,-2.3743,-2.4984,-2.7457,-2.8242,-2.9097,-3.0086,-3.0809,-3.1642,-3.2557,-3.2557,-3.3056,-3.3969,-3.3969,-3.3976,-3.3964,-3.3965,-3.3832,-3.3395,-3.0419,-2.8786,-2.8115,-2.7315,-2.6975,-2.7004,-2.7654,-2.7501,-2.7125,-2.8412,-2.8436,-2.7793,-2.7148,-2.6191,-2.5019,-2.3553,0.0,0.0,0.0,0.0,-2.7087,-2.773,-2.8391,-2.8873,-2.8864,-2.887,-2.887,-2.887,-2.8695,-2.792,-2.5777,-2.4842,-2.3653,-2.1279,-2.1396,0.0,-2.1761,-2.2639,-2.3753,-2.5027,-2.5232,-2.534,-2.5552,-2.534,-2.5156,-2.5156,-2.5132,-2.5088,-2.5076,-2.5076,-2.4822,-2.4212,-2.3355,-2.1907,-1.9802,0.0,0.0,0.0,0.0,0.0,0.0,0.0,0.0,0.0,0.0,0.0,0.0,0.0,0.0,0.0,0.0,0.0,0.0,0.0,0.0,0.0,0.0,0.0,0.0,0.0,0.0,0.0,0.0,0.0,-2.2585,-2.2448,0.0,0.0,0.0,0.0,-2.1929,-2.4148,-2.5973,-2.7077,-2.7862,-2.9171,-3.1087,-3.1308,-3.1852,-3.2794,-3.2899,-3.344,-3.4361,-3.4361,-3.487,-3.5762,-3.5762,-3.5762,-3.5772,-3.5767,-3.5305,-3.44,-3.256,-3.1772,-3.1659,-3.0859,-3.0546,-3.0546,-3.0585,-3.0586,-3.0547,-3.064,-3.0636,-3.0595,-3.0554,-2.9389,-2.7822,-2.6923,-2.7223,0.0,0.0,-2.922,-3.0545,-3.0583,-3.0648,-3.0667,-3.0662,-3.0662,-3.0662,-3.0662,-3.002,-2.9143,-2.8193,-2.7978,-2.7394,-2.5679,0.0,-2.5366,-2.5189,-2.4575,-2.4974,-2.7316,-2.6215,-2.5499,-2.6255,-2.5595,-2.507,-2.5025,-2.507,-2.5076,-2.501,-2.4999,-2.4993,-2.4936,-2.417,-2.332,-2.2424,-1.9954,0.0,0.0,0.0,0.0,0.0,0.0,0.0,0.0,0.0,0.0,0.0,0.0,0.0,0.0,0.0,0.0,0.0,0.0,0.0,0.0,0.0,0.0,0.0,0.0,0.0,0.0,0.0,0.0,-2.3255,-2.4224,0.0,-2.3787,-2.4813,-2.5561,-2.5561,-2.7452,-2.9045,-2.998,-3.0357,-3.1096,-3.2325,-3.3041,-3.3555,-3.3896,-3.4526,-3.5288,-3.6168,-3.6168,-3.6639,-3.752,-3.752,-3.7539,-3.7574,-3.7562,-3.7393,-3.7068,-3.6445,-3.4882,-3.2869,-3.2595,-3.246,-3.2402,-3.2455,-3.2455,-3.2418,-3.2458,-3.2462,-3.2377,-3.1815,-3.1211,-3.0657,-3.0342,-3.0466,-3.0824,-3.1395,-3.1995,-3.2463,-3.2465,-3.2479,-3.2479,-3.2479,-3.2031,-3.1641,-3.1641,-3.0959,-3.0224,-2.9822,-2.8909,-2.7809,-2.6551,-2.6811,-2.6935,-2.6221,-2.6294,-2.6755,-2.7616,-2.7165,-2.6842,-2.7147,-2.6384,-2.585,-2.5836,-2.5342,-2.5025,-2.4999,-2.5012,-2.4993,-2.4993,-2.4727,-2.4189,-2.3396,-2.1928,-1.9675,0.0,0.0,0.0,0.0,0.0,0.0,0.0,0.0,0.0,0.0,0.0,0.0,0.0,0.0,0.0,0.0,0.0,0.0,0.0,0.0,0.0,0.0,0.0,0.0,0.0,-2.1947,-2.3928,-2.4542,-2.6095,-2.6811,-2.6023,-2.7669,-2.876,-2.8741,-3.018,-3.1422,-3.2326,-3.2428,-3.2981,-3.4173,-3.487,-3.5369,-3.5679,-3.6327,-3.6973,-3.7533,-3.7533,-3.7856,-3.8429,-3.8427,-3.8463,-3.85,-3.8492,-3.8495,-3.8492,-3.8505,-3.7155,-3.5129,-3.5129,-3.4901,-3.4613,-3.4671,-3.4475,-3.4173,-3.4226,-3.4057,-3.3717,-3.3127,-3.2757,-3.2543,-3.2543,-3.2737,-3.3064,-3.3629,-3.4018,-3.4174,-3.3882,-3.3804,-3.3746,-3.3453,-3.2971,-3.2513,-3.2447,-3.1987,-3.1534,-3.1394,-3.0088,-2.8695,-2.7687,-2.8001,-2.8133,-2.7409,-2.7505,-2.7867,-2.8408,-2.7946,-2.7666,-2.7951,-2.721,-2.6583,-2.6279,-2.5753,-2.5283,-2.5018,-2.4999,-2.4999,-2.4999,-2.4714,-2.4315,-2.3815,-2.2379,-2.0565,-1.8326,0.0,0.0,0.0,0.0,0.0,0.0,0.0,0.0,0.0,0.0,0.0,0.0,0.0,0.0,0.0,0.0,0.0,0.0,0.0,0.0,0.0,0.0,0.0,-2.2367,-2.3233,-2.4704,-2.685,-2.8249,-2.8932,-2.8745,-3.046,-3.156,-3.1537,-3.2344,-3.3245,-3.4164,-3.4236,-3.5039,-3.68,-3.6914,-3.7345,-3.8197,-3.8336,-3.8408,-3.8435,-3.8435,-3.8488,-3.8584,-3.8573,-3.8588,-3.8574,-3.8576,-3.8576,-3.8573,-3.8575,-3.8578,-3.8578,-3.8519,-3.7974,-3.7233,-3.7233,-3.6707,-3.5986,-3.5986,-3.5421,-3.472,-3.472,-3.4174,-3.3512,-3.3512,-3.4038,-3.4642,-3.4642,-3.5246,-3.5713,-3.4856,-3.4642,-3.4447,-3.3668,-3.3453,-3.3373,-3.3172,-3.3109,-3.3054,-3.2929,-3.1681,-3.035,-2.9332,-2.9138,-2.9085,-2.8945,-2.8218,0.0,-2.9794,-2.8571,-2.7858,-2.8638,-2.801,-2.7191,-2.6318,-2.6223,-2.5863,-2.5048,-2.501,-2.501,-2.501,-2.4182,-2.3759,-2.3834,-2.1366,-2.0064,-2.0034,0.0,0.0,0.0,0.0,0.0,0.0,0.0,0.0,0.0,0.0,0.0,0.0,0.0,0.0,0.0,0.0,0.0,0.0,0.0,0.0,0.0,-2.4796,-2.6156,-2.5298,-2.7045,-2.864,-2.9235,-3.07,-3.1671,-3.1708,-3.2727,-3.3665,-3.4321,-3.5168,-3.6048,-3.6954,-3.7037,-3.7298,-3.7804,-3.7928,-3.8103,-3.8336,-3.8369,-3.8712,-3.9342,-3.9396,-3.9755,-4.0388,-4.0394,-4.039,-4.0391,-4.0398,-4.0394,-4.0388,-4.0396,-4.039,-4.0253,-3.8987,-3.8344,-3.8149,-3.8149,-3.7993,-3.7798,-3.7798,-3.7623,-3.7428,-3.7428,-3.6844,-3.6162,-3.6162,-3.5869,-3.5538,-3.5538,-3.5713,-3.583,-3.5597,-3.5538,-3.5469,-3.5145,-3.4625,-3.4148,-3.3945,-3.3411,-3.2913,-3.2775,-3.2417,-3.1821,-3.0913,-3.0267,-2.9851,-2.9654,-2.9433,-2.9421,-2.9864,-2.9526,-2.9317,-2.9547,-2.8862,-2.8048,-2.7209,-2.6565,-2.5863,-2.5048,-2.501,-2.501,-2.501,-2.4782,-2.465,-2.4682,-2.2791,-2.1502,0.0,0.0,0.0,0.0,0.0,0.0,0.0,0.0,0.0,0.0,0.0,0.0,0.0,0.0,0.0,0.0,0.0,0.0,0.0,0.0,0.0,0.0,-2.7651,-2.8993,-2.9132,-3.0087,-3.0918,-3.1282,-3.2493,-3.347,-3.3936,-3.4745,-3.5618,-3.6511,-3.7051,-3.7565,-3.8117,-3.8183,-3.8393,-3.8811,-3.8896,-3.9124,-3.949,-3.9493,-3.9767,-4.0286,-4.0326,-4.0613,-4.1105,-4.1093,-4.1107,-4.1094,-4.1096,-4.1095,-4.111,-4.111,-4.111,-4.0994,0.0,0.0,0.0,0.0,-3.85,-3.85,-3.85,-3.85,-3.85,-3.85,-3.8168,-3.774,-3.774,-3.7136,-3.6429,-3.6385,-3.6099,-3.5801,-3.5772,-3.5757,-3.5713,-3.564,-3.5243,-3.4825,-3.4655,-3.4218,-3.3819,-3.3646,-3.3353,0.0,-3.2457,-3.139,-3.0579,-3.0487,-3.0151,-2.9905,-2.994,-2.9924,-2.9888,-2.9888,-2.9472,-2.8881,-2.8066,-2.7228,0.0,0.0,0.0,-2.4799,-2.4351,-2.4332,0.0,0.0,0.0,0.0,0.0,-2.1466,0.0,0.0,-2.0157,-1.9823,0.0,0.0,0.0,0.0,0.0,0.0,0.0,0.0,0.0,0.0,0.0,0.0,0.0,0.0,0.0,0.0,-3.024,-3.1419,-3.3006,-3.264,-3.241,-3.2994,-3.3846,-3.4732,-3.5577,-3.6446,-3.7334,-3.8208,-3.8286,-3.8342,-3.8487,-3.8498,0.0,0.0,0.0,-4.022,-4.0994,-4.1,-4.1037,-4.11,-4.1094,-4.1108,-4.1094,-4.1097,-4.109,-4.1105,-4.1109,-4.111,-4.111,-4.111,-4.111,-4.111,-4.111,-4.0623,-3.9844,-3.9084,-3.8792,-3.8792,-3.8792,0.0,0.0,-3.8792,-3.8727,-3.8624,-3.8624,-3.7994,-3.7274,-3.7148,-3.6559,-3.593,-3.5764,-3.5689,-3.5608,-3.55,-3.5437,-3.5341,-3.5212,-3.5184,-3.5119,-3.4926,-3.432,-3.3847,-3.3847,-3.2368,-3.1229,-3.1282,-3.049,-2.9924,-2.9972,-2.994,-2.9888,-2.9888,-2.9888,0.0,-2.8771,-2.8048,-2.7266,-2.6413,-2.5551,-2.4629,-2.3585,-2.3517,-2.3459,-2.3333,-2.3333,-2.3702,-2.4389,-2.4211,-2.4229,-2.4332,-2.0915,-2.0496,0.0,0.0,0.0,0.0,0.0,0.0,0.0,0.0,0.0,0.0,0.0,0.0,0.0,0.0,0.0,-3.0816,-3.258,-3.3789,-3.4017,-3.5102,-3.5411,-3.4171,-3.5354,-3.6356,-3.6616,-3.7409,-3.8352,-3.9325,-3.9393,-3.9685,-4.0345,-4.044,-4.0544,-4.0743,-4.0753,-4.0831,-4.0994,-4.1046,-4.1088,-4.1094,-4.1093,0.0,-4.1111,-4.1097,-4.1096,-4.1103,-4.1091,-4.111,-4.111,-4.111,-4.111,-4.111,-4.111,-4.0994,-4.0838,-4.0662,-4.0604,-4.0604,-4.0604,-4.0604,-4.0604,-4.0604,-4.0057,-3.9399,-3.9399,-3.8695,0.0,-3.7893,-3.7735,-3.739,-3.674,-3.6523,-3.628,-3.5518,-3.5321,-3.5262,-3.5089,-3.5037,-3.5019,-3.4927,-3.4775,-3.4661,-3.4661,-3.2747,-3.1193,-3.1212,-3.0473,-2.9905,-2.9924,-2.9924,-2.9888,-2.9888,-2.9888,-2.9566,-2.8771,-2.8559,-2.8123,-2.7304,-2.6295,-2.534,-2.4482,-2.4284,-2.4182,-2.4166,-2.4166,-2.4241,-2.4389,-2.4355,-2.4355,-2.4371,-2.3488,-2.3814,0.0,0.0,0.0,0.0,0.0,0.0,0.0,0.0,0.0,0.0,0.0,-2.5957,-2.8107,0.0,-3.1149,-3.3345,-3.4497,-3.5388,-3.6231,-3.7104,-3.7143,-3.5762,-3.6737,-3.7719,-3.8249,-3.8695,-3.9345,-4.0274,-4.036,-4.0524,-4.0937,-4.0972,-4.1013,-4.1052,-4.1442,-4.1464,-4.1042,-4.1948,-4.1953,-4.1113,-4.1535,-4.1518,-4.1113,-4.1525,-4.1479,-4.113,-4.1539,-4.1481,-4.111,-4.111,-4.111,-4.1149,-4.1539,-4.1461,-4.111,-4.111,-4.111,-4.111,-4.111,-4.1064,-4.0996,-4.0996,-4.0606,-4.0148,-4.0148,-3.9503,-3.8723,-3.8626,-3.8257,-3.7791,-3.7318,-3.714,-3.6881,-3.6014,-3.577,-3.5604,-3.5059,-3.4945,-3.4945,-3.4908,-3.4908,-3.4908,-3.4908,-3.3543,-3.2312,-3.1876,-3.1099,-3.0381,-2.9945,-2.9888,-2.9888,-2.9888,-2.9888,-2.9737,-2.932,-2.8922,-2.837,-2.7551,-2.7002,-2.6475,-2.5963,-2.5843,-2.5758,-2.5633,-2.5542,-2.5485,-2.5485,-2.5368,-2.5368,-2.5485,-2.5406,-2.5504,0.0,0.0,0.0,0.0,0.0,0.0,0.0,0.0,-2.4424,-2.6814,-2.8049,-2.9438,-3.1874,-3.2426,-3.3335,-3.5899,-3.625,-3.6726,-3.8188,-3.8546,-3.8363,-3.7541,-3.8063,-3.8801,-3.9615,-3.9848,-4.0243,-4.0945,-4.1003,-4.1077,-4.1247,-4.1253,-4.1368,-4.1573,-4.2226,-4.2261,-4.1601,-4.2983,-4.2976,-4.1589,-4.2307,-4.2271,-4.1608,-4.2253,-4.2202,-4.1617,-4.2279,-4.2182,-4.1578,-4.1403,-4.1325,-4.1383,-4.187,-4.1675,-4.113,-4.1286,-4.1214,-4.1071,-4.1071,-4.098,-4.0859,-4.0859,-4.0765,-4.0655,-4.0655,-4.0146,-3.9518,-3.9349,-3.8786,-3.8163,-3.7909,-3.7775,-3.7527,-3.671,-3.6349,-3.6007,-3.5306,-3.5022,-3.4908,-3.4908,-3.4908,-3.4908,-3.4908,-3.4358,-3.3638,-3.2785,-3.197,-3.1193,-3.0476,-3.0248,-3.0135,-3.0135,-3.0002,-2.9888,-2.9888,-2.9301,-2.8597,-2.7778,-2.771,-2.7519,-2.7219,-2.7115,-2.7009,-2.6841,-2.6641,-2.6515,-2.6515,-2.6295,-2.6318,-2.6533,-2.668,-2.6532,-2.0349,-2.0191,-2.1037,-2.4133,-2.3775,-2.3902,0.0,0.0,-2.8024,-2.9846,-3.0921,-3.2085,-3.386,-3.4811,-3.5957,-3.7819,-3.8105,-3.8171,-3.8372,-3.9077,-3.9509,-3.9404,-3.946,-3.9576,-3.9696,-4.0404,-4.0906,-4.0981,-4.1007,-4.1338,-4.2104,-4.2212,-4.2572,-4.3305,-4.3471,-4.3496,-4.3411,-4.3548,-4.3513,-4.3318,-4.3415,-4.3416,-4.3319,-4.341,-4.3403,-4.3325,-4.3422,-4.3403,-4.3247,-4.2474,-4.2182,-4.2104,-4.1481,-4.1188,-4.1188,-4.1909,-4.1634,-4.0926,-4.0926,-4.0839,-4.0718,-4.0718,-4.0629,-4.0519,-4.0519,-4.0334,-4.0119,-4.0082,-3.9909,-3.9581,-3.8858,-3.8627,-3.8359,-3.7487,-3.6747,-3.6159,-3.6083,-3.5438,-3.4908,-3.4908,-3.4908,-3.4908,-3.4908,-3.4832,-3.4491,-3.3676,-3.2823,-3.2236,-3.2141,-3.1497,-3.1061,-3.1061,-3.0343,-2.9888,-2.9888,-2.9813,-2.9415,-2.8635,-2.8393,-2.797,-2.7238,-2.6859,-2.6659,-2.662,-2.6385,-2.625,-2.625,-2.6204,-2.6227,-2.6268,-2.6993,-2.7592,-2.4709,-2.4529,-2.4736,0.0,-2.7581,-2.8105,-3.0839,-3.0889,-3.1006,-3.3252,-3.3996,-3.4738,-3.646,-3.7063,-3.7724,0.0,-3.9159,-3.9322,-3.9836,-3.9789,-3.97,-3.9701,-3.9707,-3.9901,-4.0402,-4.0792,-4.1026,-4.1056,-4.1529,-4.1974,-4.2341,-4.2873,-4.3314,-4.3652,-4.4134,-4.4142,-4.3645,-4.4626,-4.461,-4.361,-4.4098,-4.4091,-4.3617,-4.413,-4.4364,-4.4325,-4.3819,-4.3598,-4.3578,-4.3116,-4.2944,-4.2955,-4.2994,-4.271,-4.2197,-4.1673,-4.1518,-4.1587,-4.1505,-4.1397,-4.1273,-4.1243,-4.0825,-4.0307,-4.0271,-4.0215,-4.0118,-4.0098,-4.0038,-3.992,-3.9537,-3.9421,-3.9191,-3.8338,-3.7883,-3.739,-3.6405,-3.5912,-3.5514,-3.5003,-3.4908,-3.4908,-3.4908,-3.4908,-3.4794,-3.4453,-3.3695,-3.2975,-3.2482,-3.2122,-3.1724,-3.125,-3.0871,-3.0454,-2.9926,-2.9888,-2.9756,-2.9415,-2.9328,-2.9125,-2.8785,-2.8502,-2.8351,-2.8351,-2.8018,-2.7835,-2.7835,-2.7671,-2.7671,-2.7835,-2.8182,-2.8537,-2.7179,0.0,0.0,-2.8732,-3.0127,-3.1443,-3.2389,-3.2661,-3.3317,-3.547,-3.5859,-3.6292,-3.7799,-3.8273,-3.8721,-3.9551,-3.9928,-4.0292,-4.0909,-4.0279,-3.9831,-4.0064,-3.9875,-4.0076,-4.0935,-4.1037,-4.1159,-4.1449,-4.2038,-4.26,-4.3066,-4.3691,-4.4139,-4.4379,-4.4946,-4.4968,-4.4314,-4.5573,-4.5572,-4.4325,-4.4968,-4.4929,-4.4345,-4.4968,-4.526,-4.5222,-4.453,-4.4222,-4.4195,-4.3809,-4.3637,-4.3676,-4.3916,-4.3627,-4.2932,-4.1828,-4.1652,-4.1879,-4.1575,-4.1366,-4.1257,-4.1185,-4.073,-4.0157,-4.0098,-4.0096,-4.0057,-4.0017,-3.9975,-3.9954,-3.9911,-3.9889,-3.9759,-3.9172,-3.885,-3.8378,-3.7144,-3.6519,-3.6007,-3.5382,-3.5059,-3.4908,-3.4908,-3.4908,-3.4908,-3.4908,-3.4396,-3.3809,-3.3164,-3.2899,-3.2444,-3.1629,-3.1535,-3.1193,-3.0324,-3.0248,-3.0154,-2.9907,-2.9888,-2.9872,-2.9822,-2.9626,-2.9494,-2.9435,-2.9075,-2.8887,-2.8887,-2.8687,-2.8712,-2.8887,-2.8887,-2.909,0.0,0.0,-2.8082,-2.8129,-3.0303,-3.2737,-3.3882,-3.433,-3.4778,-3.5713,-3.5908,-3.6181,-3.7077,-3.7935,-3.8753,-3.9571,-4.0452,-4.1042,-4.1013,-4.0315,-4.0116,-4.0955,-4.0311,-4.0141,-4.1011,-4.1104,-4.1449,-4.2302,-4.2381,-4.3105,-4.4739,-4.4855,-4.5258,-4.6093,-4.6147,-4.6147,-4.6125,-4.6176,-4.6176,-4.6118,-4.6157,-4.6157,-4.6118,-4.6157,-4.6157,-4.6157,-4.593,-4.5828,-4.5759,-4.4708,-4.4272,-4.4195,-4.337,-4.3027,-4.2973,-4.2808,-4.2218,-4.1411,-4.0624,-4.0271,-4.0136,-4.0155,-4.0136,-4.0098,-4.0117,-4.0057,-3.9996,-3.9996,-3.9954,-3.9911,-3.9889,-3.9889,-3.9889,-3.9851,-3.9267,-3.87,-3.8643,-3.7334,-3.6178,-3.6159,-3.5476,-3.4908,-3.4908,-3.4908,-3.4908,-3.4908,-3.4889,-3.4851,-3.4832,-3.4131,-3.3335,-3.2463,-3.2368,-3.2046,-3.1231,-3.1174,-3.0814,-2.9945,-2.9888,-2.9822,-2.9626,-2.9415,-2.9228,-2.9026,-2.8743,-2.8612,-2.8612,-2.8612,-2.8612,-2.8612,-2.8612,-2.9029,0.0,0.0,-3.1198,-3.1963,-3.3465,-3.4869,-3.5235,-3.5848,-3.6403,-3.6707,-3.6309,-3.6337,-3.78,-3.7825,-3.8107,-3.9536,-4.0031,-4.043,-4.0991,-4.0347,-3.9917,-4.0194,-3.998,-3.9922,-4.0213,-4.0759,-4.146,-4.2323,-4.2947,-4.3743,-4.4832,-4.5457,-4.5894,-4.6189,-4.6203,-4.6196,-4.6196,-4.6196,-4.6196,-4.6196,-4.6196,-4.6181,-4.6138,-4.6027,-4.5988,-4.5925,-4.5764,-4.5708,-4.5655,-4.5178,-4.4956,-4.4919,-4.4498,-4.4321,-4.4243,-4.3621,-4.3197,-4.2933,-4.2694,-4.2597,-4.2476,-4.1882,-4.1328,-4.0777,-4.0165,-3.9954,-3.9933,-3.9933,-3.9911,-3.9889,-3.9889,-3.9889,-3.9889,-3.9889,-3.9702,-3.9342,-3.8812,-3.8264,-3.7675,-3.7106,-3.6329,-3.5761,-3.5761,-3.5287,-3.4908,-3.4908,-3.4908,-3.4908,-3.4908,-3.4661,-3.4188,-3.3354,-3.3259,-3.2918,-3.2065,-3.2008,-3.1876,-3.1591,-3.143,-3.1092,-3.049,-3.0071,-2.9586,-2.9021,-2.9271,-2.9391,-2.9391,-2.9934,-3.0188,-3.0188,-3.0188,-3.0333,-3.1776,-3.4121,-3.5605,-3.5702,-3.6445,-3.7031,-3.664,-3.6873,-3.7026,-3.6423,-3.5611,-3.5357,-3.6472,-3.6225,-3.6504,-3.8578,-3.9153,-3.9745,-4.0937,-4.0351,-4.0037,-4.0656,-4.0441,-4.0496,-4.1097,-4.1654,-4.2222,-4.2795,-4.3635,-4.4481,-4.5323,-4.5894,-4.6195,-4.6196,-4.6196,-4.6196,-4.6196,-4.6196,-4.6189,-4.6154,-4.6102,-4.6027,-4.5988,-4.5859,-4.5764,-4.5708,-4.5536,-4.5468,-4.5432,-4.5226,-4.5142,-4.5142,-4.5019,-4.4967,-4.4887,-4.435,-4.4137,-4.4042,-4.3491,-4.3304,-4.3152,-4.231,-4.1702,-4.1092,-4.0176,-3.9889,-3.9889,-3.9889,-3.9889,-3.9889,-3.9889,-3.9889,-3.9889,-3.9889,-3.9889,-3.9778,-3.9248,-3.8888,-3.8527,-3.7959,-3.7201,-3.6538,-3.6234,-3.5476,-3.4908,-3.4908,-3.4908,-3.4908,-3.4908,-3.4908,-3.4699,-3.4188,-3.4131,-3.379,-3.2937,-3.2861,-3.2693,-3.2317,-3.2183,-3.178,-3.1073,-3.0725,-3.032,-2.9866,-3.009,-3.0285,-3.037,-3.0785,-3.0985,-3.0985,-3.0985,-3.1148,-3.9244,-4.1103,-4.0677,-3.8935,-3.8902,-3.9014,-3.794,-3.7395,-3.6653,-3.4975,-3.3903,-3.3261,-3.326,0.0,-3.4199,-3.6804,-3.7949,-3.912,-4.0917,-4.0447,-4.0557,0.0,0.0,0.0,0.0,0.0,-4.366,-4.366,-4.4421,-4.5284,-4.6144,-4.6196,-4.6196,-4.6196,-4.6196,-4.6196,-4.6196,-4.6196,-4.6154,-4.6084,-4.5891,-4.5796,-4.5783,-4.565,-4.5587,-4.5552,-4.5304,-4.5186,-4.5166,-4.4976,-4.4895,-4.4895,-4.4895,-4.4895,-4.4895,-4.4895,-4.4895,-4.4668,-4.3076,-4.2545,-4.2412,-4.1598,-4.1332,-4.1181,-4.0309,-3.9984,-3.9965,-3.9965,-3.9927,-3.9889,-3.9889,-3.9889,-3.9889,-3.9889,-3.9889,-3.9889,-3.9889,-3.9304,-3.8755,-3.8755,-3.8054,-3.7201,-3.6386,-3.5571,-3.5003,-3.4965,-3.4965,-3.4946,-3.4908,-3.4908,-3.4908,-3.4908,-3.4908,-3.4586,-3.3828,-3.3752,-3.3318,-3.2292,-3.2214,-3.1968,-3.1403,-3.1378,-3.1384,-3.1415,-3.119,-3.1227,-3.147,-3.1263,-3.1166,-3.1139,-3.1139,-3.1537,-3.9907,-4.109,-4.0686,-3.8931,-3.8288,-3.7986,-3.7693,-3.6895,-3.5757,-3.4081,-3.251,-3.1463,-3.1464,-3.1991,0.0,-3.5831,-3.7521,0.0,-4.1666,-4.1793,0.0,-4.3167,0.0,-4.3122,-4.3565,-4.4189,-4.4578,-4.4578,-4.4773,-4.5274,-4.6157,-4.6196,-4.6196,-4.6196,-4.6196,-4.6196,-4.6196,-4.6146,-4.6047,-4.5879,-4.5822,-4.5728,-4.5574,-4.5398,-4.5304,-4.5301,-4.5068,-4.4976,-4.4976,-4.4919,-4.4895,-4.4895,-4.4895,-4.4895,-4.4895,-4.4895,-4.4895,-4.4838,-4.4402,-4.427,-4.4137,-4.3322,-4.3057,-4.2905,-4.2033,-4.1351,-4.0877,-4.0877,-4.0382,-3.9889,-3.9889,-3.9889,-3.9889,-3.9889,-3.9889,-3.9889,-3.9889,-3.974,-3.9589,-3.9589,-3.8925,-3.8092,-3.7239,-3.6898,-3.6557,-3.595,-3.5874,-3.5628,-3.4984,-3.4908,-3.4908,-3.4908,-3.4908,-3.4813,-3.4605,-3.4469,-3.4252,-3.3982,-3.3769,-3.3239,-3.2309,-3.2447,-3.2194,-3.1415,-3.2127,-3.2519,-3.2609,-3.3124,-3.3269,-3.3076,-3.3076,-3.3095,-4.0155,-4.11,-4.0863,-3.9883,-3.9396,-3.8597,-3.6571,-3.5612,-3.4499,-3.2179,-3.0612,0.0,-2.9658,-3.0064,0.0,0.0,0.0,0.0,-4.1354,-4.2078,-4.2767,0.0,-4.4169,0.0,-4.4695,-4.5183,-4.5475,-4.5475,-4.5475,-4.567,-4.6176,-4.6162,-4.6162,-4.6196,-4.6146,-4.6102,-4.6102,-4.6056,-4.5933,-4.5756,-4.5669,-4.5524,-4.5362,-4.5161,-4.5071,-4.5061,-4.4943,-4.4895,-4.4895,-4.4895,-4.4895,-4.4895,-4.4895,-4.4895,-4.4895,-4.4895,-4.4895,-4.4895,-4.4895,-4.4895,-4.4762,-4.3966,-4.3701,-4.3549,-4.2659,-4.209,-4.1654,-4.1313,-4.0858,-4.0385,-3.9984,-3.9889,-3.9889,-3.9889,-3.9889,-3.9889,-3.9889,-3.9889,-3.9889,-3.9889,-3.9248,-3.8548,-3.8035,-3.7637,-3.7239,-3.6784,-3.6424,-3.6007,-3.5533,-3.5135,-3.4908,-3.4908,-3.4908,-3.4908,-3.4908,-3.4811,-3.4628,-3.445,-3.4386,-3.3993,-3.3154,-3.3389,-3.3287,-3.2823,-3.3173,-3.3414,-3.3533,-3.3751,-3.378,-3.3615,-3.3615,-3.3549,-4.0142,-4.1097,-4.1097,-4.1091,-4.074,-3.924,-3.4773,-3.3662,-3.2771,-2.9903,0.0,-2.787,-2.7878,-2.8057,-2.9304,-3.2686,0.0,-3.7016,-4.073,-4.1855,-4.3,-4.4851,-4.5066,-4.5358,-4.6137,-4.6196,-4.6189,-4.6189,-4.6189,-4.6189,-4.6189,-4.6111,-4.6102,-4.6162,-4.6066,-4.5986,-4.5956,-4.5898,-4.5789,-4.5623,-4.5456,-4.53,-4.5148,-4.4967,-4.4895,-4.4895,-4.4895,-4.4895,-4.4895,-4.4895,-4.4895,-4.4895,-4.4895,-4.4895,-4.4895,-4.4895,-4.4895,-4.4895,-4.4895,-4.4895,-4.4781,-4.4099,-4.3853,-4.372,-4.2962,-4.2659,-4.2412,-4.1598,-4.1294,-4.101,-4.0138,-3.9889,-3.9889,-3.9889,-3.9889,-3.9889,-3.9889,-3.9889,-3.9889,-3.9889,-3.9342,-3.885,-3.885,-3.8224,-3.7694,-3.758,-3.6973,-3.6443,-3.6215,-3.5438,-3.4908,-3.4908,-3.4908,-3.4908,-3.4908,-3.4889,-3.4691,-3.4269,-3.4473,-3.4381,-3.3868,-3.4148,-3.4363,-3.4539,-3.4124,-3.3998,-3.4197,-3.3726,-3.3481,-3.3452,-3.3452,-3.3422,-4.0156,-4.1091,-4.1091,-4.1097,-3.8928,-3.5844,-3.221,-3.0833,0.0,0.0,-2.7199,-2.6128,-2.6135,-2.7262,-2.9113,-3.1878,0.0,0.0,0.0,0.0,-4.3215,0.0,0.0,-4.602,-4.6196,-4.6146,-4.613,-4.613,-4.6075,-4.6066,-4.6102,-4.6047,-4.6017,-4.6027,-4.6007,-4.5922,-4.5761,-4.5747,-4.5594,-4.53,-4.5237,-4.5148,-4.4943,-4.4938,-4.4895,-4.4895,-4.4895,-4.4895,-4.4895,-4.4895,-4.4895,-4.4895,-4.4895,-4.4895,-4.4895,-4.4895,-4.4895,-4.4895,-4.4895,-4.4895,-4.4876,-4.4743,-4.4687,-4.4668,-4.4516,-4.4004,-4.3303,-4.2431,-4.1711,-4.101,-4.0138,-3.9889,-3.9889,-3.9889,-3.9889,-3.9889,-3.9889,-3.9889,-3.9889,-3.9889,-3.9797,-3.9702,-3.9702,-3.957,-3.9248,-3.8565,-3.8378,-3.7769,-3.6367,-3.5438,-3.4908,-3.4908,-3.4908,-3.4908,-3.4908,-3.4751,-3.4604,-3.4539,-3.4561,-3.4473,-3.4148,-3.4545,-3.4609,-3.4269,-3.4404,-3.4381,-3.4197,-3.4099,-3.3947,-3.3726,-3.3726,-3.3587,-4.0643,-4.1091,-4.0877,-3.998,-3.6462,-3.2653,-3.0419,0.0,0.0,0.0,-2.5212,-2.4491,-2.4939,0.0,0.0,0.0,0.0,0.0,0.0,0.0,0.0,0.0,0.0,0.0,0.0,-4.6084,-4.6056,-4.6056,-4.5986,-4.5986,-4.6037,-4.6017,-4.5975,-4.5905,-4.5873,-4.5775,-4.5642,-4.5577,-4.5438,-4.5192,-4.5192,-4.5084,-4.4895,-4.4895,-4.4895,-4.4895,-4.4895,-4.4895,-4.4895,-4.4895,-4.4895,-4.4895,-4.4895,-4.4895,-4.4895,-4.4895,-4.4895,-4.4895,-4.4895,-4.4895,-4.4895,-4.4895,-4.4895,-4.4895,-4.4895,-4.463,-4.4156,-4.3322,-4.2469,-4.1635,-4.0802,-4.023,-3.9889,-3.9889,-3.9889,-3.9889,-3.9889,-3.9889,-3.9889,-3.9889,-3.9889,-3.9889,-3.9889,-3.9889,-3.9778,-3.938,-3.8963,-3.8416,-3.7599,-3.6727,-3.5874,-3.4984,-3.4908,-3.4908,-3.4908,-3.4811,-3.471,-3.4623,-3.4689,-3.4586,-3.4221,-3.4542,-3.4564,-3.4197,-3.4197,-3.4124,-3.3998,-3.3842,-3.3726,-3.3605,-3.3605,-3.352,-4.0416,-4.0805,-4.0779,-3.9403,-3.5184,-3.0923,-2.9284,-2.7245,0.0,0.0,-2.3556,-2.3147,-2.4199,0.0,0.0,0.0,0.0,0.0,0.0,0.0,0.0,0.0,0.0,0.0,-4.6093,-4.6017,-4.5986,-4.5986,-4.5886,-4.5873,-4.5964,-4.5964,-4.5905,-4.5752,-4.5723,-4.5626,-4.551,-4.5419,-4.5281,-4.5148,-4.5148,-4.5038,-4.4895,-4.4895,-4.4895,-4.4895,-4.4895,-4.4895,-4.4895,-4.4895,-4.4895,-4.4895,-4.4895,-4.4895,-4.4895,-4.4895,-4.4895,-4.4895,-4.4895,-4.4895,-4.4895,-4.4895,-4.4895,-4.4895,-4.4895,-4.4895,-4.4724,-4.3929,-4.3076,-4.2223,-4.1408,-4.0555,-3.9889,-3.9889,-3.9889,-3.9889,-3.9889,-3.9889,-3.9889,-3.9889,-3.9889,-3.9889,-3.9889,-3.9889,-3.9889,-3.9889,-3.9361,-3.8888,-3.8738,-3.8092,-3.7087,-3.559,-3.5287,-3.5173,-3.5173,-3.5003,-3.4812,-3.4668,-3.4811,-3.4711,-3.4293,-3.4495,-3.445,-3.4124,-3.3895,-3.378,-3.3726,-3.3491,-3.3393,-3.3393,-3.3382,-3.3382,-3.8213,-3.9859,-4.1069,-4.0901,-3.6975,-3.2305,-2.9026,0.0,0.0,-2.4588,-2.3088,-2.2426,-2.4082,-2.4471,0.0,0.0,0.0,0.0,0.0,0.0,0.0,0.0,0.0,0.0,-4.6093,-4.5986,-4.5917,-4.5917,-4.5718,-4.5692,-4.5814,-4.5827,-4.5752,-4.5629,-4.5613,-4.5493,-4.5256,-4.5235,-4.5106,-4.4919,-4.4919,-4.4919,-4.4895,-4.4895,-4.4895,-4.4895,-4.4895,-4.4895,-4.4895,-4.4895,-4.4895,-4.4895,-4.4895,-4.4895,-4.4895,-4.4895,-4.4895,-4.4895,-4.4895,-4.4895,-4.4895,-4.4895,-4.4895,-4.4895,-4.4895,-4.4895,-4.4724,-4.3929,-4.3076,-4.2223,-4.1408,-4.0555,-3.9889,-3.9889,-3.9889,-3.9889,-3.9889,-3.9889,-3.9889,-3.9889,-3.9889,-3.9889,-3.9889,-3.9889,-3.9889,-3.9889,-3.9854,-3.9532,-3.8774,-3.8643,-3.8205,-3.7258,-3.6519,-3.6083,-3.6083,-3.5363,-3.4889,-3.487,-3.4889,-3.4811,-3.4561,-3.4602,-3.4363,-3.386,-3.3815,-3.3671,-3.3422,-3.3393,-3.3393,-3.3393,-3.3322,-3.3292,-3.6503,-3.8136,-3.9719,-4.0726,-3.7916,-3.3998,-3.0555,0.0,-2.5294,-2.3906,-2.2231,-2.1552,-2.3302,-2.3614,-2.4296,0.0,-2.6985,-2.8466,-3.207,0.0,0.0,0.0,0.0,0.0,0.0,-4.5929,-4.5854,-4.5854,-4.5692,-4.5629,-4.5677,-4.5596,-4.5528,-4.5475,-4.54,-4.532,-4.5192,-4.508,-4.4967,-4.4895,-4.4895,-4.4895,-4.4895,-4.4895,-4.4895,-4.4895,-4.4895,-4.4895,-4.4895,-4.4895,-4.4895,-4.4895,-4.4895,-4.4895,-4.4895,-4.4895,-4.4895,-4.4895,-4.4895,-4.4895,-4.4895,-4.4895,-4.4895,-4.4895,-4.4895,-4.4895,-4.4838,-4.4516,-4.3815,-4.3,-4.2147,-4.0934,-3.9889,-3.9889,-3.9889,-3.9889,-3.9889,-3.9889,-3.9889,-3.9889,-3.9889,-3.9889,-3.9889,-3.9889,-3.9889,-3.9889,-3.9889,-3.9797,-3.9456,-3.9418,-3.9286,-3.8944,-3.7713,-3.6917,-3.6917,-3.6159,-3.5685,-3.5685,-3.5192,-3.4732,-3.4363,-3.4517,-3.4269,-3.3577,-3.3726,-3.3671,-3.3393,-3.3393,-3.3382,-3.334,-3.3761,-3.3947,-3.452,-3.6162,-3.7879,-3.9074,-3.6856,-3.3492,0.0,-2.723,-2.4884,-2.34,-2.1919,-2.1338,-2.2835,-2.3302,-2.3965,0.0,-2.5894,-2.7043,-2.9868,0.0,0.0,0.0,0.0,-4.3319,-4.5093,-4.5589,-4.58,-4.58,-4.5645,-4.5545,-4.5545,-4.5362,-4.5281,-4.5341,-4.5237,-4.517,-4.5125,-4.4967,-4.4895,-4.4895,-4.4895,-4.4895,-4.4895,-4.4895,-4.4895,-4.4895,-4.4895,-4.4895,-4.4895,-4.4895,-4.4895,-4.4895,-4.4895,-4.4895,-4.4895,-4.4895,-4.4895,-4.4895,-4.4895,-4.4895,-4.4895,-4.4895,-4.4895,-4.4895,-4.4895,-4.4895,-4.4895,-4.4895,-4.4137,-4.3114,-4.228,-4.0991,-3.9889,-3.9889,-3.9889,-3.9889,-3.9889,-3.9889,-3.9889,-3.9889,-3.9889,-3.9889,-3.9889,-3.9889,-3.9889,-3.9889,-3.9889,-3.9889,-3.9889,-3.9889,-3.9889,-3.9889,-3.885,-3.8035,-3.7788,-3.703,-3.6538,-3.6538,-3.5969,-3.5407,-3.4928,-3.5091,-3.4853,-3.4099,-3.4287,-3.4287,-3.4117,-3.4069,-3.4039,-3.3996,-3.4474,-3.4789,-3.2103,-3.4042,-3.5725,-3.5757,-3.3283,-2.9955,0.0,-2.5065,-2.416,-2.3283,-2.2406,-2.2055,-2.2932,-2.379,-2.4666,-2.5563,-2.6361,-2.8095,-3.1588,-3.3517,0.0,0.0,0.0,-4.1535,-4.3354,-4.4911,-4.58,-4.58,-4.5545,-4.54,-4.54,-4.5087,-4.501,-4.5192,-4.5192,-4.5084,-4.4914,-4.4895,-4.4895,-4.4895,-4.4895,-4.4895,-4.4895,-4.4895,-4.4895,-4.4895,-4.4895,-4.4895,-4.4895,-4.4895,-4.4895,-4.4895,-4.4895,-4.4895,-4.4895,-4.4895,-4.4895,-4.4895,-4.4895,-4.4895,-4.4895,-4.4895,-4.4895,-4.4895,-4.4895,-4.4895,-4.4895,-4.4895,-4.3701,-4.2242,-4.1427,-4.0574,-3.9889,-3.9889,-3.9889,-3.9889,-3.9889,-3.9889,-3.9889,-3.9889,-3.9889,-3.9889,-3.9889,-3.9889,-3.9889,-3.9889,-3.9889,-3.9889,-3.9889,-3.9889,-3.9889,-3.9889,-3.987,-3.9551,-3.8736,-3.7883,-3.739,-3.739,-3.7371,-3.7122,-3.6601,-3.6575,-3.6325,-3.5783,-3.5783,-3.5783,-3.5783,-3.5652,-3.557,-3.557,-3.5442,-3.5753,-3.066,-3.3391,-3.5706,-3.5706,-3.1462,-2.7019,-2.595,-2.4241,-2.3108,-2.3848,-2.2815,-2.225,-2.3712,-2.4218,-2.5056,-2.7082,-2.7628,0.0,0.0,0.0,0.0,-3.8512,-4.2063,-4.4497,-4.5015,-4.5518,-4.58,-4.58,-4.5545,-4.54,-4.54,-4.5087,-4.4919,-4.4991,-4.4991,-4.4967,-4.4895,-4.4895,-4.4895,-4.4895,-4.4895,-4.4895,-4.4895,-4.4895,-4.4895,-4.4895,-4.4895,-4.4895,-4.4895,-4.4895,-4.4895,-4.4895,-4.4895,-4.4895,-4.4895,-4.4895,-4.4895,-4.4895,-4.4895,-4.4895,-4.4895,-4.4895,-4.4895,-4.4895,-4.4895,-4.4895,-4.4895,-4.4895,-4.4118,-4.3095,-4.2242,-4.1427,-4.065,-4.0022,-3.9889,-3.9889,-3.9889,-3.9889,-3.9889,-3.9889,-3.9889,-3.9889,-3.9889,-3.9889,-3.9889,-3.9889,-3.9889,-3.9889,-3.9889,-3.9889,-3.9889,-3.9889,-3.9889,-3.9816,-3.9551,-3.8755,-3.8281,-3.8281,-3.7732,-3.7246,-3.6873,-3.6868,-3.6612,-3.6095,-3.5957,-3.5872,-3.567,-3.5573,-3.5777,-3.6213,-3.6128,-3.6488,0.0,-3.023,-3.1872,-3.1916,-2.83,-2.4719,-2.473,-2.3326,-2.2309,-2.3224,-2.2815,-2.262,-2.3712,-2.4452,-2.5407,-2.7004,-2.7511,0.0,0.0,0.0,0.0,-3.8935,0.0,-4.4931,-4.4866,-4.5432,-4.58,-4.58,-4.5545,-4.54,-4.54,-4.5087,-4.4895,-4.4895,-4.4895,-4.4895,-4.4895,-4.4895,-4.4895,-4.4895,-4.4895,-4.4895,-4.4895,-4.4895,-4.4895,-4.4895,-4.4895,-4.4895,0.0,-4.4895,-4.4895,-4.4895,-4.4895,-4.4895,-4.4895,-4.4895,-4.4895,-4.4895,-4.4895,-4.4895,-4.4895,-4.4895,-4.4895,-4.4895,-4.4895,-4.4895,-4.4895,-4.4895,-4.4326,-4.3587,-4.3038,-4.2052,-4.1067,-4.0536,-4.0135,-3.9889,-3.9889,-3.9889,-3.9889,-3.9889,-3.9889,-3.9889,-3.9889,-3.9889,-3.9889,-3.9889,-3.9889,-3.9889,-3.9889,-3.9889,-3.9889,-3.9889,-3.9889,-3.9889,-3.9889,-3.9437,-3.9153,-3.9153,-3.8641,-3.8169,-3.7766,-3.7736,-3.7477,-3.6882,-3.6789,-3.6649,-3.6474,-3.6355,-3.6538,-3.6898,-3.6881,-3.7113,0.0,-2.5337,-2.5483,-2.535,-2.4218,-2.3095,-2.3052,-2.2384,0.0,-2.1883,-2.2543,-2.3147,-2.3263,-2.4608,-2.5757,-2.5933,-2.6654,0.0,0.0,-3.3271,0.0,0.0,-4.2548,-4.355,-4.3479,-4.4891,-4.58,-4.58,-4.5545,-4.54,-4.54,-4.5087,-4.4895,-4.4895,-4.4895,-4.4895,-4.4895,-4.4895,-4.4895,-4.4895,-4.4895,-4.4895,-4.4895,-4.4895,-4.4895,-4.4895,-4.4895,-4.4895,-4.4895,-4.4895,-4.4895,-4.4895,-4.4895,-4.4895,-4.4895,-4.4895,-4.4895,-4.4895,-4.4895,-4.4895,-4.4895,-4.4895,-4.4895,-4.4895,-4.4895,-4.4895,-4.4895,-4.4895,-4.4364,-4.3777,-4.3701,-4.2545,-4.1351,-4.1237,-4.0593,-3.9965,-3.9908,-3.9889,-3.9889,-3.9889,-3.9889,-3.9889,-3.9889,-3.9889,-3.9889,-3.9889,-3.9889,-3.9889,-3.9889,-3.9889,-3.9889,-3.9889,-3.9889,-3.9889,-3.9889,-3.9889,-3.9889,-3.9889,-3.9889,-3.9628,-3.9063,-3.9008,-3.8693,-3.8052,-3.7984,-3.7933,-3.7864,-3.7757,-3.7685,-3.7577,-3.7577,-3.7577,-2.1231,0.0,-2.5021,-2.2387,-2.241,-2.2976,0.0,-2.2087,-2.1997,0.0,0.0,-2.3517,-2.4842,-2.5426,-2.6342,-2.829,0.0,0.0,-3.2409,0.0,0.0,-4.337,-4.4608,-4.5233,-4.52,-4.5568,-4.58,-4.58,-4.5545,-4.54,-4.54,-4.5087,-4.4895,-4.4895,-4.4895,-4.4895,-4.4895,-4.4895,-4.4895,-4.4895,-4.4895,-4.4895,-4.4895,-4.4895,-4.4895,-4.4895,-4.4895,-4.4895,-4.4895,-4.4895,-4.4895,-4.4895,-4.4895,-4.4895,-4.4895,-4.4895,-4.4895,-4.4895,-4.4895,-4.4895,-4.4895,-4.4895,-4.4895,-4.4895,-4.4895,-4.4895,-4.4895,-4.4895,-4.4762,-4.4478,-4.3853,-4.3417,-4.2791,-4.1503,-4.1048,-4.0726,-4.0022,-3.9889,-3.9889,-3.9889,-3.9889,-3.9889,-3.9889,-3.9889,-3.9889,-3.9889,-3.9889,-3.9889,-3.9889,-3.9889,-3.9889,-3.9889,-3.9889,-3.9889,-3.9889,-3.9889,-3.9889,-3.9889,-3.9889,-3.9739,-3.9408,-3.9082,-3.8741,-3.8396,-3.7966,-3.7757,-3.7667,-3.7649,-3.7613,-3.7577,-3.7577,-3.7577,-2.0127,-2.2431,-2.4204,-2.3147,-2.2789,-2.2601,-2.2266,0.0,0.0,0.0,0.0,0.0,-2.4861,0.0,0.0,0.0,-2.9941,0.0,0.0,0.0,-4.2311,-4.4886,-4.5557,-4.58,-4.58,-4.58,-4.58,-4.58,-4.5545,-4.54,-4.54,-4.5087,-4.4895,-4.4895,-4.4895,-4.4895,-4.4895,-4.4895,-4.4895,-4.4895,-4.4895,-4.4895,-4.4895,-4.4895,-4.4895,-4.4895,-4.4895,-4.4895,-4.4895,-4.4895,-4.4895,-4.4895,-4.4895,-4.4895,-4.4895,-4.4895,-4.4895,-4.4895,-4.4895,-4.4895,-4.4895,-4.4895,-4.4895,-4.4895,-4.4895,-4.4895,-4.4895,-4.4895,-4.4895,-4.48,-4.4364,-4.3985,-4.3379,-4.2071,-4.1484,-4.0972,-4.01,-3.9889,-3.9889,-3.9889,-3.9889,-3.9889,-3.9889,-3.9889,-3.9889,-3.9889,-3.9889,-3.9889,-3.9889,-3.9889,-3.9889,-3.9889,-3.9889,-3.9889,-3.9889,-3.9889,-3.9889,-3.9889,-3.9781,-3.9556,-3.9261,-3.8886,-3.8517,-3.8135,-3.781,-3.7649,-3.7577,-3.7577,-3.7577,-3.7577,-3.7577,-3.7577,-1.9977,-2.1722,-2.3432,-2.5251,-2.4062,-2.2438,-2.2364,0.0,0.0,0.0,0.0,0.0,0.0,0.0,0.0,0.0,0.0,0.0,-3.918,-4.1153,-4.2963,-4.5583,-4.5822,-4.58,-4.58,-4.58,-4.58,-4.5766,-4.5545,-4.54,-4.5361,-4.5065,-4.4895,-4.4895,-4.4895,-4.4895,-4.4895,-4.4895,-4.4895,-4.4895,-4.4895,-4.4895,-4.4895,-4.4895,-4.4895,-4.4895,-4.4895,-4.4895,-4.4895,-4.4895,-4.4895,-4.4895,-4.4895,-4.4895,-4.4895,-4.4895,-4.4895,-4.4895,-4.4895,-4.4895,-4.4895,-4.4895,-4.4895,-4.4895,-4.4895,-4.4895,-4.4895,-4.4895,-4.4895,-4.4895,-4.4895,-4.4308,-4.3512,-4.2773,-4.1977,-4.1162,-4.0268,-4.0097,-4.0097,-4.0097,-4.0097,-4.0135,-4.0249,-4.0173,-4.0097,-4.0097,-3.9984,-3.9889,-3.9889,-3.9889,-3.9889,-3.9889,-3.9889,-3.9889,-3.9889,-3.9848,-3.9804,-3.9804,-3.9647,-3.9338,-3.8868,-3.8566,-3.8168,-3.7703,-3.7613,-3.7577,-3.7577,-3.7577,-3.7577,-3.7577,-3.7577,-3.7577,-1.9642,-2.1722,-2.3436,-2.5258,-2.4662,-2.3513,0.0,0.0,0.0,0.0,0.0,0.0,0.0,0.0,0.0,0.0,0.0,-3.6513,0.0,-4.1872,-4.2937,-4.5504,-4.5814,-4.58,-4.58,-4.58,-4.5752,-4.5645,-4.5493,-4.5341,-4.5235,-4.5014,-4.4895,-4.4895,-4.4895,-4.4895,-4.4895,-4.4895,-4.4895,-4.4895,-4.4895,-4.4895,-4.4895,-4.4895,-4.4895,-4.4895,-4.4895,-4.4895,-4.4895,-4.4895,-4.4895,-4.4895,-4.4895,-4.4895,-4.4895,-4.4895,-4.4895,-4.4895,-4.4895,-4.4895,-4.4895,-4.4895,-4.4895,-4.4895,-4.4895,-4.4895,-4.4895,-4.4895,-4.4895,-4.4895,-4.4895,-4.4308,-4.3663,-4.3531,-4.2848,-4.1996,-4.1181,-4.101,-4.101,-4.101,-4.101,-4.1219,-4.1901,-4.1465,-4.101,-4.101,-4.0385,-3.9889,-3.9889,-3.9889,-3.9889,-3.9889,-3.9889,-3.9889,-3.9889,-3.9585,-3.9377,-3.9377,-3.958,-3.9364,-3.867,-3.8117,-3.7774,-3.7613,-3.7631,-3.7577,-3.7577,-3.7577,-3.7577,-3.7577,-3.7577,-3.7577,-1.9624,-2.2466,-2.4505,-2.468,-2.4763,-2.4743,0.0,0.0,0.0,0.0,0.0,0.0,0.0,0.0,-3.0451,-3.347,0.0,-3.9323,-4.1757,-4.284,-4.4014,-4.5661,-4.5827,-4.58,-4.58,-4.58,-4.5737,-4.5613,-4.5475,-4.5341,-4.5213,-4.4991,-4.4895,-4.4895,-4.4895,-4.4895,-4.4895,-4.4895,-4.4895,-4.4895,-4.4895,-4.4895,-4.4895,-4.4895,-4.4895,-4.4895,-4.4895,-4.4895,-4.4895,-4.4895,-4.4895,-4.4895,-4.4895,-4.4895,-4.4895,-4.4895,-4.4895,-4.4895,-4.4895,-4.4895,-4.4895,-4.4895,-4.4895,-4.4895,-4.4895,-4.4895,-4.4895,-4.4895,-4.4895,-4.4895,-4.4895,-4.463,-4.4232,-4.3796,-4.3398,-4.2867,-4.2033,-4.1863,-4.1863,-4.1863,-4.1863,-4.1977,-4.2337,-4.209,-4.1711,-4.1275,-4.0858,-4.0442,-3.9946,-3.9889,-3.9889,-3.9889,-3.9717,-3.9585,-3.9585,-3.9249,-3.8962,-3.8773,-3.8849,-3.8663,-3.815,-3.7792,-3.7613,-3.7577,-3.7577,-3.7577,-3.7577,-3.7577,-3.7577,-3.7577,-3.7577,-3.7577,-1.915,-2.2486,-2.492,-2.4205,0.0,-2.5706,-2.6094,0.0,0.0,0.0,0.0,0.0,0.0,-3.0726,0.0,-3.5831,-3.8969,-4.1385,-4.2257,-4.3673,-4.4924,-4.5764,-4.5841,-4.58,-4.58,-4.58,-4.5723,-4.5563,-4.5456,-4.5321,-4.5148,-4.4967,-4.4895,-4.4895,-4.4895,-4.4895,-4.4895,-4.4895,-4.4895,-4.4895,-4.4895,-4.4895,-4.4895,-4.4895,-4.4895,-4.4895,-4.4895,-4.4895,-4.4895,-4.4895,-4.4895,-4.4895,-4.4895,-4.4895,-4.4895,-4.4895,-4.4895,-4.4895,-4.4895,-4.4895,-4.4895,-4.4895,-4.4895,-4.4895,-4.4895,-4.4895,-4.4895,-4.4895,-4.4895,-4.4895,-4.4895,-4.4762,-4.4516,-4.408,-4.3834,-4.3531,-4.2848,-4.2697,-4.2697,-4.2697,-4.2697,-4.2773,-4.2962,-4.2829,-4.2507,-4.1882,-4.1616,-4.1237,-4.0574,-4.0242,-4.0065,-4.0065,-3.9533,-3.9227,-3.9323,-3.9087,-3.8805,-3.8437,-3.8289,-3.8065,-3.7774,-3.7649,-3.7577,-3.7577,-3.7577,-3.7577,-3.7577,-3.7577,-3.7577,-3.7577,-3.7577,-3.7577,-1.7672,-2.0685,-2.3461,-2.4178,0.0,0.0,-2.7576,0.0,0.0,0.0,0.0,0.0,0.0,-3.4265,-3.6787,-3.7851,-4.021,-4.2235,-4.3092,-4.4001,-4.4891,-4.5717,-4.5814,-4.58,-4.58,-4.58,-4.5692,-4.5419,-4.5419,-4.526,-4.4943,-4.4895,-4.4895,-4.4895,-4.4895,-4.4895,-4.4895,-4.4895,-4.4895,-4.4895,-4.4895,-4.4895,-4.4895,-4.4895,-4.4895,-4.4895,-4.4895,-4.4895,-4.4895,-4.4895,-4.4895,-4.4895,-4.4895,-4.4895,-4.4895,-4.4895,-4.4895,-4.4895,-4.4895,-4.4895,-4.4895,-4.4895,-4.4895,-4.4895,-4.4895,-4.4895,-4.4895,-4.4895,-4.4895,-4.4895,-4.4895,-4.4345,-4.3966,-4.4649,-4.4251,-4.3682,-4.3625,-4.3606,-4.3606,-4.3606,-4.3606,-4.3834,-4.4592,-4.4099,-4.3587,-4.3531,-4.2829,-4.2299,-4.2242,-4.1243,-4.0558,-4.0558,-3.9528,-3.8976,-3.9352,-3.9358,-3.9189,-3.8776,-3.8397,-3.8132,-3.7984,-3.7721,-3.7577,-3.7577,-3.7577,-3.7577,-3.7577,-3.7577,-3.7577,-3.7577,-3.7577,-3.7577,-1.7539,-2.0734,-2.361,-2.3586,0.0,0.0,0.0,0.0,0.0,0.0,0.0,0.0,0.0,0.0,-3.7193,-3.8063,-4.0346,-4.2299,-4.3189,-4.4059,-4.491,-4.5703,-4.58,-4.58,-4.58,-4.58,-4.5692,-4.5419,-4.54,-4.5241,-4.4919,-4.4895,-4.4895,-4.4895,-4.4895,-4.4895,-4.4895,-4.4895,-4.4895,-4.4895,-4.4895,-4.4895,-4.4895,-4.4895,-4.4895,-4.4895,-4.4895,-4.4895,-4.4895,-4.4895,-4.4895,-4.4895,-4.4895,-4.4895,-4.4895,-4.4895,-4.4895,-4.4895,-4.4895,-4.4895,-4.4895,-4.4895,-4.4895,-4.4895,-4.4895,-4.4895,-4.4895,-4.4895,-4.4895,-4.4895,-4.4895,-4.4668,-4.4516,-4.4838,-4.4668,-4.4459,-4.4459,-4.4459,-4.4459,-4.4459,-4.4459,-4.4535,-4.4857,-4.4649,-4.4221,-4.3498,-4.3114,-4.2622,-4.1838,-4.1315,-4.081,-4.0243,-3.9571,-3.9137,-3.9031,-3.9444,-3.9657,-3.9486,-3.8885,-3.8349,-3.7775,-3.7649,-3.7826,-3.8344,-3.7844,-3.7844,-3.8344,-3.7826,-3.7577,-3.7577,-3.7577,-3.7577,-1.8493,-2.1582,-2.4387,0.0,0.0,0.0,0.0,0.0,0.0,0.0,-3.5742,0.0,0.0,0.0,0.0,-3.847,-4.052,-4.2202,-4.2802,-4.3634,-4.4388,-4.4949,-4.5007,-4.5123,-4.5394,-4.5365,-4.5356,-4.54,-4.5361,-4.5197,-4.4919,-4.4895,-4.4895,-4.4895,-4.4895,-4.4895,-4.4895,-4.4895,-4.4895,-4.4895,-4.4895,-4.4895,-4.4895,-4.4895,-4.4895,-4.4895,-4.4895,-4.4895,-4.4895,-4.4895,-4.4895,-4.4895,-4.4895,-4.4895,-4.4895,-4.4895,-4.4895,-4.4895,-4.4895,-4.4895,-4.4895,-4.4895,-4.4895,-4.4895,-4.4895,-4.4895,-4.4895,-4.4895,-4.4895,-4.4895,-4.4895,-4.4895,-4.4895,-4.4895,-4.4895,-4.4895,-4.4895,-4.4895,-4.4895,-4.4895,-4.4895,-4.4895,-4.4895,-4.4802,-4.4492,-4.3697,-4.3465,-4.3069,-4.2193,-4.1709,-4.1071,-4.0032,-3.9692,-3.9535,-3.9542,-4.0003,-4.0289,-4.0289,-3.9807,-3.9165,-3.8362,-3.8094,-3.8237,-3.879,-3.8005,-3.7862,-3.8415,-3.7862,-3.7577,-3.7577,-3.7577,-3.7577,-2.0636,-2.3118,0.0,0.0,0.0,0.0,0.0,0.0,0.0,0.0,0.0,-3.7278,-3.8083,-3.8257,-3.8578,-3.9371,-4.0887,-4.199,-4.2009,-4.2744,-4.3285,-4.3305,-4.3305,-4.3634,-4.4504,-4.4407,-4.4605,-4.5343,-4.5279,-4.5125,-4.4895,-4.4895,-4.4895,-4.4895,-4.4895,-4.4895,-4.4895,-4.4895,-4.4895,-4.4895,-4.4895,-4.4895,-4.4895,-4.4895,-4.4895,-4.4895,-4.4895,-4.4895,-4.4895,-4.4895,-4.4895,-4.4895,-4.4895,-4.4895,-4.4895,-4.4895,-4.4895,-4.4895,-4.4895,-4.4895,-4.4895,-4.4895,-4.4895,-4.4895,-4.4895,-4.4895,-4.4895,-4.4895,-4.4895,-4.4895,-4.4895,-4.4895,-4.4895,-4.4895,-4.4895,-4.4895,-4.4895,-4.4895,-4.4895,-4.4895,-4.4895,-4.4895,-4.4895,-4.461,-4.4383,-4.4402,-4.4046,-4.3786,-4.3786,-4.2603,-4.1306,-4.0042,-3.9914,-4.0235,-4.1038,-4.1109,-4.1109,-4.1109,-4.1109,-4.0753,-3.995,-3.9218,-3.8826,-3.8826,-3.8005,-3.7612,-3.7612,-3.7594,-3.7577,-3.7594,-3.7594,-3.7594,-2.3195,-2.4038,0.0,0.0,0.0,0.0,0.0,0.0,0.0,0.0,-3.9243,-3.8895,-3.9069,-3.9139,-3.9216,-3.9468,-4.0423,-4.1351,-4.1912,-4.2222,-4.2609,-4.3227,-4.3305,-4.3401,-4.3653,-4.406,-4.4355,-4.448,-4.4935,-4.5125,-4.4895,-4.4895,-4.4895,-4.4895,-4.4895,-4.4895,-4.4895,-4.4895,-4.4895,-4.4895,-4.4895,-4.4895,-4.4895,-4.4895,-4.4895,-4.4895,-4.4895,-4.4895,-4.4895,-4.4895,-4.4895,-4.4895,-4.4895,-4.4895,-4.4895,-4.4895,-4.4895,-4.4895,-4.4895,-4.4895,-4.4895,-4.4895,-4.4895,-4.4895,-4.4895,-4.4895,-4.4895,-4.4895,-4.4895,-4.4895,-4.4895,-4.4895,-4.4895,-4.4895,-4.4895,-4.4895,-4.4895,-4.4895,-4.4895,-4.4895,-4.4895,-4.4895,-4.4895,-4.4726,-4.4467,-4.4035,-4.3767,-4.3422,-4.2957,-4.1949,-4.1181,-4.077,-4.0753,-4.0842,-4.1074,-4.1609,-4.193,-4.193,-4.193,-4.1324,-3.9968,-3.97,-3.9843,-4.0414,-3.9129,-3.8986,-4.0057,-3.8397,-3.788,-3.8433,-3.8433,-3.813,-2.3665,0.0,0.0,0.0,0.0,0.0,0.0,0.0,0.0,0.0,0.0,-3.9727,-3.9959,-3.9765,-3.9649,-3.9959,-4.0462,-4.0965,-4.1448,-4.1525,-4.1719,-4.2241,-4.2318,-4.2434,-4.2744,-4.305,-4.3342,-4.3598,-4.3918,-4.4026,-4.391,-4.4251,-4.427,-4.3929,-4.4554,-4.4743,-4.4421,-4.4743,-4.4895,-4.4895,-4.4895,-4.4895,-4.4895,-4.4895,-4.4895,-4.4895,-4.4895,-4.4895,-4.4895,-4.4895,-4.4895,-4.4895,-4.4895,-4.4895,-4.4895,-4.4895,-4.4895,-4.4895,-4.4895,-4.4895,-4.4895,-4.4895,-4.4895,-4.4895,-4.4895,-4.4895,-4.4895,-4.4895,-4.4895,-4.4895,-4.4895,-4.4895,-4.4895,-4.4895,-4.4895,-4.4895,-4.4895,-4.4895,-4.4895,-4.4895,-4.4895,-4.4895,-4.4895,-4.4674,-4.4336,-4.3881,-4.3387,-4.2939,-4.2468,-4.1935,-4.1573,-4.1573,-4.1573,-4.1573,-4.1573,-4.2002,-4.2287,-4.2287,-4.2287,-4.1859,-4.0895,-4.0556,-4.061,-4.1092,-3.9878,-3.97,-4.0628,-3.92,-3.8754,-3.9254,-3.9254,-3.8986,0.0,0.0,0.0,0.0,0.0,0.0,0.0,0.0,-3.8897,-4.0555,0.0,-4.0004,-4.0674,-4.0198,-3.9946,-4.0674,-4.079,-4.079,-4.079,-4.079,-4.079,-4.079,-4.079,-4.1081,-4.1783,-4.17,-4.1912,-4.2698,-4.2555,-4.2412,-4.2412,-4.3152,-4.3227,-4.2431,-4.3891,-4.4326,-4.3587,-4.4308,-4.4668,-4.4668,-4.4668,-4.4668,-4.4687,-4.4838,-4.4895,-4.4895,-4.4895,-4.4895,-4.4895,-4.4895,-4.4895,-4.4895,-4.4895,-4.4895,-4.4895,-4.4895,-4.4895,-4.4895,-4.4895,-4.4895,-4.4895,-4.4895,-4.4895,-4.4895,-4.4895,-4.4895,-4.4895,-4.4895,-4.4895,-4.4895,-4.4895,-4.4895,-4.4895,-4.4895,-4.4895,-4.4895,-4.4895,-4.4895,-4.4895,-4.4895,-4.4895,-4.4914,-4.487,-4.4495,-4.4084,-4.3754,-4.3014,-4.2445,-4.2346,-4.2287,-4.2287,-4.2287,-4.2287,-4.2287,-4.2287,-4.2287,-4.2287,-4.2287,-4.2287,-4.2287,-4.2287,-4.1591,-4.1217,-4.1217,-4.0431,-4.0057,-4.0128,-3.9985,-3.995,-4.0021,-3.9982,-3.9907,0.0,0.0,0.0,0.0,0.0,0.0,0.0,0.0,-3.9027,-4.0643,-4.081,-4.0674,-4.0771,-4.0655,-4.0597,-4.0771,-4.079,-4.079,-4.079,-4.079,-4.079,-4.079,-4.079,-4.0804,-4.0824,-4.1286,-4.1628,-4.1724,-4.2126,-4.2412,-4.2412,-4.2583,-4.2602,-4.2412,-4.2754,-4.2848,-4.2678,-4.2848,-4.2943,-4.2943,-4.2943,-4.2943,-4.2981,-4.4308,-4.4895,-4.4895,-4.4895,-4.4895,-4.4895,-4.4895,-4.4895,-4.4895,-4.4895,-4.4895,-4.4895,-4.4895,-4.4895,-4.4895,-4.4895,-4.4895,-4.4895,-4.4895,-4.4895,-4.4895,-4.4895,-4.4895,-4.4895,-4.4895,-4.4895,-4.4895,-4.4895,-4.4895,-4.4895,-4.4895,-4.4895,-4.4895,-4.4895,-4.4895,-4.4895,-4.4895,-4.4895,-4.487,-4.4745,-4.4346,-4.3799,-4.3032,-4.2613,-4.2328,-4.2287,-4.2287,-4.2287,-4.2287,-4.2287,-4.2287,-4.2287,-4.2287,-4.2287,-4.2287,-4.2287,-4.2287,-4.2287,-4.2126,-4.2037,-4.2037,-4.1252,-4.1145,-4.177,-4.0521,-4.0235,-4.0842,-4.0459,-3.994,0.0,0.0,0.0,0.0,0.0,0.0,0.0,0.0,-3.8319,-3.9549,-4.0416,-4.0938,-4.0848,-4.081,-4.079,-4.079,-4.079,-4.079,-4.079,-4.079,-4.079,-4.079,-4.079,-4.0713,-4.0526,-4.079,-4.0919,-4.0787,-4.1041,-4.12,-4.12,-4.1598,-4.1635,-4.1237,-4.1996,-4.2223,-4.1844,-4.2223,-4.2412,-4.2412,-4.2412,-4.2412,-4.245,-4.3739,-4.4326,-4.4345,-4.4724,-4.4895,-4.4895,-4.4895,-4.4895,-4.4895,-4.4895,-4.4895,-4.4895,-4.4895,-4.4895,-4.4895,-4.4895,-4.4895,-4.4895,-4.4895,-4.4895,-4.4895,-4.4895,-4.4895,-4.4895,-4.4895,-4.4895,-4.4895,-4.4895,-4.4895,-4.4895,-4.4895,-4.4895,-4.4895,-4.4895,-4.4895,-4.4846,-4.4681,-4.4655,-4.4584,-4.4308,-4.3831,-4.3334,-4.277,-4.2454,-4.2287,-4.2287,-4.2287,-4.2287,-4.2287,-4.2287,-4.2287,-4.2287,-4.2287,-4.2287,-4.2287,-4.2287,-4.2287,-4.2287,-4.2287,-4.2287,-4.2287,-4.1877,-4.1877,-4.2287,-4.1448,-4.1131,-4.1297,-4.1024,-4.0578,0.0,0.0,0.0,0.0,0.0,0.0,0.0,0.0,-3.748,-3.8164,-3.963,-4.0773,-4.0687,-4.0732,-4.079,-4.079,-4.079,-4.079,-4.079,-4.079,-4.079,-4.079,-4.079,-4.0713,-4.0496,-4.0367,-4.023,-4.0061,-3.9956,-3.9889,-3.9889,-4.0593,-4.065,-3.9908,-4.1256,-4.1654,-4.0991,-4.1654,-4.1977,-4.1977,-4.1977,-4.1977,-4.2014,-4.2867,-4.3341,-4.3531,-4.4345,-4.4687,-4.4706,-4.4838,-4.4895,-4.4895,-4.4895,-4.4895,-4.4895,-4.4895,-4.4895,-4.4895,-4.4895,-4.4895,-4.4895,-4.4895,-4.4895,-4.4895,-4.4895,-4.4895,-4.4895,-4.4895,-4.4895,-4.4895,-4.4895,-4.4895,-4.4895,-4.4895,-4.487,-4.4827,-4.4895,-4.4846,-4.4732,-4.4457,-4.4327,-4.4106,-4.3754,-4.3248,-4.2884,-4.2673,-4.2432,-4.2287,-4.2287,-4.2287,-4.2287,-4.2287,-4.2287,-4.2287,-4.2287,-4.2287,-4.2287,-4.2287,-4.2287,-4.2287,-4.2287,-4.2287,-4.2287,-4.2287,-4.2287,-4.2287,-4.2287,-4.2287,-4.2002,-4.1472,-4.1445,-4.1111,0.0,0.0,0.0,0.0,0.0,0.0,0.0,0.0,-3.7324,0.0,-3.8748,-3.9843,-3.9789,-4.0346,-4.079,-4.079,-4.079,-4.079,-4.079,-4.079,-4.079,-4.079,-4.079,-4.0673,-4.0351,-4.0317,-4.0194,-3.9935,-3.9911,-3.9889,-3.9889,-4.0003,-4.0003,-3.9889,-4.0116,-4.0173,-4.006,-4.0173,-4.0211,-4.0211,-4.0211,-4.0211,-4.0249,-4.1143,-4.192,-4.2621,-4.3493,-4.3853,-4.391,-4.4611,-4.4895,-4.4895,-4.4895,-4.4895,-4.4895,-4.4895,-4.4895,-4.4895,-4.4895,-4.4895,-4.4895,-4.4895,-4.4895,-4.4895,-4.4895,-4.4895,-4.4895,-4.4895,-4.4895,-4.4895,-4.4895,-4.4895,-4.4895,-4.4895,-4.4681,-4.4557,-4.4846,-4.4681,-4.4457,-4.443,-4.3986,-4.3505,-4.3159,-4.2903,-4.2634,-4.2391,-4.2328,-4.2287,-4.2287,-4.2287,-4.2287,-4.2287,-4.2287,-4.2287,-4.2287,-4.2287,-4.2287,-4.2287,-4.2287,-4.2287,-4.2287,-4.2287,-4.2287,-4.2287,-4.2287,-4.2287,-4.2287,-4.2287,-4.2002,-4.1472,-4.1065,-4.0594,0.0,0.0,0.0,0.0,0.0,0.0,0.0,0.0,-3.5976,-3.6465,-3.7455,-3.8376,-3.8833,-3.9166,-3.9495,-3.9978,-4.0055,-4.023,-4.0732,-4.079,-4.079,-4.079,-4.07,-4.0545,-4.0317,-4.023,-4.0101,-3.9911,-3.9889,-3.9889,-3.9889,-3.9889,-3.9889,-3.9889,-3.9889,-3.9889,-3.9889,-3.9889,-3.9889,-3.9889,-3.9889,-3.9889,-3.9908,-4.0309,-4.0934,-4.1768,-4.2621,-4.2981,-4.3038,-4.3891,-4.4232,-4.427,-4.4724,-4.4895,-4.4895,-4.4895,-4.4895,-4.4895,-4.4895,-4.4895,-4.4895,-4.4895,-4.4895,-4.4895,-4.4895,-4.4895,-4.4895,-4.4895,-4.4895,-4.487,-4.4681,-4.461,-4.4584,-4.4374,-4.4213,-4.4154,-4.4318,-4.4213,-4.4065,-4.3818,-4.3353,-4.2921,-4.2747,-4.2591,-4.2432,-4.2328,-4.2287,-4.2287,-4.2287,-4.2287,-4.2287,-4.2287,-4.2287,-4.2287,-4.2287,-4.2287,-4.2287,-4.2287,-4.2287,-4.2287,-4.2287,-4.2287,-4.2287,-4.2287,-4.2287,-4.2287,-4.2287,-4.2002,-4.1578,-4.1128,-4.0594,-4.007,0.0,0.0,0.0,0.0,0.0,0.0,0.0,0.0,-3.4883,-3.5547,-3.6264,-3.6962,-3.7624,-3.7986,-3.8411,-3.905,-3.9166,-3.9456,-4.0346,-4.0462,-4.0539,-4.0771,-4.0621,-4.0446,-4.0317,-4.0176,-4.004,-3.9911,-3.9889,-3.9889,-3.9889,-3.9889,-3.9889,-3.9889,-3.9889,-3.9889,-3.9889,-3.9889,-3.9889,-3.9889,-3.9889,-3.9889,-3.9889,-3.9889,-4.0252,-4.0934,-4.1749,-4.2109,-4.2185,-4.3265,-4.3701,-4.3777,-4.4592,-4.4895,-4.4895,-4.4895,-4.4895,-4.4895,-4.4895,-4.4895,-4.4895,-4.4895,-4.4895,-4.4895,-4.4895,-4.4895,-4.487,-4.4802,-4.4777,-4.4707,-4.4355,-4.427,-4.4213,-4.3974,-4.3849,-4.3786,-4.3786,-4.3754,-4.3623,-4.3196,-4.2824,-4.2548,-4.2445,-4.2346,-4.2287,-4.2287,-4.2287,-4.2287,-4.2287,-4.2287,-4.2287,-4.2287,-4.2287,-4.2287,-4.2287,-4.2287,-4.2287,-4.2287,-4.2287,-4.2287,-4.2287,-4.2287,-4.2287,-4.2287,-4.2287,-4.2228,-4.2103,-4.1709,-4.1202,-4.0611,-4.0203,-3.9731,0.0,0.0,0.0,0.0,0.0,0.0,0.0,0.0,-3.4707,-3.4766,-3.5347,-3.5892,-3.592,-3.7174,-3.8218,-3.8257,-3.8276,-3.8566,-3.9449,-3.9584,-3.9874,-4.0694,-4.0621,-4.0446,-4.0317,-4.0176,-4.004,-3.9911,-3.9889,-3.9889,-3.9889,-3.9889,-3.9889,-3.9889,-3.9889,-3.9889,-3.9889,-3.9889,-3.9889,-3.9889,-3.9889,-3.9889,-3.9889,-3.9889,-3.9908,-4.0003,-4.0896,-4.1275,-4.1389,-4.3038,-4.3701,-4.3777,-4.4592,-4.4895,-4.4895,-4.4895,-4.4895,-4.4895,-4.4895,-4.4895,-4.4895,-4.4895,-4.4895,-4.4895,-4.4895,-4.4895,-4.4827,-4.453,-4.443,-4.4355,-4.4004,-4.3943,-4.3912,-4.3912,-4.3656,-4.344,-4.344,-4.3389,-4.3196,-4.2747,-4.2566,-4.2445,-4.2328,-4.2287,-4.2287,-4.2287,-4.2287,-4.2287,-4.2287,-4.2287,-4.2287,-4.2287,-4.2287,-4.2287,-4.2287,-4.2287,-4.2287,-4.2287,-4.2287,-4.2287,-4.2287,-4.2287,-4.2287,-4.2287,-4.2287,-4.2044,-4.1516,-4.1516,-4.1001,-4.0053,-4.0003,-3.9731,0.0,0.0,0.0,0.0,0.0,0.0,-2.9375,-3.1035,-3.2422,-3.2988,-3.4134,-3.5029,-3.4981,-3.5858,-3.6767,-3.729,-3.7367,-3.7677,-3.8547,-3.8663,-3.8779,-3.9088,-3.8912,-3.8757,-3.8709,-3.8499,-3.8571,-3.9077,-3.9134,-3.9361,-3.9851,-3.9889,-3.9889,-3.9889,-3.9889,-3.9889,-3.9889,-3.9889,-3.9889,-3.9889,-3.9889,-3.9889,-3.9889,-3.9889,-3.9889,-3.9908,-4.0211,-4.0385,-4.046,-4.1616,-4.2412,-4.2962,-4.3796,-4.4459,-4.4838,-4.4326,-4.4459,-4.4838,-4.4308,-4.4342,-4.4584,-4.4584,-4.443,-4.426,-4.426,-4.426,-4.4213,-4.4125,-4.4095,-4.3986,-4.3656,-4.359,-4.3523,-4.3301,-4.3178,-4.305,-4.3032,-4.3013,-4.29,-4.2649,-4.2566,-4.2463,-4.2328,-4.2287,-4.2287,-4.2287,-4.2287,-4.2287,-4.2287,-4.2287,-4.2287,-4.2287,-4.2287,-4.2287,-4.2287,-4.2287,-4.2287,-4.2287,-4.2287,-4.2287,-4.2287,-4.2287,-4.2287,-4.2287,-4.1959,-4.1709,-4.1472,-4.1202,-4.0689,-4.0003,-3.9679,-3.9451,0.0,0.0,0.0,0.0,0.0,-2.5391,-2.7402,-2.8984,-3.0351,-3.1523,-3.2807,-3.3796,-3.4046,-3.4749,-3.553,-3.6361,-3.6497,-3.6787,-3.7638,-3.7754,-3.787,-3.8179,-3.7964,-3.7792,-3.7792,-3.7547,-3.7637,-3.8205,-3.8243,-3.849,-3.9039,-3.9058,-3.9191,-3.9494,-3.9513,-3.9646,-3.9889,-3.9889,-3.9889,-3.9889,-3.9889,-3.9889,-3.9889,-3.9889,-3.9889,-3.9889,-3.9889,-3.9889,-3.9965,-4.084,-4.1522,-4.209,-4.2943,-4.3587,-4.398,-4.3359,-4.3466,-4.3844,-4.3177,-4.3152,-4.3484,-4.3736,-4.3685,-4.3559,-4.3838,-4.3912,-4.3881,-4.3754,-4.3721,-4.3656,-4.3301,-4.3231,-4.3178,-4.2957,-4.29,-4.2824,-4.2822,-4.2745,-4.2706,-4.2588,-4.2468,-4.2387,-4.2346,-4.2287,-4.2287,-4.2287,-4.2287,-4.2287,-4.2287,-4.2287,-4.2287,-4.2287,-4.2287,-4.2287,-4.2287,-4.2287,-4.2287,-4.2287,-4.2287,-4.2228,-4.2044,-4.2044,-4.1959,-4.177,-4.1445,-4.1157,-4.1001,-4.0689,-4.0269,-3.9782,-3.9468,-3.9272,0.0,0.0,0.0,0.0,0.0,0.0,-2.6289,0.0,-2.8672,-3.039,-3.1382,-3.2192,-3.3054,-3.3849,-3.464,-3.5491,-3.5665,-3.5974,-3.6748,-3.6864,-3.7174,-3.8025,-3.7887,-3.7715,-3.7715,-3.7471,-3.7334,-3.7353,-3.7353,-3.7371,-3.739,-3.739,-3.7788,-3.8643,-3.87,-3.9058,-3.9851,-3.9889,-3.9889,-3.9889,-3.9889,-3.9889,-3.9889,-3.9889,-3.9889,-3.9889,-3.9889,-3.9889,-3.9965,-4.0821,-4.1181,-4.1253,-4.2029,-4.2351,-4.2347,-4.2046,-4.1969,-4.1942,-4.1586,-4.1481,-4.1601,-4.2419,-4.263,-4.2797,-4.3602,-4.3844,-4.3781,-4.3456,-4.3353,-4.3265,-4.2922,-4.281,-4.2828,-4.2846,-4.2806,-4.2765,-4.2783,-4.2706,-4.2588,-4.2503,-4.2387,-4.2287,-4.2287,-4.2287,-4.2287,-4.2287,-4.2287,-4.2287,-4.2287,-4.2287,-4.2287,-4.2287,-4.2287,-4.2287,-4.2287,-4.2287,-4.2287,-4.2287,-4.2287,-4.2044,-4.1516,-4.149,-4.1248,-4.0802,-4.0802,-4.0497,-4.0003,-4.0003,-3.9782,-3.9272,-3.9272,-3.9272,-1.6875,0.0,0.0,0.0,0.0,0.0,-2.3144,-2.4434,-2.5796,-2.6919,-2.8766,-3.0424,-3.1208,-3.2541,-3.3606,-3.3789,-3.4872,-3.5781,-3.5994,-3.6033,-3.611,-3.6361,-3.615,-3.599,-3.599,-3.5738,-3.5855,-3.6481,-3.6519,-3.6784,-3.7371,-3.739,-3.7504,-3.775,-3.8357,-3.8793,-3.902,-3.9608,-3.9889,-3.9889,-3.9889,-3.9889,-3.9889,-3.9889,-3.9889,-3.9889,-3.9889,-3.9889,-3.9908,-4.0154,-4.048,-4.0866,-4.1073,-4.1398,-4.1669,-4.1008,-4.1148,-4.154,-4.0849,-4.0841,-4.1193,-4.1414,-4.1313,-4.1261,-4.2064,-4.232,-4.2412,-4.2887,-4.2614,-4.2032,-4.1361,-4.1162,-4.1288,-4.1848,-4.1955,-4.2042,-4.248,-4.2526,-4.2526,-4.2503,-4.2387,-4.2287,-4.2287,-4.2287,-4.2287,-4.2287,-4.2287,-4.2287,-4.2287,-4.2287,-4.2287,-4.2287,-4.2287,-4.2287,-4.2287,-4.2287,-4.2287,-4.2287,-4.1959,-4.1666,-4.1534,-4.1157,-4.0879,-4.0642,-4.0285,-3.9935,-3.9697,-3.9902,-3.9782,-3.9272,-3.9272,-3.9272,0.0,0.0,0.0,0.0,0.0,0.0,-2.3164,-2.3679,-2.43,-2.5885,-2.7368,-2.8616,-2.9407,-3.0665,-3.1671,-3.201,-3.3189,-3.4331,-3.5065,-3.5162,-3.5278,-3.5665,-3.5515,-3.5374,-3.5315,-3.5105,-3.5172,-3.5609,-3.5647,-3.5855,-3.6329,-3.6348,-3.6519,-3.6879,-3.739,-3.7807,-3.8148,-3.8622,-3.9039,-3.9399,-3.9399,-3.9589,-3.9889,-3.9889,-3.9889,-3.9889,-3.9781,-3.9693,-3.9651,-3.9561,-3.9795,-4.0178,-4.0057,-4.0178,-4.0383,-3.9822,-3.9893,-4.0207,-3.9632,-3.9606,-3.9871,-4.0218,-4.0211,-4.0202,-4.0981,-4.1216,-4.1307,-4.1778,-4.156,-4.1107,-4.0637,-4.0474,-4.0565,-4.1016,-4.105,-4.1063,-4.1432,-4.1712,-4.2011,-4.2333,-4.2346,-4.2287,-4.2287,-4.2287,-4.2287,-4.2287,-4.2287,-4.2287,-4.2287,-4.2287,-4.2287,-4.2287,-4.2287,-4.2287,-4.2287,-4.2086,-4.1959,-4.1959,-4.149,-4.1111,-4.0908,-4.0577,-4.0235,-3.9952,-3.9594,-3.9348,-3.9259,-3.9401,-3.9365,-3.9094,-3.9094,-3.9094,-1.9824,-2.0215,0.0,-2.2793,-2.2109,0.0,-2.4629,-2.4148,-2.3721,-2.5894,-2.637,-2.6671,-2.7636,-2.8479,-2.9302,-3.0172,-3.0984,-3.2164,-3.4002,-3.4253,-3.4543,-3.5317,-3.5283,-3.518,-3.5162,-3.5037,-3.494,-3.4908,-3.4908,-3.4908,-3.4908,-3.4908,-3.5249,-3.6026,-3.614,-3.6538,-3.7258,-3.7353,-3.7788,-3.8567,-3.8567,-3.8982,-3.9778,-3.9778,-3.9794,-3.9826,-3.9599,-3.9371,-3.9231,-3.9017,-3.9109,-3.9357,-3.9082,-3.8924,-3.8886,-3.8628,-3.8572,-3.851,-3.8256,-3.8192,-3.8301,-3.9025,-3.926,-3.9405,-4.0148,-4.0383,-4.0383,-4.0383,-4.0383,-4.0365,-4.0239,-4.0185,-4.0149,-4.0239,-4.011,-3.9978,-4.0068,-4.0563,-4.1181,-4.1877,-4.2162,-4.2287,-4.2287,-4.2287,-4.2287,-4.2287,-4.2287,-4.2287,-4.2287,-4.2287,-4.2287,-4.2287,-4.2287,-4.2287,-4.2246,-4.177,-4.1472,-4.1445,-4.0972,-4.0497,-4.0003,-3.9783,-3.9437,-3.8969,-3.8805,-3.875,-3.875,-3.8805,-3.8805,-3.8805,-3.8805,-3.886,-2.1602,-2.2031,-2.2754,-2.3047,-2.3398,0.0,-2.2793,-2.2874,-2.3037,-2.2835,-2.3299,-2.4208,-2.5724,-2.6652,-2.7484,-2.8373,-2.9224,-3.0617,-3.3015,-3.3363,-3.3421,-3.3596,-3.3448,-3.3566,-3.4189,-3.408,-3.4244,-3.4851,-3.4908,-3.4908,-3.4908,-3.4908,-3.4984,-3.5154,-3.5817,-3.6272,-3.6424,-3.7068,-3.7485,-3.7637,-3.7637,-3.8092,-3.8925,-3.8925,-3.9157,-3.9575,-3.9396,-3.9197,-3.8952,-3.8603,-3.853,-3.8688,-3.8688,-3.8554,-3.8354,-3.8289,-3.8274,-3.8274,-3.8225,-3.8192,-3.821,-3.8373,-3.8427,-3.8572,-3.9369,-3.9604,-3.9604,-3.9604,-3.9604,-3.946,-3.8685,-3.8487,-3.858,-3.9085,-3.9155,-3.9297,-3.981,-4.0039,-4.0199,-4.0342,-4.1413,-4.2287,-4.2287,-4.2287,-4.2287,-4.2287,-4.2287,-4.2287,-4.2287,-4.2287,-4.2287,-4.2287,-4.2287,-4.2145,-4.1709,-4.1578,-4.1338,-4.0943,-4.0334,-3.9935,-3.9834,-3.9295,-3.8914,-3.8672,-3.856,-3.8504,-3.8504,-3.8694,-3.8805,-3.8805,-3.8805,-3.8805,-2.3379,-2.3477,-2.4004,-2.4844,-2.4729,0.0,0.0,-2.4008,-2.3642,-2.3647,-2.3628,-2.386,-2.4699,-2.5182,-2.5743,-2.6613,-2.7464,-2.8606,-3.0327,-3.1661,-3.2599,-3.3044,-3.3006,-3.3064,-3.3379,-3.3299,-3.3361,-3.3619,-3.4055,-3.4301,-3.4301,-3.468,-3.4908,-3.4908,-3.5325,-3.5552,-3.5552,-3.595,-3.6367,-3.6803,-3.6803,-3.7239,-3.8054,-3.7888,-3.8169,-3.8771,-3.8377,-3.8335,-3.8542,-3.8249,-3.8153,-3.8204,-3.8267,-3.8219,-3.8122,-3.8192,-3.8192,-3.8192,-3.8192,-3.8192,-3.8192,-3.8192,-3.8192,-3.8264,-3.8663,-3.879,-3.879,-3.879,-3.879,-3.8699,-3.8144,-3.7967,-3.8006,-3.8241,-3.8276,-3.8346,-3.8665,-3.9075,-3.9361,-3.9361,-4.0307,-4.1234,-4.1627,-4.1698,-4.1841,-4.2234,-4.2287,-4.2144,-4.1752,-4.2037,-4.2144,-4.1734,-4.1813,-4.1813,-4.1516,-4.1047,-4.047,-3.9788,-3.9211,-3.8885,-3.8833,-3.8356,-3.828,-3.8504,-3.8448,-3.8391,-3.8391,-3.8544,-3.86,-3.86,-3.86,-3.8655,-2.4877,-2.4754,-2.5184,-2.6423,-2.5913,-2.5348,0.0,0.0,0.0,-2.4942,-2.4447,-2.4002,-2.4176,-2.406,-2.4234,-2.5105,-2.5936,-2.671,-2.7426,-2.9418,-3.1139,-3.201,-3.2106,-3.2158,-3.23,-3.2264,-3.2294,-3.2405,-3.2766,-3.3202,-3.3676,-3.432,-3.4737,-3.4908,-3.4908,-3.4908,-3.4908,-3.4908,-3.5249,-3.595,-3.595,-3.6367,-3.7163,-3.681,-3.7079,-3.7766,-3.7103,-3.7249,-3.7881,-3.7682,-3.7685,-3.7864,-3.7933,-3.8002,-3.8018,-3.8106,-3.814,-3.814,-3.814,-3.8174,-3.8174,-3.8192,-3.8192,-3.8192,-3.8192,-3.8192,-3.8192,-3.8192,-3.8174,-3.814,-3.8002,-3.7916,-3.781,-3.7721,-3.7649,-3.7577,-3.7577,-3.8112,-3.8576,-3.8576,-3.9058,-3.9771,-4.0717,-4.0877,-4.1092,-4.1734,-4.1841,-4.1591,-4.0949,-4.1431,-4.1591,-4.0949,-4.0983,-4.1034,-4.0884,-4.0035,-3.921,-3.8355,-3.7947,-3.7732,-3.7756,-3.7709,-3.7887,-3.8391,-3.8262,-3.8262,-3.8391,-3.8262,-3.8262,-3.8391,-3.8391,-3.8448,-2.5768,-2.6076,-2.6478,-2.5901,-2.6775,-2.7211,-2.5089,0.0,-2.4953,-2.3577,0.0,-2.3287,-2.406,0.0,0.0,-2.4215,-2.5066,-2.5666,-2.5762,-2.6644,-2.76,-2.847,-2.8531,-2.9017,-3.0356,-3.0327,-3.0829,-3.2293,-3.1174,-3.1383,-3.3581,-3.379,-3.4169,-3.487,-3.4908,-3.4908,-3.4908,-3.4908,-3.4946,-3.504,-3.504,-3.5495,-3.6329,-3.6001,-3.6136,-3.6644,-3.6161,-3.624,-3.677,-3.6612,-3.6988,-3.7667,-3.7828,-3.7951,-3.7984,-3.7951,-3.7934,-3.7934,-3.8002,-3.8018,-3.8036,-3.8174,-3.8192,-3.8192,-3.8192,-3.8192,-3.8192,-3.8192,-3.8122,-3.8002,-3.7934,-3.781,-3.7703,-3.7613,-3.7631,-3.7577,-3.7577,-3.7666,-3.7719,-3.7719,-3.7791,-3.8308,-3.9807,-4.0057,-4.0075,-4.0164,-4.0182,-4.0146,-4.0057,-4.0128,-4.0146,-4.0057,-3.9752,-3.9328,-3.8705,-3.818,-3.7585,-3.6946,-3.6754,-3.6926,-3.753,-3.8033,-3.8311,-3.8391,-3.7776,-3.776,-3.8391,-3.7744,-3.7776,-3.8391,-3.8391,-3.8408,-2.5868,-2.626,-2.6809,-2.6449,-2.6883,-2.709,-2.5998,-2.5615,-2.5306,-2.4602,0.0,0.0,0.0,0.0,0.0,0.0,-2.3751,-2.3983,-2.3983,-2.4273,-2.5376,-2.7724,-2.7479,-2.7552,-2.8587,-2.8132,-2.8256,-2.9469,-2.9355,-2.9905,-3.1421,-3.2899,-3.3847,-3.4188,-3.4661,-3.4908,-3.4908,-3.4908,-3.485,-3.473,-3.473,-3.4797,-3.4903,-3.4593,-3.4778,-3.5373,-3.4974,-3.5442,-3.6487,-3.6399,-3.6899,-3.7685,-3.7703,-3.7757,-3.781,-3.7881,-3.7899,-3.7899,-3.7916,-3.7951,-3.7951,-3.8003,-3.8054,-3.807,-3.807,-3.814,-3.8174,-3.8122,-3.8036,-3.7949,-3.7828,-3.7757,-3.7667,-3.7613,-3.7577,-3.7577,-3.7577,-3.7577,-3.7577,-3.7577,-3.7577,-3.7791,-3.8451,-3.895,-3.9414,-3.986,-3.9914,-3.9753,-3.9325,-3.9646,-3.964,-3.8943,-3.8769,-3.8508,-3.7925,-3.7384,-3.6753,-3.5967,-3.5847,-3.6068,-3.6783,-3.7442,-3.797,-3.8391,-3.81,-3.81,-3.8391,-3.81,-3.81,-3.8391,-3.8391,-3.8391,-2.6212,-2.6572,-2.7119,-2.6635,-2.6644,-2.671,-2.6494,-2.6118,-2.5782,-2.555,-2.5163,0.0,0.0,0.0,-2.3171,-2.2939,0.0,-2.2878,-2.2878,-2.2651,-2.3597,-2.6588,-2.668,-2.6718,-2.7204,-2.6203,-2.6072,-2.7399,-2.7384,-2.807,-2.9813,-3.1667,-3.2994,-3.3676,-3.4263,-3.468,-3.4908,-3.4908,-3.4811,-3.4602,-3.4542,-3.4348,-3.3981,-3.3634,-3.3756,-3.4261,-3.3934,-3.4526,-3.5774,-3.5774,-3.6381,-3.7345,-3.7292,-3.7417,-3.7667,-3.7775,-3.7828,-3.7828,-3.7846,-3.7864,-3.7899,-3.7899,-3.7916,-3.7967,-3.7967,-3.802,-3.8106,-3.8002,-3.7967,-3.788,-3.7739,-3.7667,-3.7685,-3.7613,-3.7577,-3.7577,-3.7577,-3.7577,-3.7577,-3.7577,-3.7577,-3.7577,-3.7577,-3.8076,-3.8647,-3.92,-3.9272,-3.9037,-3.8371,-3.8762,-3.8713,-3.7673,-3.7542,-3.7359,-3.6986,-3.6373,-3.5754,-3.508,-3.5124,-3.5428,-3.5979,-3.6853,-3.7566,-3.81,-3.81,-3.8197,-3.8391,-3.8197,-3.8197,-3.8391,-3.8391,-3.8391,-2.7241,-2.7398,-2.766,-2.5967,-2.6122,-2.6489,-2.5724,-2.6122,-2.6431,-2.5666,-2.6102,-2.6373,-2.5608,-2.4757,-2.3886,0.0,-2.2856,0.0,0.0,-2.2026,-2.2151,-2.4013,-2.5466,-2.632,-2.6339,-2.4797,-2.4807,-2.7304,-2.5243,-2.5641,-2.968,-3.0037,-3.1231,-3.3619,-3.3733,-3.4112,-3.4889,-3.4908,-3.4811,-3.4602,-3.4461,-3.4246,-3.3981,-3.3597,-3.3437,-3.3426,-3.3073,-3.3401,-3.4169,-3.4169,-3.5079,-3.6435,-3.6435,-3.6916,-3.7613,-3.7631,-3.7631,-3.7613,-3.7667,-3.7792,-3.7899,-3.7899,-3.7899,-3.7899,-3.7899,-3.7899,-3.7899,-3.7899,-3.781,-3.7703,-3.7703,-3.7631,-3.7613,-3.7577,-3.7577,-3.7577,-3.7577,-3.7577,-3.7577,-3.7577,-3.7577,-3.7577,-3.7577,-3.7612,-3.763,-3.7648,-3.7666,-3.752,-3.7031,-3.697,-3.6794,-3.6291,-3.581,-3.5441,-3.5287,-3.4724,-3.4299,-3.4133,-3.4797,-3.5185,-3.5218,-3.6562,-3.7323,-3.7355,-3.7355,-3.7695,-3.8391,-3.7695,-3.7711,-3.8391,-3.8391,-3.8391,-2.7692,-2.8135,-2.8348,-2.6641,-2.6863,-2.7151,-2.5804,-2.6122,-2.647,-2.5666,-2.6141,-2.6423,-2.553,-2.4692,-2.4019,0.0,0.0,-2.2537,0.0,-2.1551,-2.1779,-2.2976,-2.4011,-2.4409,-2.3847,-2.3733,-2.4049,-2.4921,-2.4712,-2.5413,-2.7346,-2.9033,-3.0341,-3.1231,-3.2751,-3.3734,-3.4093,-3.4604,-3.4628,-3.4213,-3.4171,-3.3854,-3.3332,-3.319,-3.3099,-3.3068,-3.293,-3.3348,-3.4115,-3.4115,-3.5007,-3.6399,-3.6399,-3.6881,-3.7577,-3.7577,-3.7577,-3.7613,-3.7613,-3.7649,-3.7703,-3.7703,-3.7739,-3.7757,-3.7757,-3.781,-3.7864,-3.7792,-3.7739,-3.7703,-3.7649,-3.7613,-3.7577,-3.7577,-3.7577,-3.7577,-3.7577,-3.7577,-3.7577,-3.7577,-3.7577,-3.7577,-3.7577,-3.7577,-3.7577,-3.7577,-3.7577,-3.754,-3.7374,-3.7111,-3.6701,-3.6207,-3.5627,-3.5098,-3.4658,-3.4333,-3.4151,-3.4101,-3.4327,-3.4683,-3.5169,-3.5655,-3.6141,-3.6643,-3.708,-3.7436,-3.7679,-3.7922,-3.8165,-3.8391,-3.8391,-3.8391,-2.8276,-2.856,-2.8617,-2.7232,-2.7309,-2.7382,-2.6083,-2.6429,-2.6795,-2.5957,-2.6227,-2.6506,-2.6115,-2.5196,-2.4447,0.0,0.0,0.0,0.0,-2.1107,-2.138,-2.1646,-2.2654,0.0,-2.3398,-2.2748,-2.2842,-2.4068,-2.3808,-2.4358,-2.6096,-2.801,-2.9336,-2.9981,-3.1693,-3.2978,-3.3695,-3.4051,-3.4154,-3.4006,-3.388,-3.3542,-3.2979,-3.2997,-3.2948,-3.2916,-3.2916,-3.3187,-3.3669,-3.3669,-3.4436,-3.5578,-3.5578,-3.6221,-3.7202,-3.747,-3.7577,-3.7577,-3.7577,-3.7577,-3.7577,-3.7577,-3.7613,-3.7667,-3.7667,-3.7721,-3.7793,-3.7685,-3.7667,-3.7631,-3.7613,-3.7577,-3.7577,-3.7577,-3.7577,-3.7577,-3.7577,-3.7577,-3.7577,-3.7577,-3.7577,-3.7577,-3.7577,-3.7577,-3.7577,-3.7577,-3.7449,-3.7281,-3.7111,-3.6684,-3.619,-3.5661,-3.5161,-3.469,-3.425,-3.4151,-3.4101,-3.4101,-3.4101,-3.4311,-3.4781,-3.504,-3.5412,-3.5898,-3.6837,-3.7323,-3.7323,-3.8051,-3.8391,-3.8391,-3.8391,-3.8278]}]]